<?xml version="1.0" encoding="UTF-8" standalone="no" ?>
<gpx xmlns="http://www.topografix.com/GPX/1/1" xmlns:xsi="http://www.w3.org/2001/XMLSchema-instance" xsi:schemaLocation="http://www.topografix.com/GPX/1/1 http://www.topografix.com/GPX/1/1/gpx.xsd" version="1.1" creator="VisuGPX - https://www.visugpx.com">
  <metadata>
    <name>Payolle</name>
    <desc><![CDATA[Très beau parcours à réaliser entre amis un peu physique mais pas très technique.]]></desc>
  </metadata>
  <trk>
    <name><![CDATA[2014-09-13T07:11:11Z]]></name>
    <trkseg>
      <trkpt lat="42.94271" lon="0.27904">
        <ele>1091.162</ele>
        <time>2014-09-13T07:11:13Z</time>
      </trkpt>
      <trkpt lat="42.94272" lon="0.27907">
        <ele>1091.162</ele>
        <time>2014-09-13T07:11:14Z</time>
      </trkpt>
      <trkpt lat="42.94271" lon="0.27917">
        <ele>1091.196</ele>
        <time>2014-09-13T07:11:18Z</time>
      </trkpt>
      <trkpt lat="42.94272" lon="0.27926">
        <ele>1091.784</ele>
        <time>2014-09-13T07:11:23Z</time>
      </trkpt>
      <trkpt lat="42.94268" lon="0.27931">
        <ele>1091.552</ele>
        <time>2014-09-13T07:11:27Z</time>
      </trkpt>
      <trkpt lat="42.94258" lon="0.27949">
        <ele>1092.103</ele>
        <time>2014-09-13T07:11:35Z</time>
      </trkpt>
      <trkpt lat="42.94251" lon="0.27965">
        <ele>1092.524</ele>
        <time>2014-09-13T07:11:42Z</time>
      </trkpt>
      <trkpt lat="42.94246" lon="0.27979">
        <ele>1092.964</ele>
        <time>2014-09-13T07:11:49Z</time>
      </trkpt>
      <trkpt lat="42.94236" lon="0.27995">
        <ele>1093.649</ele>
        <time>2014-09-13T07:11:56Z</time>
      </trkpt>
      <trkpt lat="42.94234" lon="0.27996">
        <ele>1093.771</ele>
        <time>2014-09-13T07:11:57Z</time>
      </trkpt>
      <trkpt lat="42.94223" lon="0.27988">
        <ele>1094.67</ele>
        <time>2014-09-13T07:12:03Z</time>
      </trkpt>
      <trkpt lat="42.94222" lon="0.27986">
        <ele>1094.839</ele>
        <time>2014-09-13T07:12:04Z</time>
      </trkpt>
      <trkpt lat="42.94216" lon="0.27963">
        <ele>1096.266</ele>
        <time>2014-09-13T07:12:12Z</time>
      </trkpt>
      <trkpt lat="42.94213" lon="0.27946">
        <ele>1097.152</ele>
        <time>2014-09-13T07:12:18Z</time>
      </trkpt>
      <trkpt lat="42.94213" lon="0.27928">
        <ele>1098.823</ele>
        <time>2014-09-13T07:12:25Z</time>
      </trkpt>
      <trkpt lat="42.94215" lon="0.2791">
        <ele>1100.083</ele>
        <time>2014-09-13T07:12:32Z</time>
      </trkpt>
      <trkpt lat="42.94206" lon="0.27894">
        <ele>1100.884</ele>
        <time>2014-09-13T07:12:39Z</time>
      </trkpt>
      <trkpt lat="42.94192" lon="0.27882">
        <ele>1102.203</ele>
        <time>2014-09-13T07:12:47Z</time>
      </trkpt>
      <trkpt lat="42.94167" lon="0.27868">
        <ele>1103.927</ele>
        <time>2014-09-13T07:12:59Z</time>
      </trkpt>
      <trkpt lat="42.94154" lon="0.27857">
        <ele>1104.703</ele>
        <time>2014-09-13T07:13:07Z</time>
      </trkpt>
      <trkpt lat="42.9414" lon="0.27845">
        <ele>1105.101</ele>
        <time>2014-09-13T07:13:14Z</time>
      </trkpt>
      <trkpt lat="42.94122" lon="0.27819">
        <ele>1105.427</ele>
        <time>2014-09-13T07:13:23Z</time>
      </trkpt>
      <trkpt lat="42.9411" lon="0.27786">
        <ele>1105.788</ele>
        <time>2014-09-13T07:13:32Z</time>
      </trkpt>
      <trkpt lat="42.94104" lon="0.27755">
        <ele>1106.414</ele>
        <time>2014-09-13T07:13:40Z</time>
      </trkpt>
      <trkpt lat="42.94099" lon="0.27721">
        <ele>1107.088</ele>
        <time>2014-09-13T07:13:49Z</time>
      </trkpt>
      <trkpt lat="42.94094" lon="0.27679">
        <ele>1108.22</ele>
        <time>2014-09-13T07:14:01Z</time>
      </trkpt>
      <trkpt lat="42.94089" lon="0.27644">
        <ele>1109.414</ele>
        <time>2014-09-13T07:14:11Z</time>
      </trkpt>
      <trkpt lat="42.94084" lon="0.27611">
        <ele>1110.472</ele>
        <time>2014-09-13T07:14:21Z</time>
      </trkpt>
      <trkpt lat="42.94081" lon="0.27587">
        <ele>1111.401</ele>
        <time>2014-09-13T07:14:29Z</time>
      </trkpt>
      <trkpt lat="42.94078" lon="0.27552">
        <ele>1113.236</ele>
        <time>2014-09-13T07:14:41Z</time>
      </trkpt>
      <trkpt lat="42.94077" lon="0.27531">
        <ele>1114.328</ele>
        <time>2014-09-13T07:14:48Z</time>
      </trkpt>
      <trkpt lat="42.94075" lon="0.27506">
        <ele>1115.401</ele>
        <time>2014-09-13T07:14:56Z</time>
      </trkpt>
      <trkpt lat="42.9407" lon="0.27468">
        <ele>1117.207</ele>
        <time>2014-09-13T07:15:08Z</time>
      </trkpt>
      <trkpt lat="42.94068" lon="0.27445">
        <ele>1118.083</ele>
        <time>2014-09-13T07:15:15Z</time>
      </trkpt>
      <trkpt lat="42.9407" lon="0.27422">
        <ele>1119.36</ele>
        <time>2014-09-13T07:15:22Z</time>
      </trkpt>
      <trkpt lat="42.94076" lon="0.2739">
        <ele>1120.035</ele>
        <time>2014-09-13T07:15:31Z</time>
      </trkpt>
      <trkpt lat="42.94079" lon="0.27362">
        <ele>1120.769</ele>
        <time>2014-09-13T07:15:39Z</time>
      </trkpt>
      <trkpt lat="42.94073" lon="0.27337">
        <ele>1122.637</ele>
        <time>2014-09-13T07:15:48Z</time>
      </trkpt>
      <trkpt lat="42.94062" lon="0.2732">
        <ele>1124.673</ele>
        <time>2014-09-13T07:15:56Z</time>
      </trkpt>
      <trkpt lat="42.94051" lon="0.27313">
        <ele>1125.995</ele>
        <time>2014-09-13T07:16:02Z</time>
      </trkpt>
      <trkpt lat="42.94044" lon="0.27308">
        <ele>1126.885</ele>
        <time>2014-09-13T07:16:06Z</time>
      </trkpt>
      <trkpt lat="42.94032" lon="0.27298">
        <ele>1128.753</ele>
        <time>2014-09-13T07:16:13Z</time>
      </trkpt>
      <trkpt lat="42.94017" lon="0.27284">
        <ele>1131.412</ele>
        <time>2014-09-13T07:16:22Z</time>
      </trkpt>
      <trkpt lat="42.94001" lon="0.27273">
        <ele>1133.885</ele>
        <time>2014-09-13T07:16:31Z</time>
      </trkpt>
      <trkpt lat="42.93976" lon="0.27263">
        <ele>1137.662</ele>
        <time>2014-09-13T07:16:44Z</time>
      </trkpt>
      <trkpt lat="42.93959" lon="0.27259">
        <ele>1140.135</ele>
        <time>2014-09-13T07:16:53Z</time>
      </trkpt>
      <trkpt lat="42.93937" lon="0.27256">
        <ele>1143.509</ele>
        <time>2014-09-13T07:17:04Z</time>
      </trkpt>
      <trkpt lat="42.93916" lon="0.27251">
        <ele>1147.022</ele>
        <time>2014-09-13T07:17:15Z</time>
      </trkpt>
      <trkpt lat="42.93899" lon="0.27246">
        <ele>1149.476</ele>
        <time>2014-09-13T07:17:24Z</time>
      </trkpt>
      <trkpt lat="42.93878" lon="0.27239">
        <ele>1152.513</ele>
        <time>2014-09-13T07:17:35Z</time>
      </trkpt>
      <trkpt lat="42.93862" lon="0.27234">
        <ele>1154.433</ele>
        <time>2014-09-13T07:17:44Z</time>
      </trkpt>
      <trkpt lat="42.93854" lon="0.27231">
        <ele>1155.529</ele>
        <time>2014-09-13T07:17:51Z</time>
      </trkpt>
      <trkpt lat="42.93854" lon="0.27231">
        <ele>1155.751</ele>
        <time>2014-09-13T07:17:52Z</time>
      </trkpt>
      <trkpt lat="42.93848" lon="0.27228">
        <ele>1155.805</ele>
        <time>2014-09-13T07:19:19Z</time>
      </trkpt>
      <trkpt lat="42.93846" lon="0.27227">
        <ele>1155.825</ele>
        <time>2014-09-13T07:19:20Z</time>
      </trkpt>
      <trkpt lat="42.93833" lon="0.27224">
        <ele>1156.5</ele>
        <time>2014-09-13T07:19:28Z</time>
      </trkpt>
      <trkpt lat="42.93823" lon="0.27221">
        <ele>1157.234</ele>
        <time>2014-09-13T07:19:35Z</time>
      </trkpt>
      <trkpt lat="42.93812" lon="0.27217">
        <ele>1157.614</ele>
        <time>2014-09-13T07:19:43Z</time>
      </trkpt>
      <trkpt lat="42.938" lon="0.27208">
        <ele>1158.122</ele>
        <time>2014-09-13T07:19:52Z</time>
      </trkpt>
      <trkpt lat="42.93787" lon="0.27202">
        <ele>1158.767</ele>
        <time>2014-09-13T07:20:01Z</time>
      </trkpt>
      <trkpt lat="42.93772" lon="0.272">
        <ele>1159.475</ele>
        <time>2014-09-13T07:20:09Z</time>
      </trkpt>
      <trkpt lat="42.93754" lon="0.27199">
        <ele>1160.882</ele>
        <time>2014-09-13T07:20:18Z</time>
      </trkpt>
      <trkpt lat="42.93742" lon="0.27199">
        <ele>1162.482</ele>
        <time>2014-09-13T07:20:25Z</time>
      </trkpt>
      <trkpt lat="42.93724" lon="0.27195">
        <ele>1164.395</ele>
        <time>2014-09-13T07:20:35Z</time>
      </trkpt>
      <trkpt lat="42.93707" lon="0.27192">
        <ele>1166.321</ele>
        <time>2014-09-13T07:20:45Z</time>
      </trkpt>
      <trkpt lat="42.93693" lon="0.27184">
        <ele>1168.069</ele>
        <time>2014-09-13T07:20:53Z</time>
      </trkpt>
      <trkpt lat="42.93677" lon="0.27175">
        <ele>1169.801</ele>
        <time>2014-09-13T07:21:02Z</time>
      </trkpt>
      <trkpt lat="42.93657" lon="0.27163">
        <ele>1171.236</ele>
        <time>2014-09-13T07:21:12Z</time>
      </trkpt>
      <trkpt lat="42.93638" lon="0.27149">
        <ele>1172.743</ele>
        <time>2014-09-13T07:21:21Z</time>
      </trkpt>
      <trkpt lat="42.93622" lon="0.27141">
        <ele>1173.719</ele>
        <time>2014-09-13T07:21:28Z</time>
      </trkpt>
      <trkpt lat="42.93601" lon="0.27129">
        <ele>1175.269</ele>
        <time>2014-09-13T07:21:37Z</time>
      </trkpt>
      <trkpt lat="42.93576" lon="0.27112">
        <ele>1176.314</ele>
        <time>2014-09-13T07:21:47Z</time>
      </trkpt>
      <trkpt lat="42.93553" lon="0.271">
        <ele>1176.899</ele>
        <time>2014-09-13T07:21:55Z</time>
      </trkpt>
      <trkpt lat="42.9353" lon="0.27088">
        <ele>1177.394</ele>
        <time>2014-09-13T07:22:03Z</time>
      </trkpt>
      <trkpt lat="42.93505" lon="0.2708">
        <ele>1177.535</ele>
        <time>2014-09-13T07:22:11Z</time>
      </trkpt>
      <trkpt lat="42.93482" lon="0.27077">
        <ele>1177.901</ele>
        <time>2014-09-13T07:22:18Z</time>
      </trkpt>
      <trkpt lat="42.93455" lon="0.27073">
        <ele>1178.557</ele>
        <time>2014-09-13T07:22:27Z</time>
      </trkpt>
      <trkpt lat="42.93432" lon="0.27062">
        <ele>1180.019</ele>
        <time>2014-09-13T07:22:36Z</time>
      </trkpt>
      <trkpt lat="42.9341" lon="0.27041">
        <ele>1181.64</ele>
        <time>2014-09-13T07:22:46Z</time>
      </trkpt>
      <trkpt lat="42.93387" lon="0.27018">
        <ele>1183.46</ele>
        <time>2014-09-13T07:22:56Z</time>
      </trkpt>
      <trkpt lat="42.93369" lon="0.26989">
        <ele>1184.795</ele>
        <time>2014-09-13T07:23:05Z</time>
      </trkpt>
      <trkpt lat="42.93359" lon="0.26961">
        <ele>1185.242</ele>
        <time>2014-09-13T07:23:12Z</time>
      </trkpt>
      <trkpt lat="42.9336" lon="0.26941">
        <ele>1185.161</ele>
        <time>2014-09-13T07:23:16Z</time>
      </trkpt>
      <trkpt lat="42.93369" lon="0.26922">
        <ele>1184.815</ele>
        <time>2014-09-13T07:23:21Z</time>
      </trkpt>
      <trkpt lat="42.93376" lon="0.269">
        <ele>1185.064</ele>
        <time>2014-09-13T07:23:26Z</time>
      </trkpt>
      <trkpt lat="42.93367" lon="0.26879">
        <ele>1185.283</ele>
        <time>2014-09-13T07:23:31Z</time>
      </trkpt>
      <trkpt lat="42.93346" lon="0.26862">
        <ele>1185.303</ele>
        <time>2014-09-13T07:23:38Z</time>
      </trkpt>
      <trkpt lat="42.93322" lon="0.26848">
        <ele>1185.221</ele>
        <time>2014-09-13T07:23:45Z</time>
      </trkpt>
      <trkpt lat="42.93304" lon="0.26831">
        <ele>1184.995</ele>
        <time>2014-09-13T07:23:51Z</time>
      </trkpt>
      <trkpt lat="42.93296" lon="0.26802">
        <ele>1184.795</ele>
        <time>2014-09-13T07:23:57Z</time>
      </trkpt>
      <trkpt lat="42.93289" lon="0.26745">
        <ele>1184.395</ele>
        <time>2014-09-13T07:24:07Z</time>
      </trkpt>
      <trkpt lat="42.93276" lon="0.26713">
        <ele>1183.951</ele>
        <time>2014-09-13T07:24:13Z</time>
      </trkpt>
      <trkpt lat="42.93248" lon="0.26665">
        <ele>1183.083</ele>
        <time>2014-09-13T07:24:23Z</time>
      </trkpt>
      <trkpt lat="42.93226" lon="0.2663">
        <ele>1183.743</ele>
        <time>2014-09-13T07:24:32Z</time>
      </trkpt>
      <trkpt lat="42.93211" lon="0.26599">
        <ele>1184.925</ele>
        <time>2014-09-13T07:24:40Z</time>
      </trkpt>
      <trkpt lat="42.93213" lon="0.2657">
        <ele>1185.353</ele>
        <time>2014-09-13T07:24:46Z</time>
      </trkpt>
      <trkpt lat="42.93224" lon="0.26539">
        <ele>1185.964</ele>
        <time>2014-09-13T07:24:53Z</time>
      </trkpt>
      <trkpt lat="42.93242" lon="0.26516">
        <ele>1186.817</ele>
        <time>2014-09-13T07:25:00Z</time>
      </trkpt>
      <trkpt lat="42.93258" lon="0.26504">
        <ele>1187.307</ele>
        <time>2014-09-13T07:25:05Z</time>
      </trkpt>
      <trkpt lat="42.93265" lon="0.26509">
        <ele>1187.342</ele>
        <time>2014-09-13T07:25:08Z</time>
      </trkpt>
      <trkpt lat="42.93289" lon="0.26526">
        <ele>1185.947</ele>
        <time>2014-09-13T07:25:14Z</time>
      </trkpt>
      <trkpt lat="42.93298" lon="0.26527">
        <ele>1185.655</ele>
        <time>2014-09-13T07:25:16Z</time>
      </trkpt>
      <trkpt lat="42.93332" lon="0.26531">
        <ele>1183.441</ele>
        <time>2014-09-13T07:25:23Z</time>
      </trkpt>
      <trkpt lat="42.93369" lon="0.26536">
        <ele>1181.207</ele>
        <time>2014-09-13T07:25:29Z</time>
      </trkpt>
      <trkpt lat="42.93419" lon="0.26546">
        <ele>1178.317</ele>
        <time>2014-09-13T07:25:36Z</time>
      </trkpt>
      <trkpt lat="42.93474" lon="0.26546">
        <ele>1175.939</ele>
        <time>2014-09-13T07:25:43Z</time>
      </trkpt>
      <trkpt lat="42.9351" lon="0.26536">
        <ele>1174.349</ele>
        <time>2014-09-13T07:25:48Z</time>
      </trkpt>
      <trkpt lat="42.9353" lon="0.26532">
        <ele>1173.569</ele>
        <time>2014-09-13T07:25:51Z</time>
      </trkpt>
      <trkpt lat="42.93561" lon="0.26536">
        <ele>1173.084</ele>
        <time>2014-09-13T07:25:57Z</time>
      </trkpt>
      <trkpt lat="42.93596" lon="0.26549">
        <ele>1173.026</ele>
        <time>2014-09-13T07:26:04Z</time>
      </trkpt>
      <trkpt lat="42.93627" lon="0.26566">
        <ele>1174.005</ele>
        <time>2014-09-13T07:26:11Z</time>
      </trkpt>
      <trkpt lat="42.9365" lon="0.26585">
        <ele>1175.137</ele>
        <time>2014-09-13T07:26:17Z</time>
      </trkpt>
      <trkpt lat="42.93671" lon="0.266">
        <ele>1175.977</ele>
        <time>2014-09-13T07:26:23Z</time>
      </trkpt>
      <trkpt lat="42.93694" lon="0.26618">
        <ele>1177.202</ele>
        <time>2014-09-13T07:26:31Z</time>
      </trkpt>
      <trkpt lat="42.93716" lon="0.26631">
        <ele>1178.858</ele>
        <time>2014-09-13T07:26:39Z</time>
      </trkpt>
      <trkpt lat="42.93735" lon="0.26639">
        <ele>1180.276</ele>
        <time>2014-09-13T07:26:46Z</time>
      </trkpt>
      <trkpt lat="42.93756" lon="0.26638">
        <ele>1181.889</ele>
        <time>2014-09-13T07:26:54Z</time>
      </trkpt>
      <trkpt lat="42.93777" lon="0.26631">
        <ele>1183.375</ele>
        <time>2014-09-13T07:27:02Z</time>
      </trkpt>
      <trkpt lat="42.9379" lon="0.26619">
        <ele>1185.161</ele>
        <time>2014-09-13T07:27:08Z</time>
      </trkpt>
      <trkpt lat="42.93803" lon="0.26608">
        <ele>1187.745</ele>
        <time>2014-09-13T07:27:15Z</time>
      </trkpt>
      <trkpt lat="42.93804" lon="0.26607">
        <ele>1188.206</ele>
        <time>2014-09-13T07:27:17Z</time>
      </trkpt>
      <trkpt lat="42.93803" lon="0.26604">
        <ele>1186.55</ele>
        <time>2014-09-13T07:32:10Z</time>
      </trkpt>
      <trkpt lat="42.93803" lon="0.26604">
        <ele>1186.606</ele>
        <time>2014-09-13T07:32:11Z</time>
      </trkpt>
      <trkpt lat="42.93802" lon="0.26598">
        <ele>1186.763</ele>
        <time>2014-09-13T07:32:19Z</time>
      </trkpt>
      <trkpt lat="42.93806" lon="0.26588">
        <ele>1187.512</ele>
        <time>2014-09-13T07:32:24Z</time>
      </trkpt>
      <trkpt lat="42.93807" lon="0.26573">
        <ele>1188.703</ele>
        <time>2014-09-13T07:32:30Z</time>
      </trkpt>
      <trkpt lat="42.93807" lon="0.26558">
        <ele>1190.097</ele>
        <time>2014-09-13T07:32:36Z</time>
      </trkpt>
      <trkpt lat="42.93809" lon="0.26532">
        <ele>1192.105</ele>
        <time>2014-09-13T07:32:45Z</time>
      </trkpt>
      <trkpt lat="42.93809" lon="0.26514">
        <ele>1193.153</ele>
        <time>2014-09-13T07:32:51Z</time>
      </trkpt>
      <trkpt lat="42.93809" lon="0.26501">
        <ele>1194.294</ele>
        <time>2014-09-13T07:32:56Z</time>
      </trkpt>
      <trkpt lat="42.93811" lon="0.26491">
        <ele>1195.36</ele>
        <time>2014-09-13T07:33:00Z</time>
      </trkpt>
      <trkpt lat="42.93814" lon="0.26478">
        <ele>1196.771</ele>
        <time>2014-09-13T07:33:05Z</time>
      </trkpt>
      <trkpt lat="42.93816" lon="0.26471">
        <ele>1197.239</ele>
        <time>2014-09-13T07:33:08Z</time>
      </trkpt>
      <trkpt lat="42.93819" lon="0.26451">
        <ele>1197.919</ele>
        <time>2014-09-13T07:33:15Z</time>
      </trkpt>
      <trkpt lat="42.93819" lon="0.26431">
        <ele>1199.116</ele>
        <time>2014-09-13T07:33:22Z</time>
      </trkpt>
      <trkpt lat="42.93819" lon="0.26412">
        <ele>1200.29</ele>
        <time>2014-09-13T07:33:28Z</time>
      </trkpt>
      <trkpt lat="42.9382" lon="0.26391">
        <ele>1201.694</ele>
        <time>2014-09-13T07:33:35Z</time>
      </trkpt>
      <trkpt lat="42.93821" lon="0.26382">
        <ele>1202.405</ele>
        <time>2014-09-13T07:33:40Z</time>
      </trkpt>
      <trkpt lat="42.93819" lon="0.26372">
        <ele>1203.238</ele>
        <time>2014-09-13T07:33:44Z</time>
      </trkpt>
      <trkpt lat="42.93822" lon="0.26354">
        <ele>1204.901</ele>
        <time>2014-09-13T07:33:51Z</time>
      </trkpt>
      <trkpt lat="42.93819" lon="0.26333">
        <ele>1206.756</ele>
        <time>2014-09-13T07:33:58Z</time>
      </trkpt>
      <trkpt lat="42.93809" lon="0.26311">
        <ele>1208.544</ele>
        <time>2014-09-13T07:34:07Z</time>
      </trkpt>
      <trkpt lat="42.93811" lon="0.2629">
        <ele>1210.169</ele>
        <time>2014-09-13T07:34:15Z</time>
      </trkpt>
      <trkpt lat="42.93821" lon="0.26265">
        <ele>1211.037</ele>
        <time>2014-09-13T07:34:25Z</time>
      </trkpt>
      <trkpt lat="42.93828" lon="0.26247">
        <ele>1212.17</ele>
        <time>2014-09-13T07:34:33Z</time>
      </trkpt>
      <trkpt lat="42.93832" lon="0.2623">
        <ele>1214.516</ele>
        <time>2014-09-13T07:34:41Z</time>
      </trkpt>
      <trkpt lat="42.93841" lon="0.26215">
        <ele>1216.511</ele>
        <time>2014-09-13T07:34:50Z</time>
      </trkpt>
      <trkpt lat="42.93852" lon="0.26199">
        <ele>1218.756</ele>
        <time>2014-09-13T07:34:59Z</time>
      </trkpt>
      <trkpt lat="42.93859" lon="0.26189">
        <ele>1220.406</ele>
        <time>2014-09-13T07:35:05Z</time>
      </trkpt>
      <trkpt lat="42.93868" lon="0.26173">
        <ele>1222.119</ele>
        <time>2014-09-13T07:35:14Z</time>
      </trkpt>
      <trkpt lat="42.93877" lon="0.26154">
        <ele>1223.699</ele>
        <time>2014-09-13T07:35:23Z</time>
      </trkpt>
      <trkpt lat="42.93889" lon="0.26134">
        <ele>1226.133</ele>
        <time>2014-09-13T07:35:33Z</time>
      </trkpt>
      <trkpt lat="42.93892" lon="0.26123">
        <ele>1227.65</ele>
        <time>2014-09-13T07:35:39Z</time>
      </trkpt>
      <trkpt lat="42.93892" lon="0.26112">
        <ele>1227.974</ele>
        <time>2014-09-13T07:35:44Z</time>
      </trkpt>
      <trkpt lat="42.93891" lon="0.26074">
        <ele>1226.993</ele>
        <time>2014-09-13T07:35:52Z</time>
      </trkpt>
      <trkpt lat="42.93891" lon="0.26034">
        <ele>1227.177</ele>
        <time>2014-09-13T07:36:01Z</time>
      </trkpt>
      <trkpt lat="42.93894" lon="0.2601">
        <ele>1227.754</ele>
        <time>2014-09-13T07:36:08Z</time>
      </trkpt>
      <trkpt lat="42.93894" lon="0.25987">
        <ele>1228.896</ele>
        <time>2014-09-13T07:36:16Z</time>
      </trkpt>
      <trkpt lat="42.93889" lon="0.25967">
        <ele>1228.841</ele>
        <time>2014-09-13T07:36:22Z</time>
      </trkpt>
      <trkpt lat="42.9388" lon="0.25938">
        <ele>1228.266</ele>
        <time>2014-09-13T07:36:29Z</time>
      </trkpt>
      <trkpt lat="42.93872" lon="0.25916">
        <ele>1228.068</ele>
        <time>2014-09-13T07:36:34Z</time>
      </trkpt>
      <trkpt lat="42.93863" lon="0.25893">
        <ele>1228.26</ele>
        <time>2014-09-13T07:36:40Z</time>
      </trkpt>
      <trkpt lat="42.93847" lon="0.25865">
        <ele>1228.599</ele>
        <time>2014-09-13T07:36:48Z</time>
      </trkpt>
      <trkpt lat="42.93837" lon="0.25845">
        <ele>1229.204</ele>
        <time>2014-09-13T07:36:55Z</time>
      </trkpt>
      <trkpt lat="42.93833" lon="0.25816">
        <ele>1229.694</ele>
        <time>2014-09-13T07:37:03Z</time>
      </trkpt>
      <trkpt lat="42.93831" lon="0.25781">
        <ele>1230.468</ele>
        <time>2014-09-13T07:37:12Z</time>
      </trkpt>
      <trkpt lat="42.93825" lon="0.25753">
        <ele>1231.016</ele>
        <time>2014-09-13T07:37:19Z</time>
      </trkpt>
      <trkpt lat="42.93808" lon="0.25724">
        <ele>1231.841</ele>
        <time>2014-09-13T07:37:29Z</time>
      </trkpt>
      <trkpt lat="42.93795" lon="0.25697">
        <ele>1233.105</ele>
        <time>2014-09-13T07:37:37Z</time>
      </trkpt>
      <trkpt lat="42.93779" lon="0.25669">
        <ele>1234.125</ele>
        <time>2014-09-13T07:37:46Z</time>
      </trkpt>
      <trkpt lat="42.93771" lon="0.25643">
        <ele>1234.723</ele>
        <time>2014-09-13T07:37:53Z</time>
      </trkpt>
      <trkpt lat="42.9376" lon="0.25609">
        <ele>1235.823</ele>
        <time>2014-09-13T07:38:02Z</time>
      </trkpt>
      <trkpt lat="42.93754" lon="0.25584">
        <ele>1236.515</ele>
        <time>2014-09-13T07:38:08Z</time>
      </trkpt>
      <trkpt lat="42.93745" lon="0.25564">
        <ele>1237.238</ele>
        <time>2014-09-13T07:38:14Z</time>
      </trkpt>
      <trkpt lat="42.93727" lon="0.25544">
        <ele>1238.555</ele>
        <time>2014-09-13T07:38:22Z</time>
      </trkpt>
      <trkpt lat="42.9371" lon="0.2552">
        <ele>1240.31</ele>
        <time>2014-09-13T07:38:31Z</time>
      </trkpt>
      <trkpt lat="42.93694" lon="0.25504">
        <ele>1241.745</ele>
        <time>2014-09-13T07:38:39Z</time>
      </trkpt>
      <trkpt lat="42.93674" lon="0.25485">
        <ele>1243.628</ele>
        <time>2014-09-13T07:38:49Z</time>
      </trkpt>
      <trkpt lat="42.93658" lon="0.25475">
        <ele>1245.451</ele>
        <time>2014-09-13T07:38:57Z</time>
      </trkpt>
      <trkpt lat="42.93636" lon="0.25472">
        <ele>1248.068</ele>
        <time>2014-09-13T07:39:07Z</time>
      </trkpt>
      <trkpt lat="42.93616" lon="0.25465">
        <ele>1250.035</ele>
        <time>2014-09-13T07:39:16Z</time>
      </trkpt>
      <trkpt lat="42.93596" lon="0.25455">
        <ele>1251.803</ele>
        <time>2014-09-13T07:39:25Z</time>
      </trkpt>
      <trkpt lat="42.9358" lon="0.25449">
        <ele>1253.43</ele>
        <time>2014-09-13T07:39:32Z</time>
      </trkpt>
      <trkpt lat="42.93567" lon="0.25441">
        <ele>1253.788</ele>
        <time>2014-09-13T07:39:37Z</time>
      </trkpt>
      <trkpt lat="42.9355" lon="0.25435">
        <ele>1253.855</ele>
        <time>2014-09-13T07:39:43Z</time>
      </trkpt>
      <trkpt lat="42.93533" lon="0.2543">
        <ele>1254.093</ele>
        <time>2014-09-13T07:39:49Z</time>
      </trkpt>
      <trkpt lat="42.93511" lon="0.25426">
        <ele>1254.996</ele>
        <time>2014-09-13T07:39:57Z</time>
      </trkpt>
      <trkpt lat="42.93493" lon="0.2542">
        <ele>1255.375</ele>
        <time>2014-09-13T07:40:03Z</time>
      </trkpt>
      <trkpt lat="42.93468" lon="0.25424">
        <ele>1255.671</ele>
        <time>2014-09-13T07:40:11Z</time>
      </trkpt>
      <trkpt lat="42.9345" lon="0.25423">
        <ele>1256.191</ele>
        <time>2014-09-13T07:40:17Z</time>
      </trkpt>
      <trkpt lat="42.93431" lon="0.2541">
        <ele>1257.209</ele>
        <time>2014-09-13T07:40:24Z</time>
      </trkpt>
      <trkpt lat="42.93416" lon="0.25404">
        <ele>1257.622</ele>
        <time>2014-09-13T07:40:29Z</time>
      </trkpt>
      <trkpt lat="42.93398" lon="0.25408">
        <ele>1258.551</ele>
        <time>2014-09-13T07:40:35Z</time>
      </trkpt>
      <trkpt lat="42.93379" lon="0.25412">
        <ele>1259.065</ele>
        <time>2014-09-13T07:40:41Z</time>
      </trkpt>
      <trkpt lat="42.9336" lon="0.25421">
        <ele>1259.451</ele>
        <time>2014-09-13T07:40:47Z</time>
      </trkpt>
      <trkpt lat="42.93337" lon="0.25425">
        <ele>1260.49</ele>
        <time>2014-09-13T07:40:55Z</time>
      </trkpt>
      <trkpt lat="42.93324" lon="0.25413">
        <ele>1261.097</ele>
        <time>2014-09-13T07:41:00Z</time>
      </trkpt>
      <trkpt lat="42.93313" lon="0.25392">
        <ele>1261.022</ele>
        <time>2014-09-13T07:41:05Z</time>
      </trkpt>
      <trkpt lat="42.933" lon="0.25372">
        <ele>1261.26</ele>
        <time>2014-09-13T07:41:11Z</time>
      </trkpt>
      <trkpt lat="42.93279" lon="0.25363">
        <ele>1261.746</ele>
        <time>2014-09-13T07:41:18Z</time>
      </trkpt>
      <trkpt lat="42.93259" lon="0.25351">
        <ele>1263.815</ele>
        <time>2014-09-13T07:41:26Z</time>
      </trkpt>
      <trkpt lat="42.9324" lon="0.25341">
        <ele>1265.177</ele>
        <time>2014-09-13T07:41:33Z</time>
      </trkpt>
      <trkpt lat="42.93224" lon="0.25332">
        <ele>1265.979</ele>
        <time>2014-09-13T07:41:39Z</time>
      </trkpt>
      <trkpt lat="42.93206" lon="0.2533">
        <ele>1266.903</ele>
        <time>2014-09-13T07:41:46Z</time>
      </trkpt>
      <trkpt lat="42.93185" lon="0.25321">
        <ele>1268.775</ele>
        <time>2014-09-13T07:41:55Z</time>
      </trkpt>
      <trkpt lat="42.9317" lon="0.2531">
        <ele>1269.881</ele>
        <time>2014-09-13T07:42:01Z</time>
      </trkpt>
      <trkpt lat="42.9315" lon="0.25289">
        <ele>1271.229</ele>
        <time>2014-09-13T07:42:11Z</time>
      </trkpt>
      <trkpt lat="42.93136" lon="0.25277">
        <ele>1272.65</ele>
        <time>2014-09-13T07:42:18Z</time>
      </trkpt>
      <trkpt lat="42.93121" lon="0.25266">
        <ele>1274.463</ele>
        <time>2014-09-13T07:42:26Z</time>
      </trkpt>
      <trkpt lat="42.93108" lon="0.25256">
        <ele>1276.106</ele>
        <time>2014-09-13T07:42:33Z</time>
      </trkpt>
      <trkpt lat="42.93095" lon="0.25243">
        <ele>1277.707</ele>
        <time>2014-09-13T07:42:40Z</time>
      </trkpt>
      <trkpt lat="42.93082" lon="0.25221">
        <ele>1278.826</ele>
        <time>2014-09-13T07:42:49Z</time>
      </trkpt>
      <trkpt lat="42.93072" lon="0.25206">
        <ele>1280.425</ele>
        <time>2014-09-13T07:42:57Z</time>
      </trkpt>
      <trkpt lat="42.93071" lon="0.25204">
        <ele>1280.701</ele>
        <time>2014-09-13T07:42:58Z</time>
      </trkpt>
      <trkpt lat="42.93069" lon="0.25183">
        <ele>1283.263</ele>
        <time>2014-09-13T07:43:06Z</time>
      </trkpt>
      <trkpt lat="42.93067" lon="0.25155">
        <ele>1284.807</ele>
        <time>2014-09-13T07:43:15Z</time>
      </trkpt>
      <trkpt lat="42.93062" lon="0.25137">
        <ele>1284.914</ele>
        <time>2014-09-13T07:43:21Z</time>
      </trkpt>
      <trkpt lat="42.93053" lon="0.25118">
        <ele>1285.099</ele>
        <time>2014-09-13T07:43:28Z</time>
      </trkpt>
      <trkpt lat="42.93046" lon="0.25094">
        <ele>1285.34</ele>
        <time>2014-09-13T07:43:36Z</time>
      </trkpt>
      <trkpt lat="42.93042" lon="0.25079">
        <ele>1285.333</ele>
        <time>2014-09-13T07:43:42Z</time>
      </trkpt>
      <trkpt lat="42.93039" lon="0.25061">
        <ele>1285.097</ele>
        <time>2014-09-13T07:43:48Z</time>
      </trkpt>
      <trkpt lat="42.93043" lon="0.25053">
        <ele>1284.778</ele>
        <time>2014-09-13T07:43:50Z</time>
      </trkpt>
      <trkpt lat="42.93059" lon="0.25031">
        <ele>1282.116</ele>
        <time>2014-09-13T07:43:55Z</time>
      </trkpt>
      <trkpt lat="42.93061" lon="0.25023">
        <ele>1280.96</ele>
        <time>2014-09-13T07:43:57Z</time>
      </trkpt>
      <trkpt lat="42.93064" lon="0.25005">
        <ele>1282.54</ele>
        <time>2014-09-13T07:44:05Z</time>
      </trkpt>
      <trkpt lat="42.93072" lon="0.24998">
        <ele>1284.424</ele>
        <time>2014-09-13T07:44:10Z</time>
      </trkpt>
      <trkpt lat="42.93079" lon="0.2499">
        <ele>1285.421</ele>
        <time>2014-09-13T07:44:15Z</time>
      </trkpt>
      <trkpt lat="42.93089" lon="0.24987">
        <ele>1286.529</ele>
        <time>2014-09-13T07:44:21Z</time>
      </trkpt>
      <trkpt lat="42.93102" lon="0.24987">
        <ele>1286.968</ele>
        <time>2014-09-13T07:44:28Z</time>
      </trkpt>
      <trkpt lat="42.93112" lon="0.24983">
        <ele>1287.384</ele>
        <time>2014-09-13T07:44:34Z</time>
      </trkpt>
      <trkpt lat="42.93123" lon="0.24977">
        <ele>1288.901</ele>
        <time>2014-09-13T07:44:42Z</time>
      </trkpt>
      <trkpt lat="42.93135" lon="0.24975">
        <ele>1290.916</ele>
        <time>2014-09-13T07:44:50Z</time>
      </trkpt>
      <trkpt lat="42.93147" lon="0.24973">
        <ele>1292.675</ele>
        <time>2014-09-13T07:44:58Z</time>
      </trkpt>
      <trkpt lat="42.93155" lon="0.2497">
        <ele>1293.559</ele>
        <time>2014-09-13T07:45:04Z</time>
      </trkpt>
      <trkpt lat="42.93167" lon="0.24964">
        <ele>1295.533</ele>
        <time>2014-09-13T07:45:12Z</time>
      </trkpt>
      <trkpt lat="42.93178" lon="0.24959">
        <ele>1297.545</ele>
        <time>2014-09-13T07:45:20Z</time>
      </trkpt>
      <trkpt lat="42.93185" lon="0.2495">
        <ele>1299.057</ele>
        <time>2014-09-13T07:45:27Z</time>
      </trkpt>
      <trkpt lat="42.93183" lon="0.24936">
        <ele>1300.802</ele>
        <time>2014-09-13T07:45:34Z</time>
      </trkpt>
      <trkpt lat="42.93177" lon="0.24918">
        <ele>1303.405</ele>
        <time>2014-09-13T07:45:44Z</time>
      </trkpt>
      <trkpt lat="42.93172" lon="0.24905">
        <ele>1305.129</ele>
        <time>2014-09-13T07:45:52Z</time>
      </trkpt>
      <trkpt lat="42.93166" lon="0.24889">
        <ele>1307.265</ele>
        <time>2014-09-13T07:46:01Z</time>
      </trkpt>
      <trkpt lat="42.9316" lon="0.24877">
        <ele>1309.133</ele>
        <time>2014-09-13T07:46:08Z</time>
      </trkpt>
      <trkpt lat="42.93156" lon="0.24862">
        <ele>1310.97</ele>
        <time>2014-09-13T07:46:16Z</time>
      </trkpt>
      <trkpt lat="42.93151" lon="0.2485">
        <ele>1312.313</ele>
        <time>2014-09-13T07:46:23Z</time>
      </trkpt>
      <trkpt lat="42.93147" lon="0.2484">
        <ele>1313.678</ele>
        <time>2014-09-13T07:46:29Z</time>
      </trkpt>
      <trkpt lat="42.93145" lon="0.24826">
        <ele>1315.462</ele>
        <time>2014-09-13T07:46:36Z</time>
      </trkpt>
      <trkpt lat="42.93144" lon="0.2482">
        <ele>1316.088</ele>
        <time>2014-09-13T07:46:39Z</time>
      </trkpt>
      <trkpt lat="42.9314" lon="0.24813">
        <ele>1316.429</ele>
        <time>2014-09-13T07:46:43Z</time>
      </trkpt>
      <trkpt lat="42.93131" lon="0.248">
        <ele>1317.366</ele>
        <time>2014-09-13T07:46:51Z</time>
      </trkpt>
      <trkpt lat="42.93128" lon="0.24798">
        <ele>1317.708</ele>
        <time>2014-09-13T07:46:53Z</time>
      </trkpt>
      <trkpt lat="42.93121" lon="0.24782">
        <ele>1319.756</ele>
        <time>2014-09-13T07:47:02Z</time>
      </trkpt>
      <trkpt lat="42.93116" lon="0.24767">
        <ele>1321.493</ele>
        <time>2014-09-13T07:47:10Z</time>
      </trkpt>
      <trkpt lat="42.93113" lon="0.24752">
        <ele>1323.243</ele>
        <time>2014-09-13T07:47:18Z</time>
      </trkpt>
      <trkpt lat="42.93111" lon="0.24738">
        <ele>1325.053</ele>
        <time>2014-09-13T07:47:25Z</time>
      </trkpt>
      <trkpt lat="42.93108" lon="0.24727">
        <ele>1326.359</ele>
        <time>2014-09-13T07:47:31Z</time>
      </trkpt>
      <trkpt lat="42.93103" lon="0.24713">
        <ele>1327.948</ele>
        <time>2014-09-13T07:47:39Z</time>
      </trkpt>
      <trkpt lat="42.93098" lon="0.24699">
        <ele>1329.568</ele>
        <time>2014-09-13T07:47:47Z</time>
      </trkpt>
      <trkpt lat="42.93095" lon="0.24685">
        <ele>1330.855</ele>
        <time>2014-09-13T07:47:54Z</time>
      </trkpt>
      <trkpt lat="42.93095" lon="0.24675">
        <ele>1331.623</ele>
        <time>2014-09-13T07:47:59Z</time>
      </trkpt>
      <trkpt lat="42.9309" lon="0.24665">
        <ele>1332.992</ele>
        <time>2014-09-13T07:48:06Z</time>
      </trkpt>
      <trkpt lat="42.93093" lon="0.24662">
        <ele>1334.186</ele>
        <time>2014-09-13T07:48:11Z</time>
      </trkpt>
      <trkpt lat="42.93093" lon="0.24662">
        <ele>1334.509</ele>
        <time>2014-09-13T07:48:12Z</time>
      </trkpt>
      <trkpt lat="42.9309" lon="0.24659">
        <ele>1334.322</ele>
        <time>2014-09-13T07:48:21Z</time>
      </trkpt>
      <trkpt lat="42.9309" lon="0.24657">
        <ele>1334.553</ele>
        <time>2014-09-13T07:48:24Z</time>
      </trkpt>
      <trkpt lat="42.93089" lon="0.24641">
        <ele>1336.404</ele>
        <time>2014-09-13T07:48:39Z</time>
      </trkpt>
      <trkpt lat="42.9309" lon="0.24638">
        <ele>1337.767</ele>
        <time>2014-09-13T07:48:45Z</time>
      </trkpt>
      <trkpt lat="42.93094" lon="0.24637">
        <ele>1338.889</ele>
        <time>2014-09-13T07:51:51Z</time>
      </trkpt>
      <trkpt lat="42.93094" lon="0.24638">
        <ele>1338.816</ele>
        <time>2014-09-13T07:51:52Z</time>
      </trkpt>
      <trkpt lat="42.93102" lon="0.24646">
        <ele>1339.302</ele>
        <time>2014-09-13T07:52:50Z</time>
      </trkpt>
      <trkpt lat="42.93115" lon="0.24663">
        <ele>1339.581</ele>
        <time>2014-09-13T07:52:58Z</time>
      </trkpt>
      <trkpt lat="42.93127" lon="0.24677">
        <ele>1339.387</ele>
        <time>2014-09-13T07:53:05Z</time>
      </trkpt>
      <trkpt lat="42.93143" lon="0.24696">
        <ele>1338.642</ele>
        <time>2014-09-13T07:53:12Z</time>
      </trkpt>
      <trkpt lat="42.93161" lon="0.2471">
        <ele>1338.584</ele>
        <time>2014-09-13T07:53:20Z</time>
      </trkpt>
      <trkpt lat="42.93179" lon="0.24726">
        <ele>1339.232</ele>
        <time>2014-09-13T07:53:29Z</time>
      </trkpt>
      <trkpt lat="42.93193" lon="0.24749">
        <ele>1338.583</ele>
        <time>2014-09-13T07:53:35Z</time>
      </trkpt>
      <trkpt lat="42.93209" lon="0.24768">
        <ele>1337.347</ele>
        <time>2014-09-13T07:53:41Z</time>
      </trkpt>
      <trkpt lat="42.93228" lon="0.24788">
        <ele>1336.968</ele>
        <time>2014-09-13T07:53:50Z</time>
      </trkpt>
      <trkpt lat="42.93235" lon="0.24796">
        <ele>1337.314</ele>
        <time>2014-09-13T07:53:56Z</time>
      </trkpt>
      <trkpt lat="42.93246" lon="0.24805">
        <ele>1337.587</ele>
        <time>2014-09-13T07:54:03Z</time>
      </trkpt>
      <trkpt lat="42.93259" lon="0.24816">
        <ele>1338.489</ele>
        <time>2014-09-13T07:54:11Z</time>
      </trkpt>
      <trkpt lat="42.93275" lon="0.24832">
        <ele>1339.136</ele>
        <time>2014-09-13T07:54:19Z</time>
      </trkpt>
      <trkpt lat="42.93296" lon="0.24854">
        <ele>1339.298</ele>
        <time>2014-09-13T07:54:28Z</time>
      </trkpt>
      <trkpt lat="42.93315" lon="0.24876">
        <ele>1338.726</ele>
        <time>2014-09-13T07:54:35Z</time>
      </trkpt>
      <trkpt lat="42.93333" lon="0.24892">
        <ele>1338.834</ele>
        <time>2014-09-13T07:54:42Z</time>
      </trkpt>
      <trkpt lat="42.93346" lon="0.24903">
        <ele>1339.371</ele>
        <time>2014-09-13T07:54:47Z</time>
      </trkpt>
      <trkpt lat="42.93367" lon="0.24919">
        <ele>1339.244</ele>
        <time>2014-09-13T07:54:54Z</time>
      </trkpt>
      <trkpt lat="42.93385" lon="0.24925">
        <ele>1339.564</ele>
        <time>2014-09-13T07:55:00Z</time>
      </trkpt>
      <trkpt lat="42.93411" lon="0.24934">
        <ele>1340.422</ele>
        <time>2014-09-13T07:55:09Z</time>
      </trkpt>
      <trkpt lat="42.93433" lon="0.24939">
        <ele>1341.894</ele>
        <time>2014-09-13T07:55:17Z</time>
      </trkpt>
      <trkpt lat="42.93451" lon="0.24946">
        <ele>1343.393</ele>
        <time>2014-09-13T07:55:24Z</time>
      </trkpt>
      <trkpt lat="42.93466" lon="0.24946">
        <ele>1344.341</ele>
        <time>2014-09-13T07:55:29Z</time>
      </trkpt>
      <trkpt lat="42.93487" lon="0.24948">
        <ele>1345.337</ele>
        <time>2014-09-13T07:55:37Z</time>
      </trkpt>
      <trkpt lat="42.93506" lon="0.24948">
        <ele>1346.547</ele>
        <time>2014-09-13T07:55:44Z</time>
      </trkpt>
      <trkpt lat="42.93523" lon="0.24944">
        <ele>1346.757</ele>
        <time>2014-09-13T07:55:49Z</time>
      </trkpt>
      <trkpt lat="42.93535" lon="0.24946">
        <ele>1346.681</ele>
        <time>2014-09-13T07:55:53Z</time>
      </trkpt>
      <trkpt lat="42.93556" lon="0.24948">
        <ele>1346.434</ele>
        <time>2014-09-13T07:55:59Z</time>
      </trkpt>
      <trkpt lat="42.93587" lon="0.24954">
        <ele>1346.212</ele>
        <time>2014-09-13T07:56:07Z</time>
      </trkpt>
      <trkpt lat="42.93616" lon="0.24958">
        <ele>1345.455</ele>
        <time>2014-09-13T07:56:14Z</time>
      </trkpt>
      <trkpt lat="42.93646" lon="0.24966">
        <ele>1344.462</ele>
        <time>2014-09-13T07:56:20Z</time>
      </trkpt>
      <trkpt lat="42.93678" lon="0.24971">
        <ele>1343.623</ele>
        <time>2014-09-13T07:56:26Z</time>
      </trkpt>
      <trkpt lat="42.93715" lon="0.24982">
        <ele>1342.811</ele>
        <time>2014-09-13T07:56:34Z</time>
      </trkpt>
      <trkpt lat="42.93734" lon="0.24987">
        <ele>1342.433</ele>
        <time>2014-09-13T07:56:38Z</time>
      </trkpt>
      <trkpt lat="42.93744" lon="0.24989">
        <ele>1342.167</ele>
        <time>2014-09-13T07:56:40Z</time>
      </trkpt>
      <trkpt lat="42.93784" lon="0.25014">
        <ele>1340.664</ele>
        <time>2014-09-13T07:56:49Z</time>
      </trkpt>
      <trkpt lat="42.93794" lon="0.25007">
        <ele>1339.528</ele>
        <time>2014-09-13T07:56:53Z</time>
      </trkpt>
      <trkpt lat="42.93792" lon="0.24995">
        <ele>1338.579</ele>
        <time>2014-09-13T07:56:56Z</time>
      </trkpt>
      <trkpt lat="42.93779" lon="0.24966">
        <ele>1336.89</ele>
        <time>2014-09-13T07:57:02Z</time>
      </trkpt>
      <trkpt lat="42.93758" lon="0.24928">
        <ele>1334.667</ele>
        <time>2014-09-13T07:57:08Z</time>
      </trkpt>
      <trkpt lat="42.93746" lon="0.24904">
        <ele>1333.715</ele>
        <time>2014-09-13T07:57:11Z</time>
      </trkpt>
      <trkpt lat="42.93738" lon="0.24887">
        <ele>1332.468</ele>
        <time>2014-09-13T07:57:13Z</time>
      </trkpt>
      <trkpt lat="42.93732" lon="0.2487">
        <ele>1331.241</ele>
        <time>2014-09-13T07:57:15Z</time>
      </trkpt>
      <trkpt lat="42.93728" lon="0.2484">
        <ele>1328.706</ele>
        <time>2014-09-13T07:57:20Z</time>
      </trkpt>
      <trkpt lat="42.9373" lon="0.24836">
        <ele>1328.347</ele>
        <time>2014-09-13T07:57:21Z</time>
      </trkpt>
      <trkpt lat="42.93736" lon="0.24823">
        <ele>1327.978</ele>
        <time>2014-09-13T07:57:24Z</time>
      </trkpt>
      <trkpt lat="42.93735" lon="0.24793">
        <ele>1326.396</ele>
        <time>2014-09-13T07:57:30Z</time>
      </trkpt>
      <trkpt lat="42.93733" lon="0.24787">
        <ele>1326.007</ele>
        <time>2014-09-13T07:57:31Z</time>
      </trkpt>
      <trkpt lat="42.93715" lon="0.24737">
        <ele>1323.86</ele>
        <time>2014-09-13T07:57:39Z</time>
      </trkpt>
      <trkpt lat="42.93718" lon="0.24714">
        <ele>1322.987</ele>
        <time>2014-09-13T07:57:42Z</time>
      </trkpt>
      <trkpt lat="42.93721" lon="0.24682">
        <ele>1321.643</ele>
        <time>2014-09-13T07:57:46Z</time>
      </trkpt>
      <trkpt lat="42.93715" lon="0.2464">
        <ele>1319.669</ele>
        <time>2014-09-13T07:57:51Z</time>
      </trkpt>
      <trkpt lat="42.93704" lon="0.24613">
        <ele>1318.482</ele>
        <time>2014-09-13T07:57:55Z</time>
      </trkpt>
      <trkpt lat="42.93687" lon="0.24588">
        <ele>1316.887</ele>
        <time>2014-09-13T07:57:59Z</time>
      </trkpt>
      <trkpt lat="42.93687" lon="0.24572">
        <ele>1315.577</ele>
        <time>2014-09-13T07:58:03Z</time>
      </trkpt>
      <trkpt lat="42.93698" lon="0.24572">
        <ele>1314.328</ele>
        <time>2014-09-13T07:58:07Z</time>
      </trkpt>
      <trkpt lat="42.93707" lon="0.2457">
        <ele>1313.948</ele>
        <time>2014-09-13T07:58:13Z</time>
      </trkpt>
      <trkpt lat="42.93711" lon="0.24569">
        <ele>1314.186</ele>
        <time>2014-09-13T07:58:15Z</time>
      </trkpt>
      <trkpt lat="42.93727" lon="0.24574">
        <ele>1314.729</ele>
        <time>2014-09-13T07:58:21Z</time>
      </trkpt>
      <trkpt lat="42.9375" lon="0.24586">
        <ele>1314.244</ele>
        <time>2014-09-13T07:58:26Z</time>
      </trkpt>
      <trkpt lat="42.93775" lon="0.24591">
        <ele>1312.71</ele>
        <time>2014-09-13T07:58:31Z</time>
      </trkpt>
      <trkpt lat="42.93799" lon="0.24599">
        <ele>1310.739</ele>
        <time>2014-09-13T07:58:36Z</time>
      </trkpt>
      <trkpt lat="42.93821" lon="0.24604">
        <ele>1309.193</ele>
        <time>2014-09-13T07:58:40Z</time>
      </trkpt>
      <trkpt lat="42.93855" lon="0.24602">
        <ele>1307.246</ele>
        <time>2014-09-13T07:58:47Z</time>
      </trkpt>
      <trkpt lat="42.9386" lon="0.246">
        <ele>1307.071</ele>
        <time>2014-09-13T07:58:48Z</time>
      </trkpt>
      <trkpt lat="42.93877" lon="0.24593">
        <ele>1306.434</ele>
        <time>2014-09-13T07:58:52Z</time>
      </trkpt>
      <trkpt lat="42.93907" lon="0.24596">
        <ele>1305.464</ele>
        <time>2014-09-13T07:58:58Z</time>
      </trkpt>
      <trkpt lat="42.93938" lon="0.24593">
        <ele>1303.946</ele>
        <time>2014-09-13T07:59:03Z</time>
      </trkpt>
      <trkpt lat="42.93967" lon="0.24584">
        <ele>1302.645</ele>
        <time>2014-09-13T07:59:08Z</time>
      </trkpt>
      <trkpt lat="42.93976" lon="0.24581">
        <ele>1302.423</ele>
        <time>2014-09-13T07:59:10Z</time>
      </trkpt>
      <trkpt lat="42.94011" lon="0.24562">
        <ele>1301.817</ele>
        <time>2014-09-13T07:59:19Z</time>
      </trkpt>
      <trkpt lat="42.94034" lon="0.24549">
        <ele>1301.498</ele>
        <time>2014-09-13T07:59:26Z</time>
      </trkpt>
      <trkpt lat="42.94044" lon="0.24541">
        <ele>1301.465</ele>
        <time>2014-09-13T07:59:33Z</time>
      </trkpt>
      <trkpt lat="42.94046" lon="0.24539">
        <ele>1300.698</ele>
        <time>2014-09-13T08:00:20Z</time>
      </trkpt>
      <trkpt lat="42.94048" lon="0.24536">
        <ele>1300.724</ele>
        <time>2014-09-13T08:00:21Z</time>
      </trkpt>
      <trkpt lat="42.94066" lon="0.24519">
        <ele>1300.459</ele>
        <time>2014-09-13T08:00:26Z</time>
      </trkpt>
      <trkpt lat="42.94082" lon="0.24518">
        <ele>1300.363</ele>
        <time>2014-09-13T08:00:30Z</time>
      </trkpt>
      <trkpt lat="42.94086" lon="0.24522">
        <ele>1300.283</ele>
        <time>2014-09-13T08:00:31Z</time>
      </trkpt>
      <trkpt lat="42.94107" lon="0.24539">
        <ele>1299.27</ele>
        <time>2014-09-13T08:00:37Z</time>
      </trkpt>
      <trkpt lat="42.94117" lon="0.24541">
        <ele>1298.186</ele>
        <time>2014-09-13T08:00:43Z</time>
      </trkpt>
      <trkpt lat="42.94121" lon="0.24544">
        <ele>1297.608</ele>
        <time>2014-09-13T08:00:47Z</time>
      </trkpt>
      <trkpt lat="42.94132" lon="0.24546">
        <ele>1296.982</ele>
        <time>2014-09-13T08:01:30Z</time>
      </trkpt>
      <trkpt lat="42.94153" lon="0.24545">
        <ele>1295.543</ele>
        <time>2014-09-13T08:01:34Z</time>
      </trkpt>
      <trkpt lat="42.94185" lon="0.24533">
        <ele>1292.565</ele>
        <time>2014-09-13T08:01:40Z</time>
      </trkpt>
      <trkpt lat="42.94218" lon="0.24505">
        <ele>1289.666</ele>
        <time>2014-09-13T08:01:46Z</time>
      </trkpt>
      <trkpt lat="42.94247" lon="0.24471">
        <ele>1287.676</ele>
        <time>2014-09-13T08:01:51Z</time>
      </trkpt>
      <trkpt lat="42.94265" lon="0.24448">
        <ele>1286.074</ele>
        <time>2014-09-13T08:01:54Z</time>
      </trkpt>
      <trkpt lat="42.9427" lon="0.2444">
        <ele>1285.54</ele>
        <time>2014-09-13T08:01:55Z</time>
      </trkpt>
      <trkpt lat="42.94308" lon="0.24366">
        <ele>1281.718</ele>
        <time>2014-09-13T08:02:03Z</time>
      </trkpt>
      <trkpt lat="42.94323" lon="0.2431">
        <ele>1279.046</ele>
        <time>2014-09-13T08:02:08Z</time>
      </trkpt>
      <trkpt lat="42.94327" lon="0.24287">
        <ele>1277.518</ele>
        <time>2014-09-13T08:02:10Z</time>
      </trkpt>
      <trkpt lat="42.94327" lon="0.24265">
        <ele>1276.861</ele>
        <time>2014-09-13T08:02:12Z</time>
      </trkpt>
      <trkpt lat="42.94327" lon="0.24256">
        <ele>1275.398</ele>
        <time>2014-09-13T08:02:13Z</time>
      </trkpt>
      <trkpt lat="42.94315" lon="0.24196">
        <ele>1271.27</ele>
        <time>2014-09-13T08:02:20Z</time>
      </trkpt>
      <trkpt lat="42.94298" lon="0.24148">
        <ele>1267.777</ele>
        <time>2014-09-13T08:02:25Z</time>
      </trkpt>
      <trkpt lat="42.94298" lon="0.24122">
        <ele>1265.548</ele>
        <time>2014-09-13T08:02:28Z</time>
      </trkpt>
      <trkpt lat="42.94302" lon="0.24116">
        <ele>1264.821</ele>
        <time>2014-09-13T08:02:29Z</time>
      </trkpt>
      <trkpt lat="42.94312" lon="0.24104">
        <ele>1263.617</ele>
        <time>2014-09-13T08:02:31Z</time>
      </trkpt>
      <trkpt lat="42.94327" lon="0.2407">
        <ele>1261.52</ele>
        <time>2014-09-13T08:02:35Z</time>
      </trkpt>
      <trkpt lat="42.94341" lon="0.24043">
        <ele>1258.392</ele>
        <time>2014-09-13T08:02:39Z</time>
      </trkpt>
      <trkpt lat="42.94346" lon="0.24043">
        <ele>1258.391</ele>
        <time>2014-09-13T08:02:40Z</time>
      </trkpt>
      <trkpt lat="42.94363" lon="0.24049">
        <ele>1255.255</ele>
        <time>2014-09-13T08:02:44Z</time>
      </trkpt>
      <trkpt lat="42.94399" lon="0.24056">
        <ele>1252.393</ele>
        <time>2014-09-13T08:02:50Z</time>
      </trkpt>
      <trkpt lat="42.94425" lon="0.24044">
        <ele>1250.789</ele>
        <time>2014-09-13T08:02:54Z</time>
      </trkpt>
      <trkpt lat="42.94431" lon="0.24037">
        <ele>1250.395</ele>
        <time>2014-09-13T08:02:55Z</time>
      </trkpt>
      <trkpt lat="42.94454" lon="0.24001">
        <ele>1248.492</ele>
        <time>2014-09-13T08:03:00Z</time>
      </trkpt>
      <trkpt lat="42.9448" lon="0.23943">
        <ele>1246.436</ele>
        <time>2014-09-13T08:03:07Z</time>
      </trkpt>
      <trkpt lat="42.94489" lon="0.23928">
        <ele>1245.22</ele>
        <time>2014-09-13T08:03:10Z</time>
      </trkpt>
      <trkpt lat="42.94507" lon="0.23898">
        <ele>1242.874</ele>
        <time>2014-09-13T08:03:17Z</time>
      </trkpt>
      <trkpt lat="42.94518" lon="0.2388">
        <ele>1242.027</ele>
        <time>2014-09-13T08:03:21Z</time>
      </trkpt>
      <trkpt lat="42.94539" lon="0.23864">
        <ele>1241.382</ele>
        <time>2014-09-13T08:03:26Z</time>
      </trkpt>
      <trkpt lat="42.94558" lon="0.23857">
        <ele>1240.92</ele>
        <time>2014-09-13T08:03:30Z</time>
      </trkpt>
      <trkpt lat="42.9458" lon="0.23859">
        <ele>1239.646</ele>
        <time>2014-09-13T08:03:35Z</time>
      </trkpt>
      <trkpt lat="42.94611" lon="0.23882">
        <ele>1237.102</ele>
        <time>2014-09-13T08:03:40Z</time>
      </trkpt>
      <trkpt lat="42.94637" lon="0.23909">
        <ele>1234.112</ele>
        <time>2014-09-13T08:03:44Z</time>
      </trkpt>
      <trkpt lat="42.94647" lon="0.23919">
        <ele>1232.46</ele>
        <time>2014-09-13T08:03:46Z</time>
      </trkpt>
      <trkpt lat="42.94656" lon="0.23944">
        <ele>1229.771</ele>
        <time>2014-09-13T08:03:50Z</time>
      </trkpt>
      <trkpt lat="42.94658" lon="0.2395">
        <ele>1229.399</ele>
        <time>2014-09-13T08:03:51Z</time>
      </trkpt>
      <trkpt lat="42.94659" lon="0.23962">
        <ele>1228.776</ele>
        <time>2014-09-13T08:03:53Z</time>
      </trkpt>
      <trkpt lat="42.94661" lon="0.23985">
        <ele>1228.525</ele>
        <time>2014-09-13T08:03:57Z</time>
      </trkpt>
      <trkpt lat="42.94656" lon="0.24004">
        <ele>1228.021</ele>
        <time>2014-09-13T08:04:01Z</time>
      </trkpt>
      <trkpt lat="42.94641" lon="0.24008">
        <ele>1227.362</ele>
        <time>2014-09-13T08:04:05Z</time>
      </trkpt>
      <trkpt lat="42.94616" lon="0.24004">
        <ele>1225.797</ele>
        <time>2014-09-13T08:04:12Z</time>
      </trkpt>
      <trkpt lat="42.94605" lon="0.24017">
        <ele>1224.862</ele>
        <time>2014-09-13T08:04:16Z</time>
      </trkpt>
      <trkpt lat="42.94589" lon="0.24048">
        <ele>1223.924</ele>
        <time>2014-09-13T08:04:22Z</time>
      </trkpt>
      <trkpt lat="42.94575" lon="0.24087">
        <ele>1223.097</ele>
        <time>2014-09-13T08:04:27Z</time>
      </trkpt>
      <trkpt lat="42.94565" lon="0.24122">
        <ele>1222.063</ele>
        <time>2014-09-13T08:04:31Z</time>
      </trkpt>
      <trkpt lat="42.94563" lon="0.24131">
        <ele>1221.744</ele>
        <time>2014-09-13T08:04:32Z</time>
      </trkpt>
      <trkpt lat="42.94545" lon="0.24158">
        <ele>1219.941</ele>
        <time>2014-09-13T08:04:36Z</time>
      </trkpt>
      <trkpt lat="42.94523" lon="0.24162">
        <ele>1218.521</ele>
        <time>2014-09-13T08:04:39Z</time>
      </trkpt>
      <trkpt lat="42.94513" lon="0.24181">
        <ele>1217.81</ele>
        <time>2014-09-13T08:04:41Z</time>
      </trkpt>
      <trkpt lat="42.94516" lon="0.24212">
        <ele>1216.879</ele>
        <time>2014-09-13T08:04:44Z</time>
      </trkpt>
      <trkpt lat="42.94519" lon="0.24221">
        <ele>1216.661</ele>
        <time>2014-09-13T08:04:45Z</time>
      </trkpt>
      <trkpt lat="42.94541" lon="0.24284">
        <ele>1215.156</ele>
        <time>2014-09-13T08:04:52Z</time>
      </trkpt>
      <trkpt lat="42.94564" lon="0.24314">
        <ele>1214.277</ele>
        <time>2014-09-13T08:04:56Z</time>
      </trkpt>
      <trkpt lat="42.9459" lon="0.24342">
        <ele>1213.256</ele>
        <time>2014-09-13T08:05:00Z</time>
      </trkpt>
      <trkpt lat="42.94624" lon="0.24379">
        <ele>1211.626</ele>
        <time>2014-09-13T08:05:06Z</time>
      </trkpt>
      <trkpt lat="42.94655" lon="0.24421">
        <ele>1210.961</ele>
        <time>2014-09-13T08:05:13Z</time>
      </trkpt>
      <trkpt lat="42.94685" lon="0.24484">
        <ele>1210.685</ele>
        <time>2014-09-13T08:05:22Z</time>
      </trkpt>
      <trkpt lat="42.94701" lon="0.24518">
        <ele>1210.816</ele>
        <time>2014-09-13T08:05:27Z</time>
      </trkpt>
      <trkpt lat="42.94717" lon="0.24558">
        <ele>1211.178</ele>
        <time>2014-09-13T08:05:33Z</time>
      </trkpt>
      <trkpt lat="42.9473" lon="0.2461">
        <ele>1210.91</ele>
        <time>2014-09-13T08:05:40Z</time>
      </trkpt>
      <trkpt lat="42.94733" lon="0.24663">
        <ele>1210.871</ele>
        <time>2014-09-13T08:05:47Z</time>
      </trkpt>
      <trkpt lat="42.94741" lon="0.24711">
        <ele>1210.401</ele>
        <time>2014-09-13T08:05:53Z</time>
      </trkpt>
      <trkpt lat="42.94755" lon="0.24775">
        <ele>1210.053</ele>
        <time>2014-09-13T08:06:01Z</time>
      </trkpt>
      <trkpt lat="42.94776" lon="0.24835">
        <ele>1210.358</ele>
        <time>2014-09-13T08:06:09Z</time>
      </trkpt>
      <trkpt lat="42.94805" lon="0.24902">
        <ele>1212.022</ele>
        <time>2014-09-13T08:06:19Z</time>
      </trkpt>
      <trkpt lat="42.94818" lon="0.24933">
        <ele>1212.386</ele>
        <time>2014-09-13T08:06:24Z</time>
      </trkpt>
      <trkpt lat="42.94826" lon="0.24956">
        <ele>1212.493</ele>
        <time>2014-09-13T08:06:28Z</time>
      </trkpt>
      <trkpt lat="42.94833" lon="0.2498">
        <ele>1212.398</ele>
        <time>2014-09-13T08:06:32Z</time>
      </trkpt>
      <trkpt lat="42.94832" lon="0.2503">
        <ele>1212.242</ele>
        <time>2014-09-13T08:06:40Z</time>
      </trkpt>
      <trkpt lat="42.9483" lon="0.25059">
        <ele>1212.012</ele>
        <time>2014-09-13T08:06:46Z</time>
      </trkpt>
      <trkpt lat="42.94824" lon="0.25098">
        <ele>1211.789</ele>
        <time>2014-09-13T08:06:53Z</time>
      </trkpt>
      <trkpt lat="42.94823" lon="0.25105">
        <ele>1211.677</ele>
        <time>2014-09-13T08:06:54Z</time>
      </trkpt>
      <trkpt lat="42.94806" lon="0.25149">
        <ele>1210.92</ele>
        <time>2014-09-13T08:07:01Z</time>
      </trkpt>
      <trkpt lat="42.94781" lon="0.25193">
        <ele>1210.028</ele>
        <time>2014-09-13T08:07:08Z</time>
      </trkpt>
      <trkpt lat="42.94759" lon="0.25213">
        <ele>1209.475</ele>
        <time>2014-09-13T08:07:12Z</time>
      </trkpt>
      <trkpt lat="42.94732" lon="0.25217">
        <ele>1208.305</ele>
        <time>2014-09-13T08:07:16Z</time>
      </trkpt>
      <trkpt lat="42.94718" lon="0.25211">
        <ele>1207.944</ele>
        <time>2014-09-13T08:07:18Z</time>
      </trkpt>
      <trkpt lat="42.94703" lon="0.25203">
        <ele>1207.108</ele>
        <time>2014-09-13T08:07:20Z</time>
      </trkpt>
      <trkpt lat="42.94678" lon="0.25197">
        <ele>1205.689</ele>
        <time>2014-09-13T08:07:23Z</time>
      </trkpt>
      <trkpt lat="42.94644" lon="0.25208">
        <ele>1204.104</ele>
        <time>2014-09-13T08:07:27Z</time>
      </trkpt>
      <trkpt lat="42.94602" lon="0.25238">
        <ele>1201.505</ele>
        <time>2014-09-13T08:07:32Z</time>
      </trkpt>
      <trkpt lat="42.94551" lon="0.25283">
        <ele>1197.652</ele>
        <time>2014-09-13T08:07:38Z</time>
      </trkpt>
      <trkpt lat="42.94543" lon="0.2529">
        <ele>1197.092</ele>
        <time>2014-09-13T08:07:39Z</time>
      </trkpt>
      <trkpt lat="42.94501" lon="0.25305">
        <ele>1194.925</ele>
        <time>2014-09-13T08:07:43Z</time>
      </trkpt>
      <trkpt lat="42.94469" lon="0.25296">
        <ele>1192.322</ele>
        <time>2014-09-13T08:07:46Z</time>
      </trkpt>
      <trkpt lat="42.94451" lon="0.25288">
        <ele>1190.512</ele>
        <time>2014-09-13T08:07:48Z</time>
      </trkpt>
      <trkpt lat="42.94429" lon="0.25295">
        <ele>1187.396</ele>
        <time>2014-09-13T08:07:52Z</time>
      </trkpt>
      <trkpt lat="42.94427" lon="0.25311">
        <ele>1186.517</ele>
        <time>2014-09-13T08:07:54Z</time>
      </trkpt>
      <trkpt lat="42.94432" lon="0.25326">
        <ele>1186.028</ele>
        <time>2014-09-13T08:07:56Z</time>
      </trkpt>
      <trkpt lat="42.94452" lon="0.25367">
        <ele>1185.965</ele>
        <time>2014-09-13T08:08:02Z</time>
      </trkpt>
      <trkpt lat="42.94456" lon="0.2538">
        <ele>1185.898</ele>
        <time>2014-09-13T08:08:04Z</time>
      </trkpt>
      <trkpt lat="42.94474" lon="0.25431">
        <ele>1185.933</ele>
        <time>2014-09-13T08:08:13Z</time>
      </trkpt>
      <trkpt lat="42.94484" lon="0.25464">
        <ele>1186.22</ele>
        <time>2014-09-13T08:08:19Z</time>
      </trkpt>
      <trkpt lat="42.94504" lon="0.25485">
        <ele>1186.874</ele>
        <time>2014-09-13T08:08:25Z</time>
      </trkpt>
      <trkpt lat="42.94515" lon="0.25489">
        <ele>1187.014</ele>
        <time>2014-09-13T08:08:28Z</time>
      </trkpt>
      <trkpt lat="42.94546" lon="0.25501">
        <ele>1186.473</ele>
        <time>2014-09-13T08:08:34Z</time>
      </trkpt>
      <trkpt lat="42.94583" lon="0.25527">
        <ele>1184.644</ele>
        <time>2014-09-13T08:08:40Z</time>
      </trkpt>
      <trkpt lat="42.94619" lon="0.25555">
        <ele>1181.929</ele>
        <time>2014-09-13T08:08:45Z</time>
      </trkpt>
      <trkpt lat="42.94626" lon="0.25561">
        <ele>1181.373</ele>
        <time>2014-09-13T08:08:46Z</time>
      </trkpt>
      <trkpt lat="42.94635" lon="0.25582">
        <ele>1179.516</ele>
        <time>2014-09-13T08:08:49Z</time>
      </trkpt>
      <trkpt lat="42.94622" lon="0.25589">
        <ele>1177.916</ele>
        <time>2014-09-13T08:08:51Z</time>
      </trkpt>
      <trkpt lat="42.94601" lon="0.25595">
        <ele>1175.634</ele>
        <time>2014-09-13T08:08:54Z</time>
      </trkpt>
      <trkpt lat="42.94598" lon="0.25611">
        <ele>1174.323</ele>
        <time>2014-09-13T08:08:56Z</time>
      </trkpt>
      <trkpt lat="42.94608" lon="0.25621">
        <ele>1173.845</ele>
        <time>2014-09-13T08:08:58Z</time>
      </trkpt>
      <trkpt lat="42.94649" lon="0.25645">
        <ele>1172.008</ele>
        <time>2014-09-13T08:09:04Z</time>
      </trkpt>
      <trkpt lat="42.94679" lon="0.25684">
        <ele>1170.149</ele>
        <time>2014-09-13T08:09:09Z</time>
      </trkpt>
      <trkpt lat="42.94715" lon="0.25742">
        <ele>1167.266</ele>
        <time>2014-09-13T08:09:15Z</time>
      </trkpt>
      <trkpt lat="42.94772" lon="0.25838">
        <ele>1163.227</ele>
        <time>2014-09-13T08:09:24Z</time>
      </trkpt>
      <trkpt lat="42.94778" lon="0.25847">
        <ele>1162.807</ele>
        <time>2014-09-13T08:09:25Z</time>
      </trkpt>
      <trkpt lat="42.94822" lon="0.25897">
        <ele>1160.307</ele>
        <time>2014-09-13T08:09:31Z</time>
      </trkpt>
      <trkpt lat="42.94858" lon="0.25966">
        <ele>1156.853</ele>
        <time>2014-09-13T08:09:37Z</time>
      </trkpt>
      <trkpt lat="42.94894" lon="0.2602">
        <ele>1153.397</ele>
        <time>2014-09-13T08:09:42Z</time>
      </trkpt>
      <trkpt lat="42.9492" lon="0.2606">
        <ele>1151.373</ele>
        <time>2014-09-13T08:09:46Z</time>
      </trkpt>
      <trkpt lat="42.94924" lon="0.26097">
        <ele>1149.627</ele>
        <time>2014-09-13T08:09:50Z</time>
      </trkpt>
      <trkpt lat="42.94907" lon="0.26103">
        <ele>1148.179</ele>
        <time>2014-09-13T08:09:52Z</time>
      </trkpt>
      <trkpt lat="42.94883" lon="0.26126">
        <ele>1145.843</ele>
        <time>2014-09-13T08:09:55Z</time>
      </trkpt>
      <trkpt lat="42.94891" lon="0.26148">
        <ele>1144.359</ele>
        <time>2014-09-13T08:09:57Z</time>
      </trkpt>
      <trkpt lat="42.94899" lon="0.26162">
        <ele>1143.647</ele>
        <time>2014-09-13T08:09:58Z</time>
      </trkpt>
      <trkpt lat="42.94929" lon="0.26232">
        <ele>1138.857</ele>
        <time>2014-09-13T08:10:04Z</time>
      </trkpt>
      <trkpt lat="42.94919" lon="0.26248">
        <ele>1135.794</ele>
        <time>2014-09-13T08:10:08Z</time>
      </trkpt>
      <trkpt lat="42.94901" lon="0.26248">
        <ele>1134.224</ele>
        <time>2014-09-13T08:10:11Z</time>
      </trkpt>
      <trkpt lat="42.9488" lon="0.26278">
        <ele>1133.278</ele>
        <time>2014-09-13T08:10:15Z</time>
      </trkpt>
      <trkpt lat="42.94888" lon="0.26296">
        <ele>1132.482</ele>
        <time>2014-09-13T08:10:17Z</time>
      </trkpt>
      <trkpt lat="42.94912" lon="0.26373">
        <ele>1129.547</ele>
        <time>2014-09-13T08:10:23Z</time>
      </trkpt>
      <trkpt lat="42.94917" lon="0.26398">
        <ele>1128.549</ele>
        <time>2014-09-13T08:10:25Z</time>
      </trkpt>
      <trkpt lat="42.94915" lon="0.26445">
        <ele>1126.603</ele>
        <time>2014-09-13T08:10:29Z</time>
      </trkpt>
      <trkpt lat="42.94913" lon="0.26457">
        <ele>1126.108</ele>
        <time>2014-09-13T08:10:30Z</time>
      </trkpt>
      <trkpt lat="42.94887" lon="0.26482">
        <ele>1123.505</ele>
        <time>2014-09-13T08:10:34Z</time>
      </trkpt>
      <trkpt lat="42.9487" lon="0.26494">
        <ele>1122.031</ele>
        <time>2014-09-13T08:10:36Z</time>
      </trkpt>
      <trkpt lat="42.94851" lon="0.2651">
        <ele>1121.246</ele>
        <time>2014-09-13T08:10:38Z</time>
      </trkpt>
      <trkpt lat="42.94841" lon="0.26517">
        <ele>1120.436</ele>
        <time>2014-09-13T08:10:39Z</time>
      </trkpt>
      <trkpt lat="42.94822" lon="0.26548">
        <ele>1118.059</ele>
        <time>2014-09-13T08:10:42Z</time>
      </trkpt>
      <trkpt lat="42.94828" lon="0.26572">
        <ele>1116.618</ele>
        <time>2014-09-13T08:10:44Z</time>
      </trkpt>
      <trkpt lat="42.9484" lon="0.2659">
        <ele>1115.445</ele>
        <time>2014-09-13T08:10:46Z</time>
      </trkpt>
      <trkpt lat="42.94862" lon="0.26646">
        <ele>1113.313</ele>
        <time>2014-09-13T08:10:51Z</time>
      </trkpt>
      <trkpt lat="42.94876" lon="0.26684">
        <ele>1111.628</ele>
        <time>2014-09-13T08:10:54Z</time>
      </trkpt>
      <trkpt lat="42.94885" lon="0.26727">
        <ele>1109.358</ele>
        <time>2014-09-13T08:10:57Z</time>
      </trkpt>
      <trkpt lat="42.94885" lon="0.26809">
        <ele>1104.414</ele>
        <time>2014-09-13T08:11:02Z</time>
      </trkpt>
      <trkpt lat="42.94884" lon="0.26827">
        <ele>1104.41</ele>
        <time>2014-09-13T08:11:03Z</time>
      </trkpt>
      <trkpt lat="42.94881" lon="0.26911">
        <ele>1098.397</ele>
        <time>2014-09-13T08:11:08Z</time>
      </trkpt>
      <trkpt lat="42.94859" lon="0.26956">
        <ele>1093.684</ele>
        <time>2014-09-13T08:11:12Z</time>
      </trkpt>
      <trkpt lat="42.94833" lon="0.2698">
        <ele>1090.224</ele>
        <time>2014-09-13T08:11:15Z</time>
      </trkpt>
      <trkpt lat="42.94826" lon="0.26999">
        <ele>1088.392</ele>
        <time>2014-09-13T08:11:17Z</time>
      </trkpt>
      <trkpt lat="42.94835" lon="0.27007">
        <ele>1086.615</ele>
        <time>2014-09-13T08:11:19Z</time>
      </trkpt>
      <trkpt lat="42.9485" lon="0.27">
        <ele>1085.292</ele>
        <time>2014-09-13T08:11:21Z</time>
      </trkpt>
      <trkpt lat="42.94857" lon="0.26993">
        <ele>1084.615</ele>
        <time>2014-09-13T08:11:22Z</time>
      </trkpt>
      <trkpt lat="42.94896" lon="0.26951">
        <ele>1080.77</ele>
        <time>2014-09-13T08:11:27Z</time>
      </trkpt>
      <trkpt lat="42.94924" lon="0.26908">
        <ele>1078.213</ele>
        <time>2014-09-13T08:11:31Z</time>
      </trkpt>
      <trkpt lat="42.94928" lon="0.26896">
        <ele>1077.538</ele>
        <time>2014-09-13T08:11:32Z</time>
      </trkpt>
      <trkpt lat="42.9494" lon="0.26866">
        <ele>1075.836</ele>
        <time>2014-09-13T08:11:35Z</time>
      </trkpt>
      <trkpt lat="42.94954" lon="0.26864">
        <ele>1074.724</ele>
        <time>2014-09-13T08:11:38Z</time>
      </trkpt>
      <trkpt lat="42.94957" lon="0.26877">
        <ele>1073.947</ele>
        <time>2014-09-13T08:11:40Z</time>
      </trkpt>
      <trkpt lat="42.94946" lon="0.26907">
        <ele>1072.486</ele>
        <time>2014-09-13T08:11:43Z</time>
      </trkpt>
      <trkpt lat="42.94928" lon="0.26967">
        <ele>1069.488</ele>
        <time>2014-09-13T08:11:49Z</time>
      </trkpt>
      <trkpt lat="42.94929" lon="0.26989">
        <ele>1068.289</ele>
        <time>2014-09-13T08:11:53Z</time>
      </trkpt>
      <trkpt lat="42.94934" lon="0.26992">
        <ele>1066.953</ele>
        <time>2014-09-13T08:11:57Z</time>
      </trkpt>
      <trkpt lat="42.94934" lon="0.26991">
        <ele>1066.589</ele>
        <time>2014-09-13T08:11:58Z</time>
      </trkpt>
      <trkpt lat="42.94938" lon="0.26985">
        <ele>1065.675</ele>
        <time>2014-09-13T08:12:21Z</time>
      </trkpt>
      <trkpt lat="42.94955" lon="0.2696">
        <ele>1065.026</ele>
        <time>2014-09-13T08:12:26Z</time>
      </trkpt>
      <trkpt lat="42.94959" lon="0.26954">
        <ele>1064.701</ele>
        <time>2014-09-13T08:12:27Z</time>
      </trkpt>
      <trkpt lat="42.94968" lon="0.26936">
        <ele>1063.629</ele>
        <time>2014-09-13T08:12:30Z</time>
      </trkpt>
      <trkpt lat="42.94982" lon="0.26924">
        <ele>1062.164</ele>
        <time>2014-09-13T08:12:34Z</time>
      </trkpt>
      <trkpt lat="42.94993" lon="0.26934">
        <ele>1060.723</ele>
        <time>2014-09-13T08:12:37Z</time>
      </trkpt>
      <trkpt lat="42.94993" lon="0.26959">
        <ele>1059.285</ele>
        <time>2014-09-13T08:12:41Z</time>
      </trkpt>
      <trkpt lat="42.94989" lon="0.26979">
        <ele>1058.52</ele>
        <time>2014-09-13T08:12:44Z</time>
      </trkpt>
      <trkpt lat="42.94982" lon="0.2701">
        <ele>1058.246</ele>
        <time>2014-09-13T08:12:49Z</time>
      </trkpt>
      <trkpt lat="42.9498" lon="0.27022">
        <ele>1058.214</ele>
        <time>2014-09-13T08:12:51Z</time>
      </trkpt>
      <trkpt lat="42.94985" lon="0.27047">
        <ele>1058.588</ele>
        <time>2014-09-13T08:12:56Z</time>
      </trkpt>
      <trkpt lat="42.94989" lon="0.27054">
        <ele>1058.869</ele>
        <time>2014-09-13T08:12:58Z</time>
      </trkpt>
      <trkpt lat="42.95003" lon="0.27069">
        <ele>1060.579</ele>
        <time>2014-09-13T08:13:05Z</time>
      </trkpt>
      <trkpt lat="42.95013" lon="0.27074">
        <ele>1061.845</ele>
        <time>2014-09-13T08:13:10Z</time>
      </trkpt>
      <trkpt lat="42.9502" lon="0.27075">
        <ele>1063.074</ele>
        <time>2014-09-13T08:13:14Z</time>
      </trkpt>
      <trkpt lat="42.95025" lon="0.27075">
        <ele>1064.12</ele>
        <time>2014-09-13T08:13:17Z</time>
      </trkpt>
      <trkpt lat="42.95034" lon="0.27077">
        <ele>1066.066</ele>
        <time>2014-09-13T08:13:23Z</time>
      </trkpt>
      <trkpt lat="42.95038" lon="0.27079">
        <ele>1067.045</ele>
        <time>2014-09-13T08:13:26Z</time>
      </trkpt>
      <trkpt lat="42.95045" lon="0.2708">
        <ele>1068.281</ele>
        <time>2014-09-13T08:13:30Z</time>
      </trkpt>
      <trkpt lat="42.95054" lon="0.2708">
        <ele>1069.429</ele>
        <time>2014-09-13T08:13:35Z</time>
      </trkpt>
      <trkpt lat="42.95062" lon="0.27076">
        <ele>1070.615</ele>
        <time>2014-09-13T08:13:40Z</time>
      </trkpt>
      <trkpt lat="42.95079" lon="0.27075">
        <ele>1073.159</ele>
        <time>2014-09-13T08:13:50Z</time>
      </trkpt>
      <trkpt lat="42.95092" lon="0.27073">
        <ele>1075.459</ele>
        <time>2014-09-13T08:13:58Z</time>
      </trkpt>
      <trkpt lat="42.95101" lon="0.27074">
        <ele>1076.245</ele>
        <time>2014-09-13T08:14:04Z</time>
      </trkpt>
      <trkpt lat="42.95114" lon="0.27074">
        <ele>1077.718</ele>
        <time>2014-09-13T08:14:11Z</time>
      </trkpt>
      <trkpt lat="42.95129" lon="0.27073">
        <ele>1079.196</ele>
        <time>2014-09-13T08:14:19Z</time>
      </trkpt>
      <trkpt lat="42.95148" lon="0.2707">
        <ele>1080.441</ele>
        <time>2014-09-13T08:14:29Z</time>
      </trkpt>
      <trkpt lat="42.95164" lon="0.27069">
        <ele>1081.862</ele>
        <time>2014-09-13T08:14:38Z</time>
      </trkpt>
      <trkpt lat="42.9518" lon="0.27073">
        <ele>1083.198</ele>
        <time>2014-09-13T08:14:47Z</time>
      </trkpt>
      <trkpt lat="42.952" lon="0.27077">
        <ele>1085.065</ele>
        <time>2014-09-13T08:14:58Z</time>
      </trkpt>
      <trkpt lat="42.95217" lon="0.27085">
        <ele>1086.854</ele>
        <time>2014-09-13T08:15:08Z</time>
      </trkpt>
      <trkpt lat="42.95234" lon="0.27096">
        <ele>1088.659</ele>
        <time>2014-09-13T08:15:18Z</time>
      </trkpt>
      <trkpt lat="42.95247" lon="0.27105">
        <ele>1089.667</ele>
        <time>2014-09-13T08:15:26Z</time>
      </trkpt>
      <trkpt lat="42.95259" lon="0.27116">
        <ele>1090.45</ele>
        <time>2014-09-13T08:15:33Z</time>
      </trkpt>
      <trkpt lat="42.95273" lon="0.27134">
        <ele>1091.648</ele>
        <time>2014-09-13T08:15:42Z</time>
      </trkpt>
      <trkpt lat="42.95289" lon="0.27159">
        <ele>1093.474</ele>
        <time>2014-09-13T08:15:53Z</time>
      </trkpt>
      <trkpt lat="42.95301" lon="0.2718">
        <ele>1094.698</ele>
        <time>2014-09-13T08:16:01Z</time>
      </trkpt>
      <trkpt lat="42.95301" lon="0.27203">
        <ele>1096.274</ele>
        <time>2014-09-13T08:16:10Z</time>
      </trkpt>
      <trkpt lat="42.953" lon="0.27223">
        <ele>1097.883</ele>
        <time>2014-09-13T08:16:17Z</time>
      </trkpt>
      <trkpt lat="42.95308" lon="0.27242">
        <ele>1099.427</ele>
        <time>2014-09-13T08:16:25Z</time>
      </trkpt>
      <trkpt lat="42.95322" lon="0.27256">
        <ele>1100.674</ele>
        <time>2014-09-13T08:16:32Z</time>
      </trkpt>
      <trkpt lat="42.95335" lon="0.27269">
        <ele>1101.347</ele>
        <time>2014-09-13T08:16:39Z</time>
      </trkpt>
      <trkpt lat="42.9535" lon="0.2728">
        <ele>1102.089</ele>
        <time>2014-09-13T08:16:46Z</time>
      </trkpt>
      <trkpt lat="42.95358" lon="0.27299">
        <ele>1102.993</ele>
        <time>2014-09-13T08:16:52Z</time>
      </trkpt>
      <trkpt lat="42.95375" lon="0.27313">
        <ele>1104.966</ele>
        <time>2014-09-13T08:17:02Z</time>
      </trkpt>
      <trkpt lat="42.95384" lon="0.27334">
        <ele>1107.148</ele>
        <time>2014-09-13T08:17:11Z</time>
      </trkpt>
      <trkpt lat="42.9538" lon="0.2736">
        <ele>1108.452</ele>
        <time>2014-09-13T08:17:19Z</time>
      </trkpt>
      <trkpt lat="42.95379" lon="0.27372">
        <ele>1109.389</ele>
        <time>2014-09-13T08:17:25Z</time>
      </trkpt>
      <trkpt lat="42.95375" lon="0.27382">
        <ele>1110.319</ele>
        <time>2014-09-13T08:17:29Z</time>
      </trkpt>
      <trkpt lat="42.95374" lon="0.274">
        <ele>1111.826</ele>
        <time>2014-09-13T08:17:37Z</time>
      </trkpt>
      <trkpt lat="42.95374" lon="0.27417">
        <ele>1112.828</ele>
        <time>2014-09-13T08:17:43Z</time>
      </trkpt>
      <trkpt lat="42.95374" lon="0.27438">
        <ele>1114.533</ele>
        <time>2014-09-13T08:17:50Z</time>
      </trkpt>
      <trkpt lat="42.95384" lon="0.27464">
        <ele>1117.102</ele>
        <time>2014-09-13T08:17:58Z</time>
      </trkpt>
      <trkpt lat="42.95394" lon="0.27478">
        <ele>1119.159</ele>
        <time>2014-09-13T08:18:05Z</time>
      </trkpt>
      <trkpt lat="42.95401" lon="0.2749">
        <ele>1120.287</ele>
        <time>2014-09-13T08:18:11Z</time>
      </trkpt>
      <trkpt lat="42.95419" lon="0.27498">
        <ele>1122.155</ele>
        <time>2014-09-13T08:18:19Z</time>
      </trkpt>
      <trkpt lat="42.95437" lon="0.27501">
        <ele>1124.039</ele>
        <time>2014-09-13T08:18:27Z</time>
      </trkpt>
      <trkpt lat="42.95441" lon="0.27503">
        <ele>1124.596</ele>
        <time>2014-09-13T08:18:29Z</time>
      </trkpt>
      <trkpt lat="42.95452" lon="0.27514">
        <ele>1126.238</ele>
        <time>2014-09-13T08:18:36Z</time>
      </trkpt>
      <trkpt lat="42.95456" lon="0.27516">
        <ele>1126.695</ele>
        <time>2014-09-13T08:18:38Z</time>
      </trkpt>
      <trkpt lat="42.95467" lon="0.2753">
        <ele>1128.62</ele>
        <time>2014-09-13T08:18:46Z</time>
      </trkpt>
      <trkpt lat="42.95471" lon="0.27551">
        <ele>1130.666</ele>
        <time>2014-09-13T08:18:54Z</time>
      </trkpt>
      <trkpt lat="42.95468" lon="0.27567">
        <ele>1131.49</ele>
        <time>2014-09-13T08:19:00Z</time>
      </trkpt>
      <trkpt lat="42.95459" lon="0.27575">
        <ele>1131.903</ele>
        <time>2014-09-13T08:19:05Z</time>
      </trkpt>
      <trkpt lat="42.95445" lon="0.27575">
        <ele>1133.327</ele>
        <time>2014-09-13T08:19:12Z</time>
      </trkpt>
      <trkpt lat="42.95426" lon="0.27571">
        <ele>1135.316</ele>
        <time>2014-09-13T08:19:21Z</time>
      </trkpt>
      <trkpt lat="42.95411" lon="0.27563">
        <ele>1136.66</ele>
        <time>2014-09-13T08:19:29Z</time>
      </trkpt>
      <trkpt lat="42.95398" lon="0.27558">
        <ele>1137.971</ele>
        <time>2014-09-13T08:19:35Z</time>
      </trkpt>
      <trkpt lat="42.95385" lon="0.27553">
        <ele>1139.329</ele>
        <time>2014-09-13T08:19:41Z</time>
      </trkpt>
      <trkpt lat="42.95365" lon="0.27546">
        <ele>1141.431</ele>
        <time>2014-09-13T08:19:50Z</time>
      </trkpt>
      <trkpt lat="42.95347" lon="0.27531">
        <ele>1143.473</ele>
        <time>2014-09-13T08:19:59Z</time>
      </trkpt>
      <trkpt lat="42.95328" lon="0.27515">
        <ele>1145.528</ele>
        <time>2014-09-13T08:20:10Z</time>
      </trkpt>
      <trkpt lat="42.95318" lon="0.27502">
        <ele>1146.79</ele>
        <time>2014-09-13T08:20:17Z</time>
      </trkpt>
      <trkpt lat="42.95315" lon="0.27484">
        <ele>1148.319</ele>
        <time>2014-09-13T08:20:24Z</time>
      </trkpt>
      <trkpt lat="42.95311" lon="0.27475">
        <ele>1149.056</ele>
        <time>2014-09-13T08:20:27Z</time>
      </trkpt>
      <trkpt lat="42.95308" lon="0.27462">
        <ele>1150.343</ele>
        <time>2014-09-13T08:20:33Z</time>
      </trkpt>
      <trkpt lat="42.95307" lon="0.27459">
        <ele>1150.507</ele>
        <time>2014-09-13T08:20:34Z</time>
      </trkpt>
      <trkpt lat="42.95299" lon="0.27435">
        <ele>1152.456</ele>
        <time>2014-09-13T08:20:43Z</time>
      </trkpt>
      <trkpt lat="42.95296" lon="0.27429">
        <ele>1152.913</ele>
        <time>2014-09-13T08:20:45Z</time>
      </trkpt>
      <trkpt lat="42.9528" lon="0.27409">
        <ele>1155.425</ele>
        <time>2014-09-13T08:20:54Z</time>
      </trkpt>
      <trkpt lat="42.9527" lon="0.27396">
        <ele>1156.626</ele>
        <time>2014-09-13T08:20:59Z</time>
      </trkpt>
      <trkpt lat="42.95257" lon="0.27378">
        <ele>1158.275</ele>
        <time>2014-09-13T08:21:07Z</time>
      </trkpt>
      <trkpt lat="42.95248" lon="0.27367">
        <ele>1159.109</ele>
        <time>2014-09-13T08:21:12Z</time>
      </trkpt>
      <trkpt lat="42.95231" lon="0.27355">
        <ele>1160.52</ele>
        <time>2014-09-13T08:21:20Z</time>
      </trkpt>
      <trkpt lat="42.95216" lon="0.27347">
        <ele>1161.983</ele>
        <time>2014-09-13T08:21:27Z</time>
      </trkpt>
      <trkpt lat="42.95198" lon="0.2734">
        <ele>1163.673</ele>
        <time>2014-09-13T08:21:35Z</time>
      </trkpt>
      <trkpt lat="42.95179" lon="0.27335">
        <ele>1165.14</ele>
        <time>2014-09-13T08:21:43Z</time>
      </trkpt>
      <trkpt lat="42.95167" lon="0.27338">
        <ele>1166.118</ele>
        <time>2014-09-13T08:21:49Z</time>
      </trkpt>
      <trkpt lat="42.95163" lon="0.2735">
        <ele>1167.422</ele>
        <time>2014-09-13T08:21:54Z</time>
      </trkpt>
      <trkpt lat="42.9517" lon="0.27361">
        <ele>1168.415</ele>
        <time>2014-09-13T08:21:59Z</time>
      </trkpt>
      <trkpt lat="42.95181" lon="0.27367">
        <ele>1169.445</ele>
        <time>2014-09-13T08:22:05Z</time>
      </trkpt>
      <trkpt lat="42.95193" lon="0.2737">
        <ele>1170.445</ele>
        <time>2014-09-13T08:22:11Z</time>
      </trkpt>
      <trkpt lat="42.95213" lon="0.27375">
        <ele>1172.024</ele>
        <time>2014-09-13T08:22:19Z</time>
      </trkpt>
      <trkpt lat="42.95226" lon="0.2739">
        <ele>1173.175</ele>
        <time>2014-09-13T08:22:26Z</time>
      </trkpt>
      <trkpt lat="42.95238" lon="0.27404">
        <ele>1174.537</ele>
        <time>2014-09-13T08:22:33Z</time>
      </trkpt>
      <trkpt lat="42.95241" lon="0.27409">
        <ele>1175.323</ele>
        <time>2014-09-13T08:22:37Z</time>
      </trkpt>
      <trkpt lat="42.95241" lon="0.27412">
        <ele>1175.88</ele>
        <time>2014-09-13T08:22:41Z</time>
      </trkpt>
      <trkpt lat="42.95246" lon="0.27414">
        <ele>1176.708</ele>
        <time>2014-09-13T08:23:47Z</time>
      </trkpt>
      <trkpt lat="42.95247" lon="0.27416">
        <ele>1176.753</ele>
        <time>2014-09-13T08:23:48Z</time>
      </trkpt>
      <trkpt lat="42.95253" lon="0.2744">
        <ele>1177.534</ele>
        <time>2014-09-13T08:23:55Z</time>
      </trkpt>
      <trkpt lat="42.95257" lon="0.27468">
        <ele>1179.269</ele>
        <time>2014-09-13T08:24:02Z</time>
      </trkpt>
      <trkpt lat="42.95259" lon="0.27497">
        <ele>1181.121</ele>
        <time>2014-09-13T08:24:09Z</time>
      </trkpt>
      <trkpt lat="42.95263" lon="0.27522">
        <ele>1182.785</ele>
        <time>2014-09-13T08:24:15Z</time>
      </trkpt>
      <trkpt lat="42.95276" lon="0.27557">
        <ele>1185.644</ele>
        <time>2014-09-13T08:24:24Z</time>
      </trkpt>
      <trkpt lat="42.95284" lon="0.27588">
        <ele>1188.234</ele>
        <time>2014-09-13T08:24:33Z</time>
      </trkpt>
      <trkpt lat="42.9529" lon="0.27607">
        <ele>1190.122</ele>
        <time>2014-09-13T08:24:39Z</time>
      </trkpt>
      <trkpt lat="42.95298" lon="0.27636">
        <ele>1192.808</ele>
        <time>2014-09-13T08:24:48Z</time>
      </trkpt>
      <trkpt lat="42.95301" lon="0.27636">
        <ele>1193.391</ele>
        <time>2014-09-13T08:24:52Z</time>
      </trkpt>
      <trkpt lat="42.95302" lon="0.27635">
        <ele>1193.61</ele>
        <time>2014-09-13T08:24:54Z</time>
      </trkpt>
      <trkpt lat="42.95303" lon="0.27633">
        <ele>1193.041</ele>
        <time>2014-09-13T08:25:07Z</time>
      </trkpt>
      <trkpt lat="42.95303" lon="0.27634">
        <ele>1193.105</ele>
        <time>2014-09-13T08:25:08Z</time>
      </trkpt>
      <trkpt lat="42.95308" lon="0.27647">
        <ele>1193.835</ele>
        <time>2014-09-13T08:25:14Z</time>
      </trkpt>
      <trkpt lat="42.95317" lon="0.27671">
        <ele>1195.537</ele>
        <time>2014-09-13T08:25:23Z</time>
      </trkpt>
      <trkpt lat="42.95328" lon="0.27689">
        <ele>1198.178</ele>
        <time>2014-09-13T08:25:31Z</time>
      </trkpt>
      <trkpt lat="42.95341" lon="0.27702">
        <ele>1200.356</ele>
        <time>2014-09-13T08:25:39Z</time>
      </trkpt>
      <trkpt lat="42.95356" lon="0.27717">
        <ele>1202.281</ele>
        <time>2014-09-13T08:25:48Z</time>
      </trkpt>
      <trkpt lat="42.95374" lon="0.27738">
        <ele>1205.004</ele>
        <time>2014-09-13T08:25:57Z</time>
      </trkpt>
      <trkpt lat="42.95388" lon="0.27754">
        <ele>1206.971</ele>
        <time>2014-09-13T08:26:04Z</time>
      </trkpt>
      <trkpt lat="42.95399" lon="0.27766">
        <ele>1208.702</ele>
        <time>2014-09-13T08:26:11Z</time>
      </trkpt>
      <trkpt lat="42.95411" lon="0.27776">
        <ele>1210.507</ele>
        <time>2014-09-13T08:26:17Z</time>
      </trkpt>
      <trkpt lat="42.95426" lon="0.27793">
        <ele>1212.27</ele>
        <time>2014-09-13T08:26:24Z</time>
      </trkpt>
      <trkpt lat="42.95437" lon="0.27811">
        <ele>1214.101</ele>
        <time>2014-09-13T08:26:31Z</time>
      </trkpt>
      <trkpt lat="42.95447" lon="0.27829">
        <ele>1215.6</ele>
        <time>2014-09-13T08:26:38Z</time>
      </trkpt>
      <trkpt lat="42.95461" lon="0.27859">
        <ele>1218.205</ele>
        <time>2014-09-13T08:26:48Z</time>
      </trkpt>
      <trkpt lat="42.95467" lon="0.27874">
        <ele>1219.594</ele>
        <time>2014-09-13T08:26:53Z</time>
      </trkpt>
      <trkpt lat="42.95474" lon="0.27902">
        <ele>1221.782</ele>
        <time>2014-09-13T08:27:01Z</time>
      </trkpt>
      <trkpt lat="42.95481" lon="0.2793">
        <ele>1224.058</ele>
        <time>2014-09-13T08:27:09Z</time>
      </trkpt>
      <trkpt lat="42.95488" lon="0.27955">
        <ele>1226.127</ele>
        <time>2014-09-13T08:27:16Z</time>
      </trkpt>
      <trkpt lat="42.95504" lon="0.27987">
        <ele>1228.05</ele>
        <time>2014-09-13T08:27:25Z</time>
      </trkpt>
      <trkpt lat="42.95514" lon="0.28002">
        <ele>1229.53</ele>
        <time>2014-09-13T08:27:31Z</time>
      </trkpt>
      <trkpt lat="42.95519" lon="0.27996">
        <ele>1230.446</ele>
        <time>2014-09-13T08:27:36Z</time>
      </trkpt>
      <trkpt lat="42.95532" lon="0.27973">
        <ele>1231.772</ele>
        <time>2014-09-13T08:27:44Z</time>
      </trkpt>
      <trkpt lat="42.9554" lon="0.27955">
        <ele>1232.948</ele>
        <time>2014-09-13T08:27:50Z</time>
      </trkpt>
      <trkpt lat="42.95551" lon="0.27939">
        <ele>1234.321</ele>
        <time>2014-09-13T08:27:56Z</time>
      </trkpt>
      <trkpt lat="42.95565" lon="0.27922">
        <ele>1236.332</ele>
        <time>2014-09-13T08:28:04Z</time>
      </trkpt>
      <trkpt lat="42.95576" lon="0.27903">
        <ele>1238.057</ele>
        <time>2014-09-13T08:28:12Z</time>
      </trkpt>
      <trkpt lat="42.95589" lon="0.27887">
        <ele>1239.563</ele>
        <time>2014-09-13T08:28:21Z</time>
      </trkpt>
      <trkpt lat="42.95601" lon="0.2788">
        <ele>1241.216</ele>
        <time>2014-09-13T08:28:28Z</time>
      </trkpt>
      <trkpt lat="42.95613" lon="0.27878">
        <ele>1243.016</ele>
        <time>2014-09-13T08:28:35Z</time>
      </trkpt>
      <trkpt lat="42.95628" lon="0.27876">
        <ele>1244.461</ele>
        <time>2014-09-13T08:28:43Z</time>
      </trkpt>
      <trkpt lat="42.95643" lon="0.27873">
        <ele>1246.413</ele>
        <time>2014-09-13T08:28:51Z</time>
      </trkpt>
      <trkpt lat="42.95659" lon="0.27871">
        <ele>1248.026</ele>
        <time>2014-09-13T08:28:59Z</time>
      </trkpt>
      <trkpt lat="42.95675" lon="0.27876">
        <ele>1249.548</ele>
        <time>2014-09-13T08:29:07Z</time>
      </trkpt>
      <trkpt lat="42.95692" lon="0.27883">
        <ele>1251.28</ele>
        <time>2014-09-13T08:29:15Z</time>
      </trkpt>
      <trkpt lat="42.95703" lon="0.27891">
        <ele>1252.74</ele>
        <time>2014-09-13T08:29:22Z</time>
      </trkpt>
      <trkpt lat="42.95714" lon="0.27892">
        <ele>1253.932</ele>
        <time>2014-09-13T08:29:27Z</time>
      </trkpt>
      <trkpt lat="42.95724" lon="0.27894">
        <ele>1254.923</ele>
        <time>2014-09-13T08:29:32Z</time>
      </trkpt>
      <trkpt lat="42.95736" lon="0.27898">
        <ele>1256.188</ele>
        <time>2014-09-13T08:29:38Z</time>
      </trkpt>
      <trkpt lat="42.95753" lon="0.27903">
        <ele>1257.637</ele>
        <time>2014-09-13T08:29:46Z</time>
      </trkpt>
      <trkpt lat="42.95767" lon="0.27909">
        <ele>1259.241</ele>
        <time>2014-09-13T08:29:53Z</time>
      </trkpt>
      <trkpt lat="42.95781" lon="0.27921">
        <ele>1260.75</ele>
        <time>2014-09-13T08:30:01Z</time>
      </trkpt>
      <trkpt lat="42.95791" lon="0.27927">
        <ele>1261.739</ele>
        <time>2014-09-13T08:30:06Z</time>
      </trkpt>
      <trkpt lat="42.95793" lon="0.27929">
        <ele>1261.97</ele>
        <time>2014-09-13T08:30:07Z</time>
      </trkpt>
      <trkpt lat="42.95813" lon="0.27934">
        <ele>1263.797</ele>
        <time>2014-09-13T08:30:15Z</time>
      </trkpt>
      <trkpt lat="42.95826" lon="0.27936">
        <ele>1265</ele>
        <time>2014-09-13T08:30:21Z</time>
      </trkpt>
      <trkpt lat="42.95837" lon="0.27936">
        <ele>1266.239</ele>
        <time>2014-09-13T08:30:27Z</time>
      </trkpt>
      <trkpt lat="42.95846" lon="0.27935">
        <ele>1267.091</ele>
        <time>2014-09-13T08:30:32Z</time>
      </trkpt>
      <trkpt lat="42.95854" lon="0.27937">
        <ele>1268.605</ele>
        <time>2014-09-13T08:30:38Z</time>
      </trkpt>
      <trkpt lat="42.95863" lon="0.27933">
        <ele>1269.618</ele>
        <time>2014-09-13T08:30:43Z</time>
      </trkpt>
      <trkpt lat="42.95875" lon="0.27932">
        <ele>1270.537</ele>
        <time>2014-09-13T08:30:48Z</time>
      </trkpt>
      <trkpt lat="42.95888" lon="0.27934">
        <ele>1271.658</ele>
        <time>2014-09-13T08:30:54Z</time>
      </trkpt>
      <trkpt lat="42.959" lon="0.27937">
        <ele>1272.749</ele>
        <time>2014-09-13T08:31:00Z</time>
      </trkpt>
      <trkpt lat="42.95912" lon="0.27938">
        <ele>1273.912</ele>
        <time>2014-09-13T08:31:06Z</time>
      </trkpt>
      <trkpt lat="42.9592" lon="0.27939">
        <ele>1274.836</ele>
        <time>2014-09-13T08:31:11Z</time>
      </trkpt>
      <trkpt lat="42.95932" lon="0.27938">
        <ele>1276.165</ele>
        <time>2014-09-13T08:31:17Z</time>
      </trkpt>
      <trkpt lat="42.95945" lon="0.27934">
        <ele>1277.312</ele>
        <time>2014-09-13T08:31:23Z</time>
      </trkpt>
      <trkpt lat="42.95959" lon="0.2793">
        <ele>1279.045</ele>
        <time>2014-09-13T08:31:31Z</time>
      </trkpt>
      <trkpt lat="42.95975" lon="0.27923">
        <ele>1280.787</ele>
        <time>2014-09-13T08:31:40Z</time>
      </trkpt>
      <trkpt lat="42.95987" lon="0.27925">
        <ele>1282.175</ele>
        <time>2014-09-13T08:31:46Z</time>
      </trkpt>
      <trkpt lat="42.95999" lon="0.27925">
        <ele>1283.622</ele>
        <time>2014-09-13T08:31:52Z</time>
      </trkpt>
      <trkpt lat="42.96011" lon="0.27925">
        <ele>1284.81</ele>
        <time>2014-09-13T08:31:58Z</time>
      </trkpt>
      <trkpt lat="42.9603" lon="0.27922">
        <ele>1286.585</ele>
        <time>2014-09-13T08:32:07Z</time>
      </trkpt>
      <trkpt lat="42.96051" lon="0.2792">
        <ele>1288.897</ele>
        <time>2014-09-13T08:32:17Z</time>
      </trkpt>
      <trkpt lat="42.96067" lon="0.27918">
        <ele>1290.437</ele>
        <time>2014-09-13T08:32:25Z</time>
      </trkpt>
      <trkpt lat="42.96084" lon="0.27916">
        <ele>1291.887</ele>
        <time>2014-09-13T08:32:33Z</time>
      </trkpt>
      <trkpt lat="42.96101" lon="0.27914">
        <ele>1293.702</ele>
        <time>2014-09-13T08:32:42Z</time>
      </trkpt>
      <trkpt lat="42.96118" lon="0.27912">
        <ele>1295.794</ele>
        <time>2014-09-13T08:32:50Z</time>
      </trkpt>
      <trkpt lat="42.96138" lon="0.27908">
        <ele>1297.67</ele>
        <time>2014-09-13T08:33:00Z</time>
      </trkpt>
      <trkpt lat="42.96154" lon="0.27907">
        <ele>1299.108</ele>
        <time>2014-09-13T08:33:08Z</time>
      </trkpt>
      <trkpt lat="42.9617" lon="0.27907">
        <ele>1300.713</ele>
        <time>2014-09-13T08:33:16Z</time>
      </trkpt>
      <trkpt lat="42.96189" lon="0.27907">
        <ele>1302.508</ele>
        <time>2014-09-13T08:33:25Z</time>
      </trkpt>
      <trkpt lat="42.96211" lon="0.27909">
        <ele>1304.681</ele>
        <time>2014-09-13T08:33:35Z</time>
      </trkpt>
      <trkpt lat="42.9623" lon="0.27908">
        <ele>1306.733</ele>
        <time>2014-09-13T08:33:44Z</time>
      </trkpt>
      <trkpt lat="42.96251" lon="0.27902">
        <ele>1309.032</ele>
        <time>2014-09-13T08:33:54Z</time>
      </trkpt>
      <trkpt lat="42.96263" lon="0.27897">
        <ele>1310.299</ele>
        <time>2014-09-13T08:34:01Z</time>
      </trkpt>
      <trkpt lat="42.9628" lon="0.27892">
        <ele>1311.818</ele>
        <time>2014-09-13T08:34:09Z</time>
      </trkpt>
      <trkpt lat="42.96297" lon="0.27886">
        <ele>1313.534</ele>
        <time>2014-09-13T08:34:17Z</time>
      </trkpt>
      <trkpt lat="42.96301" lon="0.27886">
        <ele>1313.958</ele>
        <time>2014-09-13T08:34:19Z</time>
      </trkpt>
      <trkpt lat="42.96313" lon="0.27884">
        <ele>1315.223</ele>
        <time>2014-09-13T08:34:25Z</time>
      </trkpt>
      <trkpt lat="42.96328" lon="0.27881">
        <ele>1316.821</ele>
        <time>2014-09-13T08:34:32Z</time>
      </trkpt>
      <trkpt lat="42.96335" lon="0.2788">
        <ele>1317.672</ele>
        <time>2014-09-13T08:34:35Z</time>
      </trkpt>
      <trkpt lat="42.96352" lon="0.27878">
        <ele>1319.248</ele>
        <time>2014-09-13T08:34:42Z</time>
      </trkpt>
      <trkpt lat="42.96369" lon="0.27877">
        <ele>1320.993</ele>
        <time>2014-09-13T08:34:50Z</time>
      </trkpt>
      <trkpt lat="42.96383" lon="0.27877">
        <ele>1322.697</ele>
        <time>2014-09-13T08:34:57Z</time>
      </trkpt>
      <trkpt lat="42.96396" lon="0.27876">
        <ele>1324.055</ele>
        <time>2014-09-13T08:35:04Z</time>
      </trkpt>
      <trkpt lat="42.96412" lon="0.27883">
        <ele>1325.511</ele>
        <time>2014-09-13T08:35:11Z</time>
      </trkpt>
      <trkpt lat="42.96424" lon="0.27891">
        <ele>1327.293</ele>
        <time>2014-09-13T08:35:17Z</time>
      </trkpt>
      <trkpt lat="42.96437" lon="0.27896">
        <ele>1328.966</ele>
        <time>2014-09-13T08:35:24Z</time>
      </trkpt>
      <trkpt lat="42.96453" lon="0.27907">
        <ele>1330.632</ele>
        <time>2014-09-13T08:35:31Z</time>
      </trkpt>
      <trkpt lat="42.96464" lon="0.27923">
        <ele>1332.034</ele>
        <time>2014-09-13T08:35:37Z</time>
      </trkpt>
      <trkpt lat="42.96477" lon="0.27936">
        <ele>1333.835</ele>
        <time>2014-09-13T08:35:44Z</time>
      </trkpt>
      <trkpt lat="42.96487" lon="0.27945">
        <ele>1334.917</ele>
        <time>2014-09-13T08:35:50Z</time>
      </trkpt>
      <trkpt lat="42.965" lon="0.27952">
        <ele>1336.089</ele>
        <time>2014-09-13T08:35:57Z</time>
      </trkpt>
      <trkpt lat="42.96511" lon="0.27962">
        <ele>1337.358</ele>
        <time>2014-09-13T08:36:03Z</time>
      </trkpt>
      <trkpt lat="42.96513" lon="0.27965">
        <ele>1337.608</ele>
        <time>2014-09-13T08:36:04Z</time>
      </trkpt>
      <trkpt lat="42.96514" lon="0.27973">
        <ele>1338.298</ele>
        <time>2014-09-13T08:36:07Z</time>
      </trkpt>
      <trkpt lat="42.96506" lon="0.27984">
        <ele>1339.583</ele>
        <time>2014-09-13T08:36:13Z</time>
      </trkpt>
      <trkpt lat="42.96504" lon="0.27984">
        <ele>1339.881</ele>
        <time>2014-09-13T08:36:14Z</time>
      </trkpt>
      <trkpt lat="42.9649" lon="0.27979">
        <ele>1340.99</ele>
        <time>2014-09-13T08:36:19Z</time>
      </trkpt>
      <trkpt lat="42.96474" lon="0.27976">
        <ele>1342.336</ele>
        <time>2014-09-13T08:36:26Z</time>
      </trkpt>
      <trkpt lat="42.96464" lon="0.27976">
        <ele>1343.394</ele>
        <time>2014-09-13T08:36:31Z</time>
      </trkpt>
      <trkpt lat="42.96454" lon="0.27976">
        <ele>1344.807</ele>
        <time>2014-09-13T08:36:37Z</time>
      </trkpt>
      <trkpt lat="42.96441" lon="0.27977">
        <ele>1346.091</ele>
        <time>2014-09-13T08:36:43Z</time>
      </trkpt>
      <trkpt lat="42.96424" lon="0.27978">
        <ele>1348.167</ele>
        <time>2014-09-13T08:36:51Z</time>
      </trkpt>
      <trkpt lat="42.96415" lon="0.27978">
        <ele>1349.299</ele>
        <time>2014-09-13T08:36:56Z</time>
      </trkpt>
      <trkpt lat="42.96391" lon="0.27978">
        <ele>1351.717</ele>
        <time>2014-09-13T08:37:06Z</time>
      </trkpt>
      <trkpt lat="42.96374" lon="0.27985">
        <ele>1353.612</ele>
        <time>2014-09-13T08:37:14Z</time>
      </trkpt>
      <trkpt lat="42.96369" lon="0.27997">
        <ele>1354.815</ele>
        <time>2014-09-13T08:37:19Z</time>
      </trkpt>
      <trkpt lat="42.96376" lon="0.28007">
        <ele>1356.219</ele>
        <time>2014-09-13T08:37:25Z</time>
      </trkpt>
      <trkpt lat="42.96394" lon="0.28011">
        <ele>1357.614</ele>
        <time>2014-09-13T08:37:33Z</time>
      </trkpt>
      <trkpt lat="42.96411" lon="0.28019">
        <ele>1358.97</ele>
        <time>2014-09-13T08:37:40Z</time>
      </trkpt>
      <trkpt lat="42.96422" lon="0.2803">
        <ele>1359.998</ele>
        <time>2014-09-13T08:37:46Z</time>
      </trkpt>
      <trkpt lat="42.96437" lon="0.28052">
        <ele>1361.231</ele>
        <time>2014-09-13T08:37:55Z</time>
      </trkpt>
      <trkpt lat="42.96444" lon="0.28068">
        <ele>1362.273</ele>
        <time>2014-09-13T08:38:01Z</time>
      </trkpt>
      <trkpt lat="42.96454" lon="0.28087">
        <ele>1364.152</ele>
        <time>2014-09-13T08:38:09Z</time>
      </trkpt>
      <trkpt lat="42.96469" lon="0.28108">
        <ele>1366.489</ele>
        <time>2014-09-13T08:38:18Z</time>
      </trkpt>
      <trkpt lat="42.9648" lon="0.28122">
        <ele>1367.901</ele>
        <time>2014-09-13T08:38:25Z</time>
      </trkpt>
      <trkpt lat="42.96488" lon="0.28132">
        <ele>1369.181</ele>
        <time>2014-09-13T08:38:31Z</time>
      </trkpt>
      <trkpt lat="42.96497" lon="0.28147">
        <ele>1370.992</ele>
        <time>2014-09-13T08:38:38Z</time>
      </trkpt>
      <trkpt lat="42.96507" lon="0.28165">
        <ele>1372.531</ele>
        <time>2014-09-13T08:38:46Z</time>
      </trkpt>
      <trkpt lat="42.96518" lon="0.28184">
        <ele>1374.482</ele>
        <time>2014-09-13T08:38:54Z</time>
      </trkpt>
      <trkpt lat="42.96531" lon="0.28201">
        <ele>1376.639</ele>
        <time>2014-09-13T08:39:02Z</time>
      </trkpt>
      <trkpt lat="42.96544" lon="0.28222">
        <ele>1378.805</ele>
        <time>2014-09-13T08:39:12Z</time>
      </trkpt>
      <trkpt lat="42.96555" lon="0.28241">
        <ele>1380.726</ele>
        <time>2014-09-13T08:39:21Z</time>
      </trkpt>
      <trkpt lat="42.96566" lon="0.28259">
        <ele>1382.572</ele>
        <time>2014-09-13T08:39:29Z</time>
      </trkpt>
      <trkpt lat="42.96579" lon="0.28277">
        <ele>1383.972</ele>
        <time>2014-09-13T08:39:37Z</time>
      </trkpt>
      <trkpt lat="42.96588" lon="0.28293">
        <ele>1385.594</ele>
        <time>2014-09-13T08:39:44Z</time>
      </trkpt>
      <trkpt lat="42.96598" lon="0.28312">
        <ele>1387.954</ele>
        <time>2014-09-13T08:39:53Z</time>
      </trkpt>
      <trkpt lat="42.96611" lon="0.28326">
        <ele>1390.244</ele>
        <time>2014-09-13T08:40:02Z</time>
      </trkpt>
      <trkpt lat="42.96619" lon="0.28338">
        <ele>1391.975</ele>
        <time>2014-09-13T08:40:08Z</time>
      </trkpt>
      <trkpt lat="42.96625" lon="0.28352">
        <ele>1393.53</ele>
        <time>2014-09-13T08:40:14Z</time>
      </trkpt>
      <trkpt lat="42.96627" lon="0.28355">
        <ele>1393.688</ele>
        <time>2014-09-13T08:40:15Z</time>
      </trkpt>
      <trkpt lat="42.96642" lon="0.28371">
        <ele>1395.362</ele>
        <time>2014-09-13T08:40:22Z</time>
      </trkpt>
      <trkpt lat="42.96652" lon="0.28385">
        <ele>1396.885</ele>
        <time>2014-09-13T08:40:29Z</time>
      </trkpt>
      <trkpt lat="42.96662" lon="0.284">
        <ele>1398.583</ele>
        <time>2014-09-13T08:40:37Z</time>
      </trkpt>
      <trkpt lat="42.96672" lon="0.28417">
        <ele>1400.324</ele>
        <time>2014-09-13T08:40:46Z</time>
      </trkpt>
      <trkpt lat="42.96681" lon="0.28433">
        <ele>1402.311</ele>
        <time>2014-09-13T08:40:55Z</time>
      </trkpt>
      <trkpt lat="42.96688" lon="0.28449">
        <ele>1404.576</ele>
        <time>2014-09-13T08:41:03Z</time>
      </trkpt>
      <trkpt lat="42.96694" lon="0.28463">
        <ele>1406.337</ele>
        <time>2014-09-13T08:41:09Z</time>
      </trkpt>
      <trkpt lat="42.96702" lon="0.2848">
        <ele>1407.654</ele>
        <time>2014-09-13T08:41:15Z</time>
      </trkpt>
      <trkpt lat="42.96709" lon="0.28498">
        <ele>1408.783</ele>
        <time>2014-09-13T08:41:22Z</time>
      </trkpt>
      <trkpt lat="42.96717" lon="0.28518">
        <ele>1410.329</ele>
        <time>2014-09-13T08:41:30Z</time>
      </trkpt>
      <trkpt lat="42.96719" lon="0.28539">
        <ele>1412.167</ele>
        <time>2014-09-13T08:41:38Z</time>
      </trkpt>
      <trkpt lat="42.96723" lon="0.28561">
        <ele>1413.822</ele>
        <time>2014-09-13T08:41:46Z</time>
      </trkpt>
      <trkpt lat="42.96725" lon="0.28581">
        <ele>1415.663</ele>
        <time>2014-09-13T08:41:53Z</time>
      </trkpt>
      <trkpt lat="42.96732" lon="0.28594">
        <ele>1417.078</ele>
        <time>2014-09-13T08:41:59Z</time>
      </trkpt>
      <trkpt lat="42.96739" lon="0.28593">
        <ele>1418.168</ele>
        <time>2014-09-13T08:42:04Z</time>
      </trkpt>
      <trkpt lat="42.96752" lon="0.28585">
        <ele>1419.568</ele>
        <time>2014-09-13T08:42:11Z</time>
      </trkpt>
      <trkpt lat="42.96764" lon="0.28578">
        <ele>1420.787</ele>
        <time>2014-09-13T08:42:18Z</time>
      </trkpt>
      <trkpt lat="42.96782" lon="0.28576">
        <ele>1422.359</ele>
        <time>2014-09-13T08:42:26Z</time>
      </trkpt>
      <trkpt lat="42.96791" lon="0.28582">
        <ele>1423.299</ele>
        <time>2014-09-13T08:42:32Z</time>
      </trkpt>
      <trkpt lat="42.96788" lon="0.2859">
        <ele>1424.004</ele>
        <time>2014-09-13T08:42:36Z</time>
      </trkpt>
      <trkpt lat="42.96775" lon="0.28598">
        <ele>1425.604</ele>
        <time>2014-09-13T08:42:44Z</time>
      </trkpt>
      <trkpt lat="42.96762" lon="0.28606">
        <ele>1426.902</ele>
        <time>2014-09-13T08:42:53Z</time>
      </trkpt>
      <trkpt lat="42.96753" lon="0.28616">
        <ele>1427.605</ele>
        <time>2014-09-13T08:43:00Z</time>
      </trkpt>
      <trkpt lat="42.96742" lon="0.28625">
        <ele>1428.693</ele>
        <time>2014-09-13T08:43:07Z</time>
      </trkpt>
      <trkpt lat="42.96732" lon="0.28634">
        <ele>1429.64</ele>
        <time>2014-09-13T08:43:15Z</time>
      </trkpt>
      <trkpt lat="42.96728" lon="0.28648">
        <ele>1430.607</ele>
        <time>2014-09-13T08:43:22Z</time>
      </trkpt>
      <trkpt lat="42.96728" lon="0.28652">
        <ele>1430.928</ele>
        <time>2014-09-13T08:43:24Z</time>
      </trkpt>
      <trkpt lat="42.96734" lon="0.28657">
        <ele>1432.076</ele>
        <time>2014-09-13T08:43:30Z</time>
      </trkpt>
      <trkpt lat="42.96738" lon="0.28653">
        <ele>1432.763</ele>
        <time>2014-09-13T08:43:34Z</time>
      </trkpt>
      <trkpt lat="42.9675" lon="0.28646">
        <ele>1434.02</ele>
        <time>2014-09-13T08:43:43Z</time>
      </trkpt>
      <trkpt lat="42.96765" lon="0.28638">
        <ele>1435.436</ele>
        <time>2014-09-13T08:43:53Z</time>
      </trkpt>
      <trkpt lat="42.96779" lon="0.28636">
        <ele>1436.211</ele>
        <time>2014-09-13T08:44:01Z</time>
      </trkpt>
      <trkpt lat="42.96788" lon="0.28637">
        <ele>1437.078</ele>
        <time>2014-09-13T08:44:08Z</time>
      </trkpt>
      <trkpt lat="42.96801" lon="0.28641">
        <ele>1438.184</ele>
        <time>2014-09-13T08:44:16Z</time>
      </trkpt>
      <trkpt lat="42.96811" lon="0.28643">
        <ele>1439.076</ele>
        <time>2014-09-13T08:44:23Z</time>
      </trkpt>
      <trkpt lat="42.96821" lon="0.28645">
        <ele>1440.268</ele>
        <time>2014-09-13T08:44:31Z</time>
      </trkpt>
      <trkpt lat="42.96827" lon="0.28643">
        <ele>1441.256</ele>
        <time>2014-09-13T08:44:38Z</time>
      </trkpt>
      <trkpt lat="42.9683" lon="0.28642">
        <ele>1441.769</ele>
        <time>2014-09-13T08:44:41Z</time>
      </trkpt>
      <trkpt lat="42.96843" lon="0.28644">
        <ele>1442.925</ele>
        <time>2014-09-13T08:44:49Z</time>
      </trkpt>
      <trkpt lat="42.96851" lon="0.28644">
        <ele>1443.868</ele>
        <time>2014-09-13T08:44:55Z</time>
      </trkpt>
      <trkpt lat="42.96863" lon="0.28645">
        <ele>1444.945</ele>
        <time>2014-09-13T08:45:04Z</time>
      </trkpt>
      <trkpt lat="42.96868" lon="0.28644">
        <ele>1445.589</ele>
        <time>2014-09-13T08:45:09Z</time>
      </trkpt>
      <trkpt lat="42.96869" lon="0.28645">
        <ele>1446.466</ele>
        <time>2014-09-13T08:48:07Z</time>
      </trkpt>
      <trkpt lat="42.96871" lon="0.28645">
        <ele>1446.453</ele>
        <time>2014-09-13T08:48:08Z</time>
      </trkpt>
      <trkpt lat="42.96884" lon="0.28643">
        <ele>1447.084</ele>
        <time>2014-09-13T08:48:15Z</time>
      </trkpt>
      <trkpt lat="42.96902" lon="0.28643">
        <ele>1449.363</ele>
        <time>2014-09-13T08:48:23Z</time>
      </trkpt>
      <trkpt lat="42.9692" lon="0.28642">
        <ele>1451.219</ele>
        <time>2014-09-13T08:48:30Z</time>
      </trkpt>
      <trkpt lat="42.96935" lon="0.28641">
        <ele>1452.941</ele>
        <time>2014-09-13T08:48:36Z</time>
      </trkpt>
      <trkpt lat="42.96946" lon="0.28645">
        <ele>1454.353</ele>
        <time>2014-09-13T08:48:41Z</time>
      </trkpt>
      <trkpt lat="42.96942" lon="0.2866">
        <ele>1455.921</ele>
        <time>2014-09-13T08:48:46Z</time>
      </trkpt>
      <trkpt lat="42.96938" lon="0.28665">
        <ele>1456.499</ele>
        <time>2014-09-13T08:48:48Z</time>
      </trkpt>
      <trkpt lat="42.96915" lon="0.28673">
        <ele>1458.093</ele>
        <time>2014-09-13T08:48:56Z</time>
      </trkpt>
      <trkpt lat="42.96888" lon="0.28682">
        <ele>1459.711</ele>
        <time>2014-09-13T08:49:05Z</time>
      </trkpt>
      <trkpt lat="42.96866" lon="0.28695">
        <ele>1461.063</ele>
        <time>2014-09-13T08:49:13Z</time>
      </trkpt>
      <trkpt lat="42.96847" lon="0.28702">
        <ele>1462.042</ele>
        <time>2014-09-13T08:49:19Z</time>
      </trkpt>
      <trkpt lat="42.96835" lon="0.28712">
        <ele>1463.315</ele>
        <time>2014-09-13T08:49:24Z</time>
      </trkpt>
      <trkpt lat="42.96817" lon="0.28726">
        <ele>1465.084</ele>
        <time>2014-09-13T08:49:32Z</time>
      </trkpt>
      <trkpt lat="42.96797" lon="0.28738">
        <ele>1467.239</ele>
        <time>2014-09-13T08:49:39Z</time>
      </trkpt>
      <trkpt lat="42.96779" lon="0.28752">
        <ele>1469.26</ele>
        <time>2014-09-13T08:49:47Z</time>
      </trkpt>
      <trkpt lat="42.96769" lon="0.28764">
        <ele>1470.893</ele>
        <time>2014-09-13T08:49:53Z</time>
      </trkpt>
      <trkpt lat="42.96755" lon="0.28777">
        <ele>1472.27</ele>
        <time>2014-09-13T08:49:59Z</time>
      </trkpt>
      <trkpt lat="42.96736" lon="0.28796">
        <ele>1474.166</ele>
        <time>2014-09-13T08:50:08Z</time>
      </trkpt>
      <trkpt lat="42.96719" lon="0.28812">
        <ele>1476.443</ele>
        <time>2014-09-13T08:50:16Z</time>
      </trkpt>
      <trkpt lat="42.96702" lon="0.28834">
        <ele>1479.126</ele>
        <time>2014-09-13T08:50:26Z</time>
      </trkpt>
      <trkpt lat="42.96685" lon="0.28852">
        <ele>1481.322</ele>
        <time>2014-09-13T08:50:35Z</time>
      </trkpt>
      <trkpt lat="42.96671" lon="0.28867">
        <ele>1483.625</ele>
        <time>2014-09-13T08:50:43Z</time>
      </trkpt>
      <trkpt lat="42.96655" lon="0.28886">
        <ele>1485.802</ele>
        <time>2014-09-13T08:50:52Z</time>
      </trkpt>
      <trkpt lat="42.96635" lon="0.28907">
        <ele>1487.428</ele>
        <time>2014-09-13T08:51:01Z</time>
      </trkpt>
      <trkpt lat="42.96615" lon="0.28929">
        <ele>1489.394</ele>
        <time>2014-09-13T08:51:10Z</time>
      </trkpt>
      <trkpt lat="42.96602" lon="0.28949">
        <ele>1490.542</ele>
        <time>2014-09-13T08:51:17Z</time>
      </trkpt>
      <trkpt lat="42.96578" lon="0.28986">
        <ele>1492.066</ele>
        <time>2014-09-13T08:51:28Z</time>
      </trkpt>
      <trkpt lat="42.96559" lon="0.29015">
        <ele>1492.257</ele>
        <time>2014-09-13T08:51:35Z</time>
      </trkpt>
      <trkpt lat="42.96546" lon="0.29041">
        <ele>1491.782</ele>
        <time>2014-09-13T08:51:40Z</time>
      </trkpt>
      <trkpt lat="42.96537" lon="0.29067">
        <ele>1491.14</ele>
        <time>2014-09-13T08:51:44Z</time>
      </trkpt>
      <trkpt lat="42.96529" lon="0.29094">
        <ele>1490.45</ele>
        <time>2014-09-13T08:51:48Z</time>
      </trkpt>
      <trkpt lat="42.96522" lon="0.2915">
        <ele>1488.923</ele>
        <time>2014-09-13T08:51:55Z</time>
      </trkpt>
      <trkpt lat="42.96522" lon="0.29158">
        <ele>1488.756</ele>
        <time>2014-09-13T08:51:56Z</time>
      </trkpt>
      <trkpt lat="42.96507" lon="0.29197">
        <ele>1487.405</ele>
        <time>2014-09-13T08:52:01Z</time>
      </trkpt>
      <trkpt lat="42.96497" lon="0.29209">
        <ele>1486.788</ele>
        <time>2014-09-13T08:52:03Z</time>
      </trkpt>
      <trkpt lat="42.96464" lon="0.29233">
        <ele>1484.532</ele>
        <time>2014-09-13T08:52:08Z</time>
      </trkpt>
      <trkpt lat="42.96445" lon="0.29262">
        <ele>1482.938</ele>
        <time>2014-09-13T08:52:12Z</time>
      </trkpt>
      <trkpt lat="42.96441" lon="0.29282">
        <ele>1481.997</ele>
        <time>2014-09-13T08:52:14Z</time>
      </trkpt>
      <trkpt lat="42.96437" lon="0.29359">
        <ele>1477.749</ele>
        <time>2014-09-13T08:52:21Z</time>
      </trkpt>
      <trkpt lat="42.96445" lon="0.29388">
        <ele>1474.706</ele>
        <time>2014-09-13T08:52:25Z</time>
      </trkpt>
      <trkpt lat="42.96461" lon="0.29397">
        <ele>1472.622</ele>
        <time>2014-09-13T08:52:28Z</time>
      </trkpt>
      <trkpt lat="42.96504" lon="0.29397">
        <ele>1468.963</ele>
        <time>2014-09-13T08:52:34Z</time>
      </trkpt>
      <trkpt lat="42.96523" lon="0.29401">
        <ele>1466.832</ele>
        <time>2014-09-13T08:52:38Z</time>
      </trkpt>
      <trkpt lat="42.96539" lon="0.29414">
        <ele>1464.238</ele>
        <time>2014-09-13T08:52:42Z</time>
      </trkpt>
      <trkpt lat="42.9655" lon="0.29439">
        <ele>1461.911</ele>
        <time>2014-09-13T08:52:46Z</time>
      </trkpt>
      <trkpt lat="42.96548" lon="0.29455">
        <ele>1460.08</ele>
        <time>2014-09-13T08:52:49Z</time>
      </trkpt>
      <trkpt lat="42.96545" lon="0.29461">
        <ele>1459.491</ele>
        <time>2014-09-13T08:52:50Z</time>
      </trkpt>
      <trkpt lat="42.96532" lon="0.29495">
        <ele>1456.919</ele>
        <time>2014-09-13T08:52:55Z</time>
      </trkpt>
      <trkpt lat="42.96527" lon="0.29527">
        <ele>1454.57</ele>
        <time>2014-09-13T08:52:59Z</time>
      </trkpt>
      <trkpt lat="42.96518" lon="0.29524">
        <ele>1452.617</ele>
        <time>2014-09-13T08:53:03Z</time>
      </trkpt>
      <trkpt lat="42.96513" lon="0.29509">
        <ele>1449.664</ele>
        <time>2014-09-13T08:53:07Z</time>
      </trkpt>
      <trkpt lat="42.9651" lon="0.2949">
        <ele>1447.265</ele>
        <time>2014-09-13T08:53:12Z</time>
      </trkpt>
      <trkpt lat="42.96509" lon="0.29482">
        <ele>1446.817</ele>
        <time>2014-09-13T08:53:14Z</time>
      </trkpt>
      <trkpt lat="42.96504" lon="0.29484">
        <ele>1446.06</ele>
        <time>2014-09-13T08:53:17Z</time>
      </trkpt>
      <trkpt lat="42.96499" lon="0.29504">
        <ele>1444.297</ele>
        <time>2014-09-13T08:53:22Z</time>
      </trkpt>
      <trkpt lat="42.96492" lon="0.29513">
        <ele>1443.305</ele>
        <time>2014-09-13T08:53:24Z</time>
      </trkpt>
      <trkpt lat="42.96475" lon="0.29556">
        <ele>1440.217</ele>
        <time>2014-09-13T08:53:29Z</time>
      </trkpt>
      <trkpt lat="42.96469" lon="0.29598">
        <ele>1436.292</ele>
        <time>2014-09-13T08:53:33Z</time>
      </trkpt>
      <trkpt lat="42.96457" lon="0.29612">
        <ele>1434.526</ele>
        <time>2014-09-13T08:53:35Z</time>
      </trkpt>
      <trkpt lat="42.96424" lon="0.29654">
        <ele>1431</ele>
        <time>2014-09-13T08:53:41Z</time>
      </trkpt>
      <trkpt lat="42.96414" lon="0.29686">
        <ele>1429.038</ele>
        <time>2014-09-13T08:53:45Z</time>
      </trkpt>
      <trkpt lat="42.96409" lon="0.29743">
        <ele>1426.761</ele>
        <time>2014-09-13T08:53:52Z</time>
      </trkpt>
      <trkpt lat="42.96402" lon="0.29795">
        <ele>1425.133</ele>
        <time>2014-09-13T08:53:58Z</time>
      </trkpt>
      <trkpt lat="42.96397" lon="0.29863">
        <ele>1422.952</ele>
        <time>2014-09-13T08:54:05Z</time>
      </trkpt>
      <trkpt lat="42.96393" lon="0.29905">
        <ele>1421.263</ele>
        <time>2014-09-13T08:54:09Z</time>
      </trkpt>
      <trkpt lat="42.96392" lon="0.29952">
        <ele>1419.163</ele>
        <time>2014-09-13T08:54:13Z</time>
      </trkpt>
      <trkpt lat="42.96405" lon="0.30002">
        <ele>1416.692</ele>
        <time>2014-09-13T08:54:18Z</time>
      </trkpt>
      <trkpt lat="42.96411" lon="0.30026">
        <ele>1415.138</ele>
        <time>2014-09-13T08:54:20Z</time>
      </trkpt>
      <trkpt lat="42.96416" lon="0.30092">
        <ele>1411.369</ele>
        <time>2014-09-13T08:54:25Z</time>
      </trkpt>
      <trkpt lat="42.96422" lon="0.30161">
        <ele>1407.66</ele>
        <time>2014-09-13T08:54:30Z</time>
      </trkpt>
      <trkpt lat="42.96437" lon="0.30224">
        <ele>1403.383</ele>
        <time>2014-09-13T08:54:35Z</time>
      </trkpt>
      <trkpt lat="42.96442" lon="0.30277">
        <ele>1399.336</ele>
        <time>2014-09-13T08:54:39Z</time>
      </trkpt>
      <trkpt lat="42.96441" lon="0.30301">
        <ele>1398.354</ele>
        <time>2014-09-13T08:54:41Z</time>
      </trkpt>
      <trkpt lat="42.96439" lon="0.3033">
        <ele>1395.106</ele>
        <time>2014-09-13T08:54:44Z</time>
      </trkpt>
      <trkpt lat="42.9643" lon="0.30349">
        <ele>1391.159</ele>
        <time>2014-09-13T08:54:48Z</time>
      </trkpt>
      <trkpt lat="42.96423" lon="0.30363">
        <ele>1389.164</ele>
        <time>2014-09-13T08:54:52Z</time>
      </trkpt>
      <trkpt lat="42.9642" lon="0.30391">
        <ele>1389.84</ele>
        <time>2014-09-13T08:55:00Z</time>
      </trkpt>
      <trkpt lat="42.96412" lon="0.30421">
        <ele>1392.136</ele>
        <time>2014-09-13T08:55:09Z</time>
      </trkpt>
      <trkpt lat="42.96409" lon="0.30435">
        <ele>1393.472</ele>
        <time>2014-09-13T08:55:13Z</time>
      </trkpt>
      <trkpt lat="42.9641" lon="0.30457">
        <ele>1395.104</ele>
        <time>2014-09-13T08:55:19Z</time>
      </trkpt>
      <trkpt lat="42.96416" lon="0.30479">
        <ele>1396.292</ele>
        <time>2014-09-13T08:55:25Z</time>
      </trkpt>
      <trkpt lat="42.96422" lon="0.30497">
        <ele>1397.305</ele>
        <time>2014-09-13T08:55:30Z</time>
      </trkpt>
      <trkpt lat="42.96427" lon="0.30522">
        <ele>1398.567</ele>
        <time>2014-09-13T08:55:37Z</time>
      </trkpt>
      <trkpt lat="42.96426" lon="0.30555">
        <ele>1400.894</ele>
        <time>2014-09-13T08:55:46Z</time>
      </trkpt>
      <trkpt lat="42.96428" lon="0.30584">
        <ele>1402.8</ele>
        <time>2014-09-13T08:55:54Z</time>
      </trkpt>
      <trkpt lat="42.96432" lon="0.30618">
        <ele>1404.502</ele>
        <time>2014-09-13T08:56:03Z</time>
      </trkpt>
      <trkpt lat="42.96425" lon="0.30648">
        <ele>1406.044</ele>
        <time>2014-09-13T08:56:11Z</time>
      </trkpt>
      <trkpt lat="42.96418" lon="0.30682">
        <ele>1407.611</ele>
        <time>2014-09-13T08:56:20Z</time>
      </trkpt>
      <trkpt lat="42.9642" lon="0.30712">
        <ele>1408.996</ele>
        <time>2014-09-13T08:56:28Z</time>
      </trkpt>
      <trkpt lat="42.96418" lon="0.30743">
        <ele>1410.431</ele>
        <time>2014-09-13T08:56:36Z</time>
      </trkpt>
      <trkpt lat="42.96406" lon="0.30764">
        <ele>1411.27</ele>
        <time>2014-09-13T08:56:42Z</time>
      </trkpt>
      <trkpt lat="42.9638" lon="0.30781">
        <ele>1412.063</ele>
        <time>2014-09-13T08:56:50Z</time>
      </trkpt>
      <trkpt lat="42.9635" lon="0.30796">
        <ele>1412.888</ele>
        <time>2014-09-13T08:56:59Z</time>
      </trkpt>
      <trkpt lat="42.96325" lon="0.30818">
        <ele>1414.695</ele>
        <time>2014-09-13T08:57:08Z</time>
      </trkpt>
      <trkpt lat="42.96307" lon="0.30844">
        <ele>1415.955</ele>
        <time>2014-09-13T08:57:16Z</time>
      </trkpt>
      <trkpt lat="42.96288" lon="0.30877">
        <ele>1417.317</ele>
        <time>2014-09-13T08:57:26Z</time>
      </trkpt>
      <trkpt lat="42.96284" lon="0.30884">
        <ele>1417.483</ele>
        <time>2014-09-13T08:57:29Z</time>
      </trkpt>
      <trkpt lat="42.96274" lon="0.30884">
        <ele>1417.603</ele>
        <time>2014-09-13T08:57:34Z</time>
      </trkpt>
      <trkpt lat="42.96265" lon="0.30879">
        <ele>1417.681</ele>
        <time>2014-09-13T08:57:42Z</time>
      </trkpt>
      <trkpt lat="42.96264" lon="0.30879">
        <ele>1417.747</ele>
        <time>2014-09-13T08:57:43Z</time>
      </trkpt>
      <trkpt lat="42.96267" lon="0.30874">
        <ele>1418.118</ele>
        <time>2014-09-13T08:58:32Z</time>
      </trkpt>
      <trkpt lat="42.96267" lon="0.30874">
        <ele>1418.111</ele>
        <time>2014-09-13T08:58:33Z</time>
      </trkpt>
      <trkpt lat="42.96262" lon="0.30869">
        <ele>1418.574</ele>
        <time>2014-09-13T08:59:42Z</time>
      </trkpt>
      <trkpt lat="42.96257" lon="0.30866">
        <ele>1418.064</ele>
        <time>2014-09-13T08:59:48Z</time>
      </trkpt>
      <trkpt lat="42.96259" lon="0.3087">
        <ele>1417.971</ele>
        <time>2014-09-13T08:59:51Z</time>
      </trkpt>
      <trkpt lat="42.96262" lon="0.30874">
        <ele>1418.089</ele>
        <time>2014-09-13T08:59:56Z</time>
      </trkpt>
      <trkpt lat="42.96261" lon="0.30865">
        <ele>1418.834</ele>
        <time>2014-09-13T09:01:12Z</time>
      </trkpt>
      <trkpt lat="42.96255" lon="0.30862">
        <ele>1418.41</ele>
        <time>2014-09-13T09:01:16Z</time>
      </trkpt>
      <trkpt lat="42.96246" lon="0.30851">
        <ele>1418.426</ele>
        <time>2014-09-13T09:01:24Z</time>
      </trkpt>
      <trkpt lat="42.96234" lon="0.30837">
        <ele>1419.121</ele>
        <time>2014-09-13T09:01:34Z</time>
      </trkpt>
      <trkpt lat="42.96222" lon="0.30825">
        <ele>1419.516</ele>
        <time>2014-09-13T09:01:41Z</time>
      </trkpt>
      <trkpt lat="42.9621" lon="0.30813">
        <ele>1420.873</ele>
        <time>2014-09-13T09:01:47Z</time>
      </trkpt>
      <trkpt lat="42.96195" lon="0.30799">
        <ele>1421.763</ele>
        <time>2014-09-13T09:01:54Z</time>
      </trkpt>
      <trkpt lat="42.96178" lon="0.30781">
        <ele>1422.8</ele>
        <time>2014-09-13T09:02:03Z</time>
      </trkpt>
      <trkpt lat="42.96164" lon="0.30767">
        <ele>1423.492</ele>
        <time>2014-09-13T09:02:11Z</time>
      </trkpt>
      <trkpt lat="42.96152" lon="0.30754">
        <ele>1424.24</ele>
        <time>2014-09-13T09:02:18Z</time>
      </trkpt>
      <trkpt lat="42.96141" lon="0.30743">
        <ele>1425.616</ele>
        <time>2014-09-13T09:02:25Z</time>
      </trkpt>
      <trkpt lat="42.96139" lon="0.30742">
        <ele>1425.997</ele>
        <time>2014-09-13T09:02:27Z</time>
      </trkpt>
      <trkpt lat="42.96135" lon="0.30745">
        <ele>1427.065</ele>
        <time>2014-09-13T09:02:34Z</time>
      </trkpt>
      <trkpt lat="42.96131" lon="0.30743">
        <ele>1427.69</ele>
        <time>2014-09-13T09:02:40Z</time>
      </trkpt>
      <trkpt lat="42.96131" lon="0.30742">
        <ele>1428.088</ele>
        <time>2014-09-13T09:02:45Z</time>
      </trkpt>
      <trkpt lat="42.96124" lon="0.30729">
        <ele>1427.949</ele>
        <time>2014-09-13T09:02:55Z</time>
      </trkpt>
      <trkpt lat="42.96123" lon="0.30719">
        <ele>1429.207</ele>
        <time>2014-09-13T09:03:03Z</time>
      </trkpt>
      <trkpt lat="42.96115" lon="0.30713">
        <ele>1430.26</ele>
        <time>2014-09-13T09:03:09Z</time>
      </trkpt>
      <trkpt lat="42.96108" lon="0.30702">
        <ele>1431.755</ele>
        <time>2014-09-13T09:03:18Z</time>
      </trkpt>
      <trkpt lat="42.96098" lon="0.30694">
        <ele>1433.633</ele>
        <time>2014-09-13T09:03:25Z</time>
      </trkpt>
      <trkpt lat="42.96089" lon="0.30686">
        <ele>1434.709</ele>
        <time>2014-09-13T09:03:32Z</time>
      </trkpt>
      <trkpt lat="42.96081" lon="0.30678">
        <ele>1436.11</ele>
        <time>2014-09-13T09:03:40Z</time>
      </trkpt>
      <trkpt lat="42.96079" lon="0.30669">
        <ele>1437.277</ele>
        <time>2014-09-13T09:03:48Z</time>
      </trkpt>
      <trkpt lat="42.96068" lon="0.3066">
        <ele>1438.337</ele>
        <time>2014-09-13T09:03:55Z</time>
      </trkpt>
      <trkpt lat="42.96061" lon="0.30654">
        <ele>1439.115</ele>
        <time>2014-09-13T09:04:01Z</time>
      </trkpt>
      <trkpt lat="42.96049" lon="0.30644">
        <ele>1440.42</ele>
        <time>2014-09-13T09:04:09Z</time>
      </trkpt>
      <trkpt lat="42.96042" lon="0.30635">
        <ele>1441.463</ele>
        <time>2014-09-13T09:04:16Z</time>
      </trkpt>
      <trkpt lat="42.9604" lon="0.3063">
        <ele>1442.006</ele>
        <time>2014-09-13T09:04:21Z</time>
      </trkpt>
      <trkpt lat="42.96037" lon="0.30622">
        <ele>1442.906</ele>
        <time>2014-09-13T09:04:28Z</time>
      </trkpt>
      <trkpt lat="42.96016" lon="0.3061">
        <ele>1444.932</ele>
        <time>2014-09-13T09:04:40Z</time>
      </trkpt>
      <trkpt lat="42.96003" lon="0.306">
        <ele>1446.753</ele>
        <time>2014-09-13T09:04:50Z</time>
      </trkpt>
      <trkpt lat="42.95994" lon="0.30592">
        <ele>1447.979</ele>
        <time>2014-09-13T09:04:58Z</time>
      </trkpt>
      <trkpt lat="42.95982" lon="0.30582">
        <ele>1450.414</ele>
        <time>2014-09-13T09:05:09Z</time>
      </trkpt>
      <trkpt lat="42.95976" lon="0.30577">
        <ele>1451.781</ele>
        <time>2014-09-13T09:05:15Z</time>
      </trkpt>
      <trkpt lat="42.95968" lon="0.30571">
        <ele>1454.038</ele>
        <time>2014-09-13T09:05:23Z</time>
      </trkpt>
      <trkpt lat="42.95964" lon="0.30569">
        <ele>1455.007</ele>
        <time>2014-09-13T09:05:27Z</time>
      </trkpt>
      <trkpt lat="42.95959" lon="0.30563">
        <ele>1456.976</ele>
        <time>2014-09-13T09:05:34Z</time>
      </trkpt>
      <trkpt lat="42.95955" lon="0.30557">
        <ele>1458.681</ele>
        <time>2014-09-13T09:05:41Z</time>
      </trkpt>
      <trkpt lat="42.95949" lon="0.30553">
        <ele>1460.02</ele>
        <time>2014-09-13T09:05:47Z</time>
      </trkpt>
      <trkpt lat="42.95948" lon="0.3055">
        <ele>1461.104</ele>
        <time>2014-09-13T09:05:52Z</time>
      </trkpt>
      <trkpt lat="42.95944" lon="0.30546">
        <ele>1462.223</ele>
        <time>2014-09-13T09:05:57Z</time>
      </trkpt>
      <trkpt lat="42.95932" lon="0.30539">
        <ele>1463.802</ele>
        <time>2014-09-13T09:06:05Z</time>
      </trkpt>
      <trkpt lat="42.95923" lon="0.30529">
        <ele>1465.515</ele>
        <time>2014-09-13T09:06:15Z</time>
      </trkpt>
      <trkpt lat="42.95916" lon="0.30522">
        <ele>1467.021</ele>
        <time>2014-09-13T09:06:23Z</time>
      </trkpt>
      <trkpt lat="42.9591" lon="0.30515">
        <ele>1468.219</ele>
        <time>2014-09-13T09:06:31Z</time>
      </trkpt>
      <trkpt lat="42.95901" lon="0.30506">
        <ele>1469.821</ele>
        <time>2014-09-13T09:06:40Z</time>
      </trkpt>
      <trkpt lat="42.95895" lon="0.30501">
        <ele>1471.202</ele>
        <time>2014-09-13T09:06:46Z</time>
      </trkpt>
      <trkpt lat="42.95888" lon="0.30493">
        <ele>1473.255</ele>
        <time>2014-09-13T09:06:55Z</time>
      </trkpt>
      <trkpt lat="42.95879" lon="0.30487">
        <ele>1474.96</ele>
        <time>2014-09-13T09:07:02Z</time>
      </trkpt>
      <trkpt lat="42.95874" lon="0.30484">
        <ele>1475.953</ele>
        <time>2014-09-13T09:07:06Z</time>
      </trkpt>
      <trkpt lat="42.9586" lon="0.30479">
        <ele>1478.153</ele>
        <time>2014-09-13T09:07:15Z</time>
      </trkpt>
      <trkpt lat="42.95853" lon="0.30475">
        <ele>1479.487</ele>
        <time>2014-09-13T09:07:21Z</time>
      </trkpt>
      <trkpt lat="42.95848" lon="0.30473">
        <ele>1480.107</ele>
        <time>2014-09-13T09:07:24Z</time>
      </trkpt>
      <trkpt lat="42.95837" lon="0.3047">
        <ele>1481.667</ele>
        <time>2014-09-13T09:07:31Z</time>
      </trkpt>
      <trkpt lat="42.95836" lon="0.30469">
        <ele>1481.861</ele>
        <time>2014-09-13T09:07:32Z</time>
      </trkpt>
      <trkpt lat="42.9582" lon="0.30466">
        <ele>1483.47</ele>
        <time>2014-09-13T09:07:42Z</time>
      </trkpt>
      <trkpt lat="42.95819" lon="0.30466">
        <ele>1483.47</ele>
        <time>2014-09-13T09:07:43Z</time>
      </trkpt>
      <trkpt lat="42.95809" lon="0.30468">
        <ele>1485.154</ele>
        <time>2014-09-13T09:07:51Z</time>
      </trkpt>
      <trkpt lat="42.95806" lon="0.30469">
        <ele>1485.646</ele>
        <time>2014-09-13T09:07:56Z</time>
      </trkpt>
      <trkpt lat="42.95798" lon="0.30481">
        <ele>1485.822</ele>
        <time>2014-09-13T09:08:44Z</time>
      </trkpt>
      <trkpt lat="42.95796" lon="0.30482">
        <ele>1485.751</ele>
        <time>2014-09-13T09:08:45Z</time>
      </trkpt>
      <trkpt lat="42.95789" lon="0.30485">
        <ele>1485.249</ele>
        <time>2014-09-13T09:08:49Z</time>
      </trkpt>
      <trkpt lat="42.95787" lon="0.30486">
        <ele>1485.075</ele>
        <time>2014-09-13T09:08:51Z</time>
      </trkpt>
      <trkpt lat="42.95783" lon="0.30491">
        <ele>1485.292</ele>
        <time>2014-09-13T09:08:56Z</time>
      </trkpt>
      <trkpt lat="42.95777" lon="0.305">
        <ele>1485.691</ele>
        <time>2014-09-13T09:09:03Z</time>
      </trkpt>
      <trkpt lat="42.95764" lon="0.30512">
        <ele>1485.965</ele>
        <time>2014-09-13T09:09:10Z</time>
      </trkpt>
      <trkpt lat="42.95754" lon="0.30527">
        <ele>1485.929</ele>
        <time>2014-09-13T09:09:15Z</time>
      </trkpt>
      <trkpt lat="42.95747" lon="0.3054">
        <ele>1486.018</ele>
        <time>2014-09-13T09:09:20Z</time>
      </trkpt>
      <trkpt lat="42.95741" lon="0.30555">
        <ele>1486.99</ele>
        <time>2014-09-13T09:09:26Z</time>
      </trkpt>
      <trkpt lat="42.95735" lon="0.30567">
        <ele>1487.442</ele>
        <time>2014-09-13T09:09:31Z</time>
      </trkpt>
      <trkpt lat="42.95724" lon="0.30589">
        <ele>1487.52</ele>
        <time>2014-09-13T09:09:37Z</time>
      </trkpt>
      <trkpt lat="42.9572" lon="0.30617">
        <ele>1487.61</ele>
        <time>2014-09-13T09:09:44Z</time>
      </trkpt>
      <trkpt lat="42.95715" lon="0.30642">
        <ele>1487.87</ele>
        <time>2014-09-13T09:09:50Z</time>
      </trkpt>
      <trkpt lat="42.95709" lon="0.30668">
        <ele>1487.737</ele>
        <time>2014-09-13T09:09:55Z</time>
      </trkpt>
      <trkpt lat="42.95708" lon="0.30692">
        <ele>1487.15</ele>
        <time>2014-09-13T09:09:59Z</time>
      </trkpt>
      <trkpt lat="42.9571" lon="0.30743">
        <ele>1486.539</ele>
        <time>2014-09-13T09:10:07Z</time>
      </trkpt>
      <trkpt lat="42.95708" lon="0.30777">
        <ele>1485.978</ele>
        <time>2014-09-13T09:10:13Z</time>
      </trkpt>
      <trkpt lat="42.95701" lon="0.308">
        <ele>1486.025</ele>
        <time>2014-09-13T09:10:17Z</time>
      </trkpt>
      <trkpt lat="42.95685" lon="0.30837">
        <ele>1485.86</ele>
        <time>2014-09-13T09:10:24Z</time>
      </trkpt>
      <trkpt lat="42.9567" lon="0.30859">
        <ele>1486.536</ele>
        <time>2014-09-13T09:10:30Z</time>
      </trkpt>
      <trkpt lat="42.95662" lon="0.30866">
        <ele>1486.882</ele>
        <time>2014-09-13T09:10:32Z</time>
      </trkpt>
      <trkpt lat="42.95643" lon="0.30892">
        <ele>1487.472</ele>
        <time>2014-09-13T09:10:38Z</time>
      </trkpt>
      <trkpt lat="42.95632" lon="0.30914">
        <ele>1487.808</ele>
        <time>2014-09-13T09:10:43Z</time>
      </trkpt>
      <trkpt lat="42.95619" lon="0.30945">
        <ele>1488.096</ele>
        <time>2014-09-13T09:10:49Z</time>
      </trkpt>
      <trkpt lat="42.95617" lon="0.3095">
        <ele>1488.086</ele>
        <time>2014-09-13T09:10:50Z</time>
      </trkpt>
      <trkpt lat="42.95606" lon="0.30987">
        <ele>1488.038</ele>
        <time>2014-09-13T09:10:57Z</time>
      </trkpt>
      <trkpt lat="42.95594" lon="0.31018">
        <ele>1488.334</ele>
        <time>2014-09-13T09:11:04Z</time>
      </trkpt>
      <trkpt lat="42.9558" lon="0.31054">
        <ele>1489.534</ele>
        <time>2014-09-13T09:11:13Z</time>
      </trkpt>
      <trkpt lat="42.95574" lon="0.31076">
        <ele>1490.534</ele>
        <time>2014-09-13T09:11:19Z</time>
      </trkpt>
      <trkpt lat="42.95563" lon="0.31101">
        <ele>1492.207</ele>
        <time>2014-09-13T09:11:27Z</time>
      </trkpt>
      <trkpt lat="42.9555" lon="0.31118">
        <ele>1493.406</ele>
        <time>2014-09-13T09:11:33Z</time>
      </trkpt>
      <trkpt lat="42.95546" lon="0.31127">
        <ele>1494.544</ele>
        <time>2014-09-13T09:11:38Z</time>
      </trkpt>
      <trkpt lat="42.95538" lon="0.31136">
        <ele>1496.515</ele>
        <time>2014-09-13T09:11:45Z</time>
      </trkpt>
      <trkpt lat="42.95535" lon="0.31147">
        <ele>1498.295</ele>
        <time>2014-09-13T09:11:52Z</time>
      </trkpt>
      <trkpt lat="42.95537" lon="0.31161">
        <ele>1499.514</ele>
        <time>2014-09-13T09:11:59Z</time>
      </trkpt>
      <trkpt lat="42.95532" lon="0.31179">
        <ele>1502.285</ele>
        <time>2014-09-13T09:12:08Z</time>
      </trkpt>
      <trkpt lat="42.95531" lon="0.31187">
        <ele>1503.948</ele>
        <time>2014-09-13T09:12:13Z</time>
      </trkpt>
      <trkpt lat="42.9553" lon="0.31199">
        <ele>1506.33</ele>
        <time>2014-09-13T09:12:21Z</time>
      </trkpt>
      <trkpt lat="42.95532" lon="0.31206">
        <ele>1507.851</ele>
        <time>2014-09-13T09:12:26Z</time>
      </trkpt>
      <trkpt lat="42.95526" lon="0.31217">
        <ele>1510.285</ele>
        <time>2014-09-13T09:12:34Z</time>
      </trkpt>
      <trkpt lat="42.95517" lon="0.31227">
        <ele>1511.376</ele>
        <time>2014-09-13T09:12:40Z</time>
      </trkpt>
      <trkpt lat="42.95507" lon="0.31228">
        <ele>1511.771</ele>
        <time>2014-09-13T09:12:46Z</time>
      </trkpt>
      <trkpt lat="42.95505" lon="0.31223">
        <ele>1511.47</ele>
        <time>2014-09-13T09:12:51Z</time>
      </trkpt>
      <trkpt lat="42.95501" lon="0.31221">
        <ele>1511.294</ele>
        <time>2014-09-13T09:12:53Z</time>
      </trkpt>
      <trkpt lat="42.95501" lon="0.31204">
        <ele>1510.275</ele>
        <time>2014-09-13T09:13:00Z</time>
      </trkpt>
      <trkpt lat="42.95502" lon="0.31201">
        <ele>1509.914</ele>
        <time>2014-09-13T09:13:03Z</time>
      </trkpt>
      <trkpt lat="42.95522" lon="0.3119">
        <ele>1509.018</ele>
        <time>2014-09-13T09:13:35Z</time>
      </trkpt>
      <trkpt lat="42.95522" lon="0.31187">
        <ele>1509.009</ele>
        <time>2014-09-13T09:13:36Z</time>
      </trkpt>
      <trkpt lat="42.95514" lon="0.31164">
        <ele>1508.163</ele>
        <time>2014-09-13T09:13:41Z</time>
      </trkpt>
      <trkpt lat="42.95504" lon="0.31133">
        <ele>1507.443</ele>
        <time>2014-09-13T09:13:48Z</time>
      </trkpt>
      <trkpt lat="42.95494" lon="0.31121">
        <ele>1507.477</ele>
        <time>2014-09-13T09:13:52Z</time>
      </trkpt>
      <trkpt lat="42.95475" lon="0.31099">
        <ele>1507.914</ele>
        <time>2014-09-13T09:13:58Z</time>
      </trkpt>
      <trkpt lat="42.9546" lon="0.31087">
        <ele>1507.953</ele>
        <time>2014-09-13T09:14:01Z</time>
      </trkpt>
      <trkpt lat="42.95441" lon="0.31074">
        <ele>1508.004</ele>
        <time>2014-09-13T09:14:05Z</time>
      </trkpt>
      <trkpt lat="42.95427" lon="0.31064">
        <ele>1508.743</ele>
        <time>2014-09-13T09:14:10Z</time>
      </trkpt>
      <trkpt lat="42.95412" lon="0.31051">
        <ele>1509.453</ele>
        <time>2014-09-13T09:14:15Z</time>
      </trkpt>
      <trkpt lat="42.95411" lon="0.31032">
        <ele>1509.467</ele>
        <time>2014-09-13T09:14:19Z</time>
      </trkpt>
      <trkpt lat="42.95396" lon="0.30985">
        <ele>1511.536</ele>
        <time>2014-09-13T09:14:30Z</time>
      </trkpt>
      <trkpt lat="42.95375" lon="0.30946">
        <ele>1513.874</ele>
        <time>2014-09-13T09:14:40Z</time>
      </trkpt>
      <trkpt lat="42.95367" lon="0.3092">
        <ele>1514.553</ele>
        <time>2014-09-13T09:14:46Z</time>
      </trkpt>
      <trkpt lat="42.95345" lon="0.30892">
        <ele>1515.204</ele>
        <time>2014-09-13T09:14:53Z</time>
      </trkpt>
      <trkpt lat="42.95328" lon="0.30876">
        <ele>1515.194</ele>
        <time>2014-09-13T09:14:58Z</time>
      </trkpt>
      <trkpt lat="42.95323" lon="0.30873">
        <ele>1515.298</ele>
        <time>2014-09-13T09:14:59Z</time>
      </trkpt>
      <trkpt lat="42.95311" lon="0.30862">
        <ele>1515.119</ele>
        <time>2014-09-13T09:15:02Z</time>
      </trkpt>
      <trkpt lat="42.95293" lon="0.30849">
        <ele>1514.972</ele>
        <time>2014-09-13T09:15:06Z</time>
      </trkpt>
      <trkpt lat="42.9527" lon="0.3084">
        <ele>1514.531</ele>
        <time>2014-09-13T09:15:11Z</time>
      </trkpt>
      <trkpt lat="42.95238" lon="0.30836">
        <ele>1514.264</ele>
        <time>2014-09-13T09:15:17Z</time>
      </trkpt>
      <trkpt lat="42.95223" lon="0.30826">
        <ele>1513.253</ele>
        <time>2014-09-13T09:15:22Z</time>
      </trkpt>
      <trkpt lat="42.95209" lon="0.3082">
        <ele>1512.507</ele>
        <time>2014-09-13T09:15:27Z</time>
      </trkpt>
      <trkpt lat="42.95207" lon="0.3082">
        <ele>1512.455</ele>
        <time>2014-09-13T09:15:28Z</time>
      </trkpt>
      <trkpt lat="42.95203" lon="0.30816">
        <ele>1512.613</ele>
        <time>2014-09-13T09:15:32Z</time>
      </trkpt>
      <trkpt lat="42.95195" lon="0.30831">
        <ele>1512.718</ele>
        <time>2014-09-13T09:16:11Z</time>
      </trkpt>
      <trkpt lat="42.95192" lon="0.30827">
        <ele>1512.12</ele>
        <time>2014-09-13T09:16:24Z</time>
      </trkpt>
      <trkpt lat="42.95189" lon="0.30824">
        <ele>1512.114</ele>
        <time>2014-09-13T09:16:25Z</time>
      </trkpt>
      <trkpt lat="42.95172" lon="0.30827">
        <ele>1512.059</ele>
        <time>2014-09-13T09:16:30Z</time>
      </trkpt>
      <trkpt lat="42.95168" lon="0.30828">
        <ele>1512.057</ele>
        <time>2014-09-13T09:16:31Z</time>
      </trkpt>
      <trkpt lat="42.95158" lon="0.30828">
        <ele>1511.953</ele>
        <time>2014-09-13T09:16:33Z</time>
      </trkpt>
      <trkpt lat="42.95122" lon="0.30839">
        <ele>1510.194</ele>
        <time>2014-09-13T09:16:39Z</time>
      </trkpt>
      <trkpt lat="42.95103" lon="0.30851">
        <ele>1508.177</ele>
        <time>2014-09-13T09:16:42Z</time>
      </trkpt>
      <trkpt lat="42.9509" lon="0.30864">
        <ele>1505.275</ele>
        <time>2014-09-13T09:16:47Z</time>
      </trkpt>
      <trkpt lat="42.95078" lon="0.30881">
        <ele>1504.213</ele>
        <time>2014-09-13T09:16:51Z</time>
      </trkpt>
      <trkpt lat="42.95072" lon="0.30886">
        <ele>1503.985</ele>
        <time>2014-09-13T09:16:52Z</time>
      </trkpt>
      <trkpt lat="42.95056" lon="0.30894">
        <ele>1500.987</ele>
        <time>2014-09-13T09:16:57Z</time>
      </trkpt>
      <trkpt lat="42.95052" lon="0.30893">
        <ele>1500.996</ele>
        <time>2014-09-13T09:16:58Z</time>
      </trkpt>
      <trkpt lat="42.95031" lon="0.30891">
        <ele>1498.716</ele>
        <time>2014-09-13T09:17:02Z</time>
      </trkpt>
      <trkpt lat="42.95024" lon="0.30889">
        <ele>1498.274</ele>
        <time>2014-09-13T09:17:04Z</time>
      </trkpt>
      <trkpt lat="42.95009" lon="0.30866">
        <ele>1498.21</ele>
        <time>2014-09-13T09:17:10Z</time>
      </trkpt>
      <trkpt lat="42.95001" lon="0.30849">
        <ele>1498.874</ele>
        <time>2014-09-13T09:17:14Z</time>
      </trkpt>
      <trkpt lat="42.94996" lon="0.30846">
        <ele>1499.281</ele>
        <time>2014-09-13T09:17:16Z</time>
      </trkpt>
      <trkpt lat="42.94992" lon="0.30847">
        <ele>1499.814</ele>
        <time>2014-09-13T09:17:20Z</time>
      </trkpt>
      <trkpt lat="42.94994" lon="0.30849">
        <ele>1498.959</ele>
        <time>2014-09-13T09:17:30Z</time>
      </trkpt>
      <trkpt lat="42.94995" lon="0.3085">
        <ele>1498.858</ele>
        <time>2014-09-13T09:17:31Z</time>
      </trkpt>
      <trkpt lat="42.94989" lon="0.30855">
        <ele>1498.902</ele>
        <time>2014-09-13T09:17:42Z</time>
      </trkpt>
      <trkpt lat="42.94987" lon="0.30843">
        <ele>1498.877</ele>
        <time>2014-09-13T09:17:46Z</time>
      </trkpt>
      <trkpt lat="42.94978" lon="0.30826">
        <ele>1498.869</ele>
        <time>2014-09-13T09:17:52Z</time>
      </trkpt>
      <trkpt lat="42.94964" lon="0.30815">
        <ele>1499.519</ele>
        <time>2014-09-13T09:17:58Z</time>
      </trkpt>
      <trkpt lat="42.94945" lon="0.30803">
        <ele>1500.266</ele>
        <time>2014-09-13T09:18:04Z</time>
      </trkpt>
      <trkpt lat="42.94928" lon="0.30794">
        <ele>1501.988</ele>
        <time>2014-09-13T09:18:10Z</time>
      </trkpt>
      <trkpt lat="42.94915" lon="0.30784">
        <ele>1502.732</ele>
        <time>2014-09-13T09:18:15Z</time>
      </trkpt>
      <trkpt lat="42.94896" lon="0.30774">
        <ele>1503.286</ele>
        <time>2014-09-13T09:18:21Z</time>
      </trkpt>
      <trkpt lat="42.9488" lon="0.30766">
        <ele>1503.566</ele>
        <time>2014-09-13T09:18:26Z</time>
      </trkpt>
      <trkpt lat="42.94853" lon="0.30757">
        <ele>1503.747</ele>
        <time>2014-09-13T09:18:34Z</time>
      </trkpt>
      <trkpt lat="42.94838" lon="0.30752">
        <ele>1503.965</ele>
        <time>2014-09-13T09:18:40Z</time>
      </trkpt>
      <trkpt lat="42.94831" lon="0.3075">
        <ele>1504.355</ele>
        <time>2014-09-13T09:18:46Z</time>
      </trkpt>
      <trkpt lat="42.94823" lon="0.30755">
        <ele>1503.478</ele>
        <time>2014-09-13T09:19:03Z</time>
      </trkpt>
      <trkpt lat="42.9482" lon="0.30754">
        <ele>1503.486</ele>
        <time>2014-09-13T09:19:04Z</time>
      </trkpt>
      <trkpt lat="42.94807" lon="0.30754">
        <ele>1503.867</ele>
        <time>2014-09-13T09:19:09Z</time>
      </trkpt>
      <trkpt lat="42.94795" lon="0.3075">
        <ele>1504.179</ele>
        <time>2014-09-13T09:19:14Z</time>
      </trkpt>
      <trkpt lat="42.94781" lon="0.30752">
        <ele>1504.281</ele>
        <time>2014-09-13T09:19:18Z</time>
      </trkpt>
      <trkpt lat="42.94777" lon="0.30752">
        <ele>1504.405</ele>
        <time>2014-09-13T09:19:19Z</time>
      </trkpt>
      <trkpt lat="42.94756" lon="0.30753">
        <ele>1504.232</ele>
        <time>2014-09-13T09:19:23Z</time>
      </trkpt>
      <trkpt lat="42.94734" lon="0.30757">
        <ele>1503.373</ele>
        <time>2014-09-13T09:19:28Z</time>
      </trkpt>
      <trkpt lat="42.94718" lon="0.30759">
        <ele>1503.219</ele>
        <time>2014-09-13T09:19:33Z</time>
      </trkpt>
      <trkpt lat="42.94699" lon="0.30766">
        <ele>1502.912</ele>
        <time>2014-09-13T09:19:39Z</time>
      </trkpt>
      <trkpt lat="42.94678" lon="0.30777">
        <ele>1503.162</ele>
        <time>2014-09-13T09:19:45Z</time>
      </trkpt>
      <trkpt lat="42.94667" lon="0.3079">
        <ele>1503.036</ele>
        <time>2014-09-13T09:19:51Z</time>
      </trkpt>
      <trkpt lat="42.94661" lon="0.30799">
        <ele>1502.849</ele>
        <time>2014-09-13T09:19:57Z</time>
      </trkpt>
      <trkpt lat="42.94661" lon="0.30799">
        <ele>1502.693</ele>
        <time>2014-09-13T09:19:58Z</time>
      </trkpt>
      <trkpt lat="42.94663" lon="0.308">
        <ele>1501.91</ele>
        <time>2014-09-13T09:20:20Z</time>
      </trkpt>
      <trkpt lat="42.94663" lon="0.308">
        <ele>1501.885</ele>
        <time>2014-09-13T09:20:21Z</time>
      </trkpt>
      <trkpt lat="42.94663" lon="0.308">
        <ele>1501.848</ele>
        <time>2014-09-13T09:20:22Z</time>
      </trkpt>
      <trkpt lat="42.94658" lon="0.30802">
        <ele>1502.842</ele>
        <time>2014-09-13T09:21:47Z</time>
      </trkpt>
      <trkpt lat="42.94656" lon="0.30805">
        <ele>1502.653</ele>
        <time>2014-09-13T09:21:48Z</time>
      </trkpt>
      <trkpt lat="42.94647" lon="0.30817">
        <ele>1502.054</ele>
        <time>2014-09-13T09:21:51Z</time>
      </trkpt>
      <trkpt lat="42.94634" lon="0.30843">
        <ele>1500.294</ele>
        <time>2014-09-13T09:21:55Z</time>
      </trkpt>
      <trkpt lat="42.94607" lon="0.30895">
        <ele>1497.886</ele>
        <time>2014-09-13T09:22:02Z</time>
      </trkpt>
      <trkpt lat="42.94602" lon="0.30902">
        <ele>1497.335</ele>
        <time>2014-09-13T09:22:03Z</time>
      </trkpt>
      <trkpt lat="42.94578" lon="0.30959">
        <ele>1493.679</ele>
        <time>2014-09-13T09:22:10Z</time>
      </trkpt>
      <trkpt lat="42.94556" lon="0.31019">
        <ele>1489.987</ele>
        <time>2014-09-13T09:22:17Z</time>
      </trkpt>
      <trkpt lat="42.94544" lon="0.31056">
        <ele>1487.135</ele>
        <time>2014-09-13T09:22:21Z</time>
      </trkpt>
      <trkpt lat="42.9454" lon="0.31088">
        <ele>1484.391</ele>
        <time>2014-09-13T09:22:24Z</time>
      </trkpt>
      <trkpt lat="42.94546" lon="0.31146">
        <ele>1479.888</ele>
        <time>2014-09-13T09:22:29Z</time>
      </trkpt>
      <trkpt lat="42.94549" lon="0.31179">
        <ele>1476.61</ele>
        <time>2014-09-13T09:22:32Z</time>
      </trkpt>
      <trkpt lat="42.94564" lon="0.31244">
        <ele>1470.939</ele>
        <time>2014-09-13T09:22:39Z</time>
      </trkpt>
      <trkpt lat="42.94569" lon="0.3126">
        <ele>1469.916</ele>
        <time>2014-09-13T09:22:41Z</time>
      </trkpt>
      <trkpt lat="42.94583" lon="0.3129">
        <ele>1467.772</ele>
        <time>2014-09-13T09:22:45Z</time>
      </trkpt>
      <trkpt lat="42.94588" lon="0.31317">
        <ele>1466.305</ele>
        <time>2014-09-13T09:22:48Z</time>
      </trkpt>
      <trkpt lat="42.94595" lon="0.31358">
        <ele>1465.674</ele>
        <time>2014-09-13T09:22:53Z</time>
      </trkpt>
      <trkpt lat="42.94597" lon="0.31374">
        <ele>1465.661</ele>
        <time>2014-09-13T09:22:55Z</time>
      </trkpt>
      <trkpt lat="42.94602" lon="0.31418">
        <ele>1465.207</ele>
        <time>2014-09-13T09:23:00Z</time>
      </trkpt>
      <trkpt lat="42.94608" lon="0.31453">
        <ele>1463.806</ele>
        <time>2014-09-13T09:23:04Z</time>
      </trkpt>
      <trkpt lat="42.94631" lon="0.31505">
        <ele>1461.474</ele>
        <time>2014-09-13T09:23:11Z</time>
      </trkpt>
      <trkpt lat="42.94647" lon="0.31541">
        <ele>1460.777</ele>
        <time>2014-09-13T09:23:16Z</time>
      </trkpt>
      <trkpt lat="42.94661" lon="0.31565">
        <ele>1460.089</ele>
        <time>2014-09-13T09:23:20Z</time>
      </trkpt>
      <trkpt lat="42.94683" lon="0.31593">
        <ele>1458.111</ele>
        <time>2014-09-13T09:23:25Z</time>
      </trkpt>
      <trkpt lat="42.94689" lon="0.31616">
        <ele>1457.047</ele>
        <time>2014-09-13T09:23:28Z</time>
      </trkpt>
      <trkpt lat="42.94697" lon="0.31667">
        <ele>1455.286</ele>
        <time>2014-09-13T09:23:35Z</time>
      </trkpt>
      <trkpt lat="42.94707" lon="0.31688">
        <ele>1454.07</ele>
        <time>2014-09-13T09:23:39Z</time>
      </trkpt>
      <trkpt lat="42.94701" lon="0.31697">
        <ele>1452.892</ele>
        <time>2014-09-13T09:23:42Z</time>
      </trkpt>
      <trkpt lat="42.94696" lon="0.31707">
        <ele>1452.384</ele>
        <time>2014-09-13T09:23:44Z</time>
      </trkpt>
      <trkpt lat="42.94692" lon="0.31736">
        <ele>1452.981</ele>
        <time>2014-09-13T09:23:49Z</time>
      </trkpt>
      <trkpt lat="42.94693" lon="0.31755">
        <ele>1454.087</ele>
        <time>2014-09-13T09:23:52Z</time>
      </trkpt>
      <trkpt lat="42.94694" lon="0.31777">
        <ele>1455.265</ele>
        <time>2014-09-13T09:23:57Z</time>
      </trkpt>
      <trkpt lat="42.94692" lon="0.31796">
        <ele>1455.784</ele>
        <time>2014-09-13T09:24:01Z</time>
      </trkpt>
      <trkpt lat="42.94674" lon="0.31803">
        <ele>1456.32</ele>
        <time>2014-09-13T09:24:06Z</time>
      </trkpt>
      <trkpt lat="42.94666" lon="0.31808">
        <ele>1456.653</ele>
        <time>2014-09-13T09:24:08Z</time>
      </trkpt>
      <trkpt lat="42.94654" lon="0.31819">
        <ele>1457.074</ele>
        <time>2014-09-13T09:24:11Z</time>
      </trkpt>
      <trkpt lat="42.94633" lon="0.31849">
        <ele>1456.974</ele>
        <time>2014-09-13T09:24:17Z</time>
      </trkpt>
      <trkpt lat="42.94609" lon="0.31886">
        <ele>1457.154</ele>
        <time>2014-09-13T09:24:24Z</time>
      </trkpt>
      <trkpt lat="42.94606" lon="0.31892">
        <ele>1457.093</ele>
        <time>2014-09-13T09:24:25Z</time>
      </trkpt>
      <trkpt lat="42.94599" lon="0.31902">
        <ele>1456.837</ele>
        <time>2014-09-13T09:24:27Z</time>
      </trkpt>
      <trkpt lat="42.94589" lon="0.3192">
        <ele>1456.381</ele>
        <time>2014-09-13T09:24:30Z</time>
      </trkpt>
      <trkpt lat="42.9458" lon="0.3194">
        <ele>1455.298</ele>
        <time>2014-09-13T09:24:34Z</time>
      </trkpt>
      <trkpt lat="42.9457" lon="0.31953">
        <ele>1455.053</ele>
        <time>2014-09-13T09:24:38Z</time>
      </trkpt>
      <trkpt lat="42.94561" lon="0.31966">
        <ele>1455.413</ele>
        <time>2014-09-13T09:24:41Z</time>
      </trkpt>
      <trkpt lat="42.94548" lon="0.31985">
        <ele>1455.516</ele>
        <time>2014-09-13T09:24:46Z</time>
      </trkpt>
      <trkpt lat="42.94543" lon="0.31993">
        <ele>1455.075</ele>
        <time>2014-09-13T09:24:50Z</time>
      </trkpt>
      <trkpt lat="42.94539" lon="0.31994">
        <ele>1454.494</ele>
        <time>2014-09-13T09:24:55Z</time>
      </trkpt>
      <trkpt lat="42.94531" lon="0.31998">
        <ele>1453.738</ele>
        <time>2014-09-13T09:25:03Z</time>
      </trkpt>
      <trkpt lat="42.94525" lon="0.32003">
        <ele>1453.92</ele>
        <time>2014-09-13T09:25:13Z</time>
      </trkpt>
      <trkpt lat="42.94519" lon="0.32017">
        <ele>1455.252</ele>
        <time>2014-09-13T09:26:06Z</time>
      </trkpt>
      <trkpt lat="42.9451" lon="0.32028">
        <ele>1454.737</ele>
        <time>2014-09-13T09:26:10Z</time>
      </trkpt>
      <trkpt lat="42.94499" lon="0.32043">
        <ele>1454.718</ele>
        <time>2014-09-13T09:26:15Z</time>
      </trkpt>
      <trkpt lat="42.9449" lon="0.3206">
        <ele>1455.223</ele>
        <time>2014-09-13T09:26:20Z</time>
      </trkpt>
      <trkpt lat="42.94486" lon="0.32064">
        <ele>1455.287</ele>
        <time>2014-09-13T09:26:23Z</time>
      </trkpt>
      <trkpt lat="42.94476" lon="0.32075">
        <ele>1455.08</ele>
        <time>2014-09-13T09:26:29Z</time>
      </trkpt>
      <trkpt lat="42.94465" lon="0.32092">
        <ele>1454.482</ele>
        <time>2014-09-13T09:26:34Z</time>
      </trkpt>
      <trkpt lat="42.94456" lon="0.32109">
        <ele>1454.139</ele>
        <time>2014-09-13T09:26:40Z</time>
      </trkpt>
      <trkpt lat="42.94442" lon="0.32135">
        <ele>1453.168</ele>
        <time>2014-09-13T09:26:47Z</time>
      </trkpt>
      <trkpt lat="42.9444" lon="0.3214">
        <ele>1453.271</ele>
        <time>2014-09-13T09:26:48Z</time>
      </trkpt>
      <trkpt lat="42.94432" lon="0.32168">
        <ele>1454.819</ele>
        <time>2014-09-13T09:26:54Z</time>
      </trkpt>
      <trkpt lat="42.94426" lon="0.32185">
        <ele>1456.183</ele>
        <time>2014-09-13T09:26:58Z</time>
      </trkpt>
      <trkpt lat="42.94418" lon="0.32209">
        <ele>1457.582</ele>
        <time>2014-09-13T09:27:03Z</time>
      </trkpt>
      <trkpt lat="42.94411" lon="0.32232">
        <ele>1459.202</ele>
        <time>2014-09-13T09:27:08Z</time>
      </trkpt>
      <trkpt lat="42.94397" lon="0.32259">
        <ele>1460.884</ele>
        <time>2014-09-13T09:27:14Z</time>
      </trkpt>
      <trkpt lat="42.94379" lon="0.32289">
        <ele>1463.109</ele>
        <time>2014-09-13T09:27:21Z</time>
      </trkpt>
      <trkpt lat="42.94366" lon="0.32321">
        <ele>1464.846</ele>
        <time>2014-09-13T09:27:28Z</time>
      </trkpt>
      <trkpt lat="42.94361" lon="0.32363">
        <ele>1467.156</ele>
        <time>2014-09-13T09:27:36Z</time>
      </trkpt>
      <trkpt lat="42.94359" lon="0.32402">
        <ele>1469.215</ele>
        <time>2014-09-13T09:27:44Z</time>
      </trkpt>
      <trkpt lat="42.94352" lon="0.32444">
        <ele>1471.405</ele>
        <time>2014-09-13T09:27:53Z</time>
      </trkpt>
      <trkpt lat="42.94342" lon="0.32486">
        <ele>1474.622</ele>
        <time>2014-09-13T09:28:03Z</time>
      </trkpt>
      <trkpt lat="42.94335" lon="0.32529">
        <ele>1476.504</ele>
        <time>2014-09-13T09:28:13Z</time>
      </trkpt>
      <trkpt lat="42.94328" lon="0.32576">
        <ele>1478.934</ele>
        <time>2014-09-13T09:28:24Z</time>
      </trkpt>
      <trkpt lat="42.94314" lon="0.32626">
        <ele>1481.851</ele>
        <time>2014-09-13T09:28:36Z</time>
      </trkpt>
      <trkpt lat="42.94295" lon="0.32661">
        <ele>1484.142</ele>
        <time>2014-09-13T09:28:46Z</time>
      </trkpt>
      <trkpt lat="42.94275" lon="0.32686">
        <ele>1486.334</ele>
        <time>2014-09-13T09:28:54Z</time>
      </trkpt>
      <trkpt lat="42.94253" lon="0.32709">
        <ele>1488.575</ele>
        <time>2014-09-13T09:29:03Z</time>
      </trkpt>
      <trkpt lat="42.9424" lon="0.32723">
        <ele>1489.798</ele>
        <time>2014-09-13T09:29:10Z</time>
      </trkpt>
      <trkpt lat="42.94238" lon="0.32728">
        <ele>1490.082</ele>
        <time>2014-09-13T09:29:14Z</time>
      </trkpt>
      <trkpt lat="42.94236" lon="0.32728">
        <ele>1490.015</ele>
        <time>2014-09-13T09:29:19Z</time>
      </trkpt>
      <trkpt lat="42.94232" lon="0.32728">
        <ele>1492.336</ele>
        <time>2014-09-13T09:36:59Z</time>
      </trkpt>
      <trkpt lat="42.94232" lon="0.32728">
        <ele>1492.28</ele>
        <time>2014-09-13T09:37:00Z</time>
      </trkpt>
      <trkpt lat="42.94232" lon="0.32729">
        <ele>1492.049</ele>
        <time>2014-09-13T09:37:01Z</time>
      </trkpt>
      <trkpt lat="42.94229" lon="0.32732">
        <ele>1491.53</ele>
        <time>2014-09-13T09:37:06Z</time>
      </trkpt>
      <trkpt lat="42.94232" lon="0.32739">
        <ele>1491.413</ele>
        <time>2014-09-13T09:39:15Z</time>
      </trkpt>
      <trkpt lat="42.94234" lon="0.32744">
        <ele>1492.049</ele>
        <time>2014-09-13T09:39:20Z</time>
      </trkpt>
      <trkpt lat="42.94234" lon="0.32745">
        <ele>1492.362</ele>
        <time>2014-09-13T09:39:22Z</time>
      </trkpt>
      <trkpt lat="42.9423" lon="0.3275">
        <ele>1491.506</ele>
        <time>2014-09-13T09:39:58Z</time>
      </trkpt>
      <trkpt lat="42.94229" lon="0.32743">
        <ele>1491.52</ele>
        <time>2014-09-13T09:40:01Z</time>
      </trkpt>
      <trkpt lat="42.94222" lon="0.32729">
        <ele>1491.509</ele>
        <time>2014-09-13T09:40:08Z</time>
      </trkpt>
      <trkpt lat="42.94221" lon="0.32727">
        <ele>1491.616</ele>
        <time>2014-09-13T09:40:09Z</time>
      </trkpt>
      <trkpt lat="42.94216" lon="0.32721">
        <ele>1491.931</ele>
        <time>2014-09-13T09:40:14Z</time>
      </trkpt>
      <trkpt lat="42.94212" lon="0.32726">
        <ele>1492.326</ele>
        <time>2014-09-13T09:40:18Z</time>
      </trkpt>
      <trkpt lat="42.94207" lon="0.32723">
        <ele>1492.634</ele>
        <time>2014-09-13T09:40:22Z</time>
      </trkpt>
      <trkpt lat="42.94209" lon="0.32719">
        <ele>1493.088</ele>
        <time>2014-09-13T09:40:26Z</time>
      </trkpt>
      <trkpt lat="42.94204" lon="0.32716">
        <ele>1493.43</ele>
        <time>2014-09-13T09:40:31Z</time>
      </trkpt>
      <trkpt lat="42.942" lon="0.32704">
        <ele>1494.01</ele>
        <time>2014-09-13T09:40:37Z</time>
      </trkpt>
      <trkpt lat="42.94199" lon="0.32702">
        <ele>1494.103</ele>
        <time>2014-09-13T09:40:38Z</time>
      </trkpt>
      <trkpt lat="42.94194" lon="0.32681">
        <ele>1494.536</ele>
        <time>2014-09-13T09:40:46Z</time>
      </trkpt>
      <trkpt lat="42.9419" lon="0.32661">
        <ele>1494.921</ele>
        <time>2014-09-13T09:40:53Z</time>
      </trkpt>
      <trkpt lat="42.9418" lon="0.32634">
        <ele>1495.296</ele>
        <time>2014-09-13T09:41:02Z</time>
      </trkpt>
      <trkpt lat="42.94175" lon="0.32607">
        <ele>1495.46</ele>
        <time>2014-09-13T09:41:10Z</time>
      </trkpt>
      <trkpt lat="42.9417" lon="0.32575">
        <ele>1495.995</ele>
        <time>2014-09-13T09:41:20Z</time>
      </trkpt>
      <trkpt lat="42.94161" lon="0.32532">
        <ele>1496.349</ele>
        <time>2014-09-13T09:41:32Z</time>
      </trkpt>
      <trkpt lat="42.94154" lon="0.32497">
        <ele>1496.8</ele>
        <time>2014-09-13T09:41:42Z</time>
      </trkpt>
      <trkpt lat="42.94148" lon="0.32462">
        <ele>1497.25</ele>
        <time>2014-09-13T09:41:52Z</time>
      </trkpt>
      <trkpt lat="42.94142" lon="0.3243">
        <ele>1497.844</ele>
        <time>2014-09-13T09:42:01Z</time>
      </trkpt>
      <trkpt lat="42.94137" lon="0.32393">
        <ele>1498.455</ele>
        <time>2014-09-13T09:42:11Z</time>
      </trkpt>
      <trkpt lat="42.9413" lon="0.32354">
        <ele>1498.918</ele>
        <time>2014-09-13T09:42:21Z</time>
      </trkpt>
      <trkpt lat="42.94124" lon="0.32321">
        <ele>1499.152</ele>
        <time>2014-09-13T09:42:29Z</time>
      </trkpt>
      <trkpt lat="42.94119" lon="0.32289">
        <ele>1499.57</ele>
        <time>2014-09-13T09:42:37Z</time>
      </trkpt>
      <trkpt lat="42.94113" lon="0.32262">
        <ele>1500.09</ele>
        <time>2014-09-13T09:42:44Z</time>
      </trkpt>
      <trkpt lat="42.94107" lon="0.32236">
        <ele>1500.739</ele>
        <time>2014-09-13T09:42:51Z</time>
      </trkpt>
      <trkpt lat="42.94104" lon="0.3221">
        <ele>1501.189</ele>
        <time>2014-09-13T09:42:58Z</time>
      </trkpt>
      <trkpt lat="42.94097" lon="0.32193">
        <ele>1500.776</ele>
        <time>2014-09-13T09:43:04Z</time>
      </trkpt>
      <trkpt lat="42.94085" lon="0.32182">
        <ele>1501.272</ele>
        <time>2014-09-13T09:43:10Z</time>
      </trkpt>
      <trkpt lat="42.94072" lon="0.32178">
        <ele>1503.008</ele>
        <time>2014-09-13T09:43:17Z</time>
      </trkpt>
      <trkpt lat="42.9406" lon="0.32176">
        <ele>1504.281</ele>
        <time>2014-09-13T09:43:23Z</time>
      </trkpt>
      <trkpt lat="42.94049" lon="0.32178">
        <ele>1505.783</ele>
        <time>2014-09-13T09:43:30Z</time>
      </trkpt>
      <trkpt lat="42.94047" lon="0.32179">
        <ele>1506.496</ele>
        <time>2014-09-13T09:43:32Z</time>
      </trkpt>
      <trkpt lat="42.94045" lon="0.3218">
        <ele>1507.375</ele>
        <time>2014-09-13T09:43:34Z</time>
      </trkpt>
      <trkpt lat="42.94034" lon="0.32188">
        <ele>1509.961</ele>
        <time>2014-09-13T09:43:41Z</time>
      </trkpt>
      <trkpt lat="42.94033" lon="0.32189">
        <ele>1510.118</ele>
        <time>2014-09-13T09:43:42Z</time>
      </trkpt>
      <trkpt lat="42.94022" lon="0.32196">
        <ele>1511.35</ele>
        <time>2014-09-13T09:43:48Z</time>
      </trkpt>
      <trkpt lat="42.9401" lon="0.32206">
        <ele>1512.58</ele>
        <time>2014-09-13T09:43:55Z</time>
      </trkpt>
      <trkpt lat="42.93999" lon="0.32213">
        <ele>1514.164</ele>
        <time>2014-09-13T09:44:01Z</time>
      </trkpt>
      <trkpt lat="42.93985" lon="0.32218">
        <ele>1515.622</ele>
        <time>2014-09-13T09:44:08Z</time>
      </trkpt>
      <trkpt lat="42.9397" lon="0.32221">
        <ele>1516.956</ele>
        <time>2014-09-13T09:44:15Z</time>
      </trkpt>
      <trkpt lat="42.9395" lon="0.32223">
        <ele>1518.658</ele>
        <time>2014-09-13T09:44:24Z</time>
      </trkpt>
      <trkpt lat="42.93936" lon="0.32224">
        <ele>1519.642</ele>
        <time>2014-09-13T09:44:30Z</time>
      </trkpt>
      <trkpt lat="42.93922" lon="0.3222">
        <ele>1520.561</ele>
        <time>2014-09-13T09:44:37Z</time>
      </trkpt>
      <trkpt lat="42.93914" lon="0.32218">
        <ele>1521.868</ele>
        <time>2014-09-13T09:44:43Z</time>
      </trkpt>
      <trkpt lat="42.93904" lon="0.3221">
        <ele>1523.823</ele>
        <time>2014-09-13T09:44:49Z</time>
      </trkpt>
      <trkpt lat="42.93891" lon="0.32199">
        <ele>1525.813</ele>
        <time>2014-09-13T09:44:57Z</time>
      </trkpt>
      <trkpt lat="42.93878" lon="0.32192">
        <ele>1527.164</ele>
        <time>2014-09-13T09:45:03Z</time>
      </trkpt>
      <trkpt lat="42.93865" lon="0.32177">
        <ele>1529.273</ele>
        <time>2014-09-13T09:45:12Z</time>
      </trkpt>
      <trkpt lat="42.93852" lon="0.32171">
        <ele>1530.642</ele>
        <time>2014-09-13T09:45:18Z</time>
      </trkpt>
      <trkpt lat="42.93838" lon="0.32162">
        <ele>1532.084</ele>
        <time>2014-09-13T09:45:25Z</time>
      </trkpt>
      <trkpt lat="42.93826" lon="0.32158">
        <ele>1533.541</ele>
        <time>2014-09-13T09:45:31Z</time>
      </trkpt>
      <trkpt lat="42.93815" lon="0.32149">
        <ele>1535.025</ele>
        <time>2014-09-13T09:45:38Z</time>
      </trkpt>
      <trkpt lat="42.93808" lon="0.32144">
        <ele>1535.834</ele>
        <time>2014-09-13T09:45:42Z</time>
      </trkpt>
      <trkpt lat="42.93807" lon="0.32143">
        <ele>1535.944</ele>
        <time>2014-09-13T09:45:43Z</time>
      </trkpt>
      <trkpt lat="42.93792" lon="0.32132">
        <ele>1536.929</ele>
        <time>2014-09-13T09:45:51Z</time>
      </trkpt>
      <trkpt lat="42.93777" lon="0.3213">
        <ele>1537.692</ele>
        <time>2014-09-13T09:45:57Z</time>
      </trkpt>
      <trkpt lat="42.93762" lon="0.32128">
        <ele>1539.018</ele>
        <time>2014-09-13T09:46:04Z</time>
      </trkpt>
      <trkpt lat="42.9376" lon="0.32129">
        <ele>1539.264</ele>
        <time>2014-09-13T09:46:05Z</time>
      </trkpt>
      <trkpt lat="42.9376" lon="0.32138">
        <ele>1540.721</ele>
        <time>2014-09-13T09:46:10Z</time>
      </trkpt>
      <trkpt lat="42.93773" lon="0.32142">
        <ele>1541.623</ele>
        <time>2014-09-13T09:46:15Z</time>
      </trkpt>
      <trkpt lat="42.93776" lon="0.32145">
        <ele>1541.788</ele>
        <time>2014-09-13T09:46:17Z</time>
      </trkpt>
      <trkpt lat="42.93784" lon="0.32148">
        <ele>1542.101</ele>
        <time>2014-09-13T09:46:21Z</time>
      </trkpt>
      <trkpt lat="42.93797" lon="0.32161">
        <ele>1542.624</ele>
        <time>2014-09-13T09:46:28Z</time>
      </trkpt>
      <trkpt lat="42.93809" lon="0.32172">
        <ele>1543.55</ele>
        <time>2014-09-13T09:46:34Z</time>
      </trkpt>
      <trkpt lat="42.93824" lon="0.32183">
        <ele>1544.772</ele>
        <time>2014-09-13T09:46:40Z</time>
      </trkpt>
      <trkpt lat="42.93838" lon="0.32199">
        <ele>1545.75</ele>
        <time>2014-09-13T09:46:47Z</time>
      </trkpt>
      <trkpt lat="42.93848" lon="0.32213">
        <ele>1545.934</ele>
        <time>2014-09-13T09:46:52Z</time>
      </trkpt>
      <trkpt lat="42.9386" lon="0.32229">
        <ele>1547.303</ele>
        <time>2014-09-13T09:46:59Z</time>
      </trkpt>
      <trkpt lat="42.93873" lon="0.32246">
        <ele>1549.364</ele>
        <time>2014-09-13T09:47:07Z</time>
      </trkpt>
      <trkpt lat="42.93885" lon="0.32257">
        <ele>1550.455</ele>
        <time>2014-09-13T09:47:13Z</time>
      </trkpt>
      <trkpt lat="42.93901" lon="0.32273">
        <ele>1551.586</ele>
        <time>2014-09-13T09:47:21Z</time>
      </trkpt>
      <trkpt lat="42.93915" lon="0.32286">
        <ele>1552.956</ele>
        <time>2014-09-13T09:47:28Z</time>
      </trkpt>
      <trkpt lat="42.93932" lon="0.32296">
        <ele>1554.76</ele>
        <time>2014-09-13T09:47:35Z</time>
      </trkpt>
      <trkpt lat="42.93944" lon="0.32309">
        <ele>1556.814</ele>
        <time>2014-09-13T09:47:42Z</time>
      </trkpt>
      <trkpt lat="42.93957" lon="0.32316">
        <ele>1558.556</ele>
        <time>2014-09-13T09:47:48Z</time>
      </trkpt>
      <trkpt lat="42.93969" lon="0.32327">
        <ele>1559.874</ele>
        <time>2014-09-13T09:47:54Z</time>
      </trkpt>
      <trkpt lat="42.93981" lon="0.32341">
        <ele>1561.231</ele>
        <time>2014-09-13T09:48:01Z</time>
      </trkpt>
      <trkpt lat="42.93993" lon="0.32354">
        <ele>1562.805</ele>
        <time>2014-09-13T09:48:08Z</time>
      </trkpt>
      <trkpt lat="42.94" lon="0.32362">
        <ele>1564.245</ele>
        <time>2014-09-13T09:48:14Z</time>
      </trkpt>
      <trkpt lat="42.94" lon="0.32366">
        <ele>1564.829</ele>
        <time>2014-09-13T09:48:17Z</time>
      </trkpt>
      <trkpt lat="42.9399" lon="0.32365">
        <ele>1566.085</ele>
        <time>2014-09-13T09:48:24Z</time>
      </trkpt>
      <trkpt lat="42.93987" lon="0.32365">
        <ele>1566.903</ele>
        <time>2014-09-13T09:48:29Z</time>
      </trkpt>
      <trkpt lat="42.9399" lon="0.32366">
        <ele>1569.141</ele>
        <time>2014-09-13T09:52:35Z</time>
      </trkpt>
      <trkpt lat="42.93989" lon="0.32366">
        <ele>1569.067</ele>
        <time>2014-09-13T09:52:36Z</time>
      </trkpt>
      <trkpt lat="42.93981" lon="0.32366">
        <ele>1568.895</ele>
        <time>2014-09-13T09:52:43Z</time>
      </trkpt>
      <trkpt lat="42.93969" lon="0.32367">
        <ele>1570.396</ele>
        <time>2014-09-13T09:52:49Z</time>
      </trkpt>
      <trkpt lat="42.93962" lon="0.32368">
        <ele>1572.136</ele>
        <time>2014-09-13T09:52:53Z</time>
      </trkpt>
      <trkpt lat="42.93956" lon="0.32368">
        <ele>1573.594</ele>
        <time>2014-09-13T09:52:56Z</time>
      </trkpt>
      <trkpt lat="42.93952" lon="0.32367">
        <ele>1574.409</ele>
        <time>2014-09-13T09:52:58Z</time>
      </trkpt>
      <trkpt lat="42.93942" lon="0.32365">
        <ele>1576.401</ele>
        <time>2014-09-13T09:53:04Z</time>
      </trkpt>
      <trkpt lat="42.93936" lon="0.32364">
        <ele>1577.212</ele>
        <time>2014-09-13T09:53:07Z</time>
      </trkpt>
      <trkpt lat="42.93921" lon="0.32365">
        <ele>1580.606</ele>
        <time>2014-09-13T09:53:15Z</time>
      </trkpt>
      <trkpt lat="42.9391" lon="0.32363">
        <ele>1582.369</ele>
        <time>2014-09-13T09:53:21Z</time>
      </trkpt>
      <trkpt lat="42.9389" lon="0.32362">
        <ele>1584.473</ele>
        <time>2014-09-13T09:53:31Z</time>
      </trkpt>
      <trkpt lat="42.93878" lon="0.32357">
        <ele>1585.794</ele>
        <time>2014-09-13T09:53:37Z</time>
      </trkpt>
      <trkpt lat="42.93868" lon="0.32351">
        <ele>1587.137</ele>
        <time>2014-09-13T09:53:43Z</time>
      </trkpt>
      <trkpt lat="42.93855" lon="0.3234">
        <ele>1588.767</ele>
        <time>2014-09-13T09:53:50Z</time>
      </trkpt>
      <trkpt lat="42.9384" lon="0.32329">
        <ele>1590.315</ele>
        <time>2014-09-13T09:53:58Z</time>
      </trkpt>
      <trkpt lat="42.93825" lon="0.32322">
        <ele>1592.53</ele>
        <time>2014-09-13T09:54:06Z</time>
      </trkpt>
      <trkpt lat="42.93816" lon="0.32313">
        <ele>1593.81</ele>
        <time>2014-09-13T09:54:11Z</time>
      </trkpt>
      <trkpt lat="42.93805" lon="0.32303">
        <ele>1595.328</ele>
        <time>2014-09-13T09:54:17Z</time>
      </trkpt>
      <trkpt lat="42.93793" lon="0.32295">
        <ele>1596.332</ele>
        <time>2014-09-13T09:54:22Z</time>
      </trkpt>
      <trkpt lat="42.93779" lon="0.32285">
        <ele>1598.159</ele>
        <time>2014-09-13T09:54:29Z</time>
      </trkpt>
      <trkpt lat="42.93765" lon="0.32278">
        <ele>1599.832</ele>
        <time>2014-09-13T09:54:35Z</time>
      </trkpt>
      <trkpt lat="42.93749" lon="0.3227">
        <ele>1600.989</ele>
        <time>2014-09-13T09:54:42Z</time>
      </trkpt>
      <trkpt lat="42.93735" lon="0.32268">
        <ele>1601.214</ele>
        <time>2014-09-13T09:54:47Z</time>
      </trkpt>
      <trkpt lat="42.93712" lon="0.3227">
        <ele>1601.776</ele>
        <time>2014-09-13T09:54:55Z</time>
      </trkpt>
      <trkpt lat="42.93692" lon="0.32274">
        <ele>1602.396</ele>
        <time>2014-09-13T09:55:04Z</time>
      </trkpt>
      <trkpt lat="42.93677" lon="0.32273">
        <ele>1602.429</ele>
        <time>2014-09-13T09:55:09Z</time>
      </trkpt>
      <trkpt lat="42.93663" lon="0.32279">
        <ele>1602.42</ele>
        <time>2014-09-13T09:55:14Z</time>
      </trkpt>
      <trkpt lat="42.9365" lon="0.32284">
        <ele>1602.323</ele>
        <time>2014-09-13T09:55:19Z</time>
      </trkpt>
      <trkpt lat="42.93632" lon="0.32288">
        <ele>1602.362</ele>
        <time>2014-09-13T09:55:25Z</time>
      </trkpt>
      <trkpt lat="42.93618" lon="0.32289">
        <ele>1602.516</ele>
        <time>2014-09-13T09:55:30Z</time>
      </trkpt>
      <trkpt lat="42.93596" lon="0.32285">
        <ele>1603.069</ele>
        <time>2014-09-13T09:55:37Z</time>
      </trkpt>
      <trkpt lat="42.93579" lon="0.32278">
        <ele>1603.886</ele>
        <time>2014-09-13T09:55:43Z</time>
      </trkpt>
      <trkpt lat="42.93561" lon="0.32271">
        <ele>1605.309</ele>
        <time>2014-09-13T09:55:50Z</time>
      </trkpt>
      <trkpt lat="42.93543" lon="0.3226">
        <ele>1606.799</ele>
        <time>2014-09-13T09:55:57Z</time>
      </trkpt>
      <trkpt lat="42.93526" lon="0.32246">
        <ele>1607.563</ele>
        <time>2014-09-13T09:56:04Z</time>
      </trkpt>
      <trkpt lat="42.9351" lon="0.32233">
        <ele>1607.571</ele>
        <time>2014-09-13T09:56:09Z</time>
      </trkpt>
      <trkpt lat="42.93499" lon="0.32223">
        <ele>1607.491</ele>
        <time>2014-09-13T09:56:13Z</time>
      </trkpt>
      <trkpt lat="42.93485" lon="0.32218">
        <ele>1608.143</ele>
        <time>2014-09-13T09:56:18Z</time>
      </trkpt>
      <trkpt lat="42.9347" lon="0.32211">
        <ele>1609.429</ele>
        <time>2014-09-13T09:56:23Z</time>
      </trkpt>
      <trkpt lat="42.93452" lon="0.32199">
        <ele>1610.948</ele>
        <time>2014-09-13T09:56:29Z</time>
      </trkpt>
      <trkpt lat="42.93432" lon="0.32184">
        <ele>1612.531</ele>
        <time>2014-09-13T09:56:35Z</time>
      </trkpt>
      <trkpt lat="42.93418" lon="0.32173">
        <ele>1613.21</ele>
        <time>2014-09-13T09:56:39Z</time>
      </trkpt>
      <trkpt lat="42.934" lon="0.32159">
        <ele>1614.089</ele>
        <time>2014-09-13T09:56:45Z</time>
      </trkpt>
      <trkpt lat="42.93386" lon="0.32136">
        <ele>1614.693</ele>
        <time>2014-09-13T09:56:51Z</time>
      </trkpt>
      <trkpt lat="42.93385" lon="0.3213">
        <ele>1614.694</ele>
        <time>2014-09-13T09:56:52Z</time>
      </trkpt>
      <trkpt lat="42.93375" lon="0.32112">
        <ele>1614.077</ele>
        <time>2014-09-13T09:56:55Z</time>
      </trkpt>
      <trkpt lat="42.93355" lon="0.32091">
        <ele>1612.997</ele>
        <time>2014-09-13T09:56:59Z</time>
      </trkpt>
      <trkpt lat="42.93339" lon="0.32074">
        <ele>1612.806</ele>
        <time>2014-09-13T09:57:04Z</time>
      </trkpt>
      <trkpt lat="42.93322" lon="0.32057">
        <ele>1613.296</ele>
        <time>2014-09-13T09:57:10Z</time>
      </trkpt>
      <trkpt lat="42.93313" lon="0.32045">
        <ele>1613.19</ele>
        <time>2014-09-13T09:57:13Z</time>
      </trkpt>
      <trkpt lat="42.93302" lon="0.32028">
        <ele>1612.675</ele>
        <time>2014-09-13T09:57:18Z</time>
      </trkpt>
      <trkpt lat="42.93292" lon="0.32002">
        <ele>1612.3</ele>
        <time>2014-09-13T09:57:25Z</time>
      </trkpt>
      <trkpt lat="42.93282" lon="0.31975">
        <ele>1611.643</ele>
        <time>2014-09-13T09:57:31Z</time>
      </trkpt>
      <trkpt lat="42.93276" lon="0.31946">
        <ele>1610.745</ele>
        <time>2014-09-13T09:57:35Z</time>
      </trkpt>
      <trkpt lat="42.93266" lon="0.31905">
        <ele>1609.01</ele>
        <time>2014-09-13T09:57:39Z</time>
      </trkpt>
      <trkpt lat="42.93252" lon="0.31868">
        <ele>1607.712</ele>
        <time>2014-09-13T09:57:43Z</time>
      </trkpt>
      <trkpt lat="42.93234" lon="0.31854">
        <ele>1606.641</ele>
        <time>2014-09-13T09:57:47Z</time>
      </trkpt>
      <trkpt lat="42.93218" lon="0.31859">
        <ele>1606.396</ele>
        <time>2014-09-13T09:57:51Z</time>
      </trkpt>
      <trkpt lat="42.93206" lon="0.3187">
        <ele>1607.31</ele>
        <time>2014-09-13T09:57:55Z</time>
      </trkpt>
      <trkpt lat="42.93177" lon="0.31884">
        <ele>1607.624</ele>
        <time>2014-09-13T09:58:01Z</time>
      </trkpt>
      <trkpt lat="42.93129" lon="0.31894">
        <ele>1604.299</ele>
        <time>2014-09-13T09:58:07Z</time>
      </trkpt>
      <trkpt lat="42.93121" lon="0.31897">
        <ele>1604.299</ele>
        <time>2014-09-13T09:58:08Z</time>
      </trkpt>
      <trkpt lat="42.93094" lon="0.319">
        <ele>1602.036</ele>
        <time>2014-09-13T09:58:11Z</time>
      </trkpt>
      <trkpt lat="42.93058" lon="0.31904">
        <ele>1599.399</ele>
        <time>2014-09-13T09:58:15Z</time>
      </trkpt>
      <trkpt lat="42.93025" lon="0.31893">
        <ele>1596.988</ele>
        <time>2014-09-13T09:58:19Z</time>
      </trkpt>
      <trkpt lat="42.9299" lon="0.31871">
        <ele>1596.147</ele>
        <time>2014-09-13T09:58:25Z</time>
      </trkpt>
      <trkpt lat="42.92974" lon="0.31858">
        <ele>1597.87</ele>
        <time>2014-09-13T09:58:30Z</time>
      </trkpt>
      <trkpt lat="42.92964" lon="0.3185">
        <ele>1599.245</ele>
        <time>2014-09-13T09:58:35Z</time>
      </trkpt>
      <trkpt lat="42.92952" lon="0.31839">
        <ele>1600.686</ele>
        <time>2014-09-13T09:58:41Z</time>
      </trkpt>
      <trkpt lat="42.92938" lon="0.3183">
        <ele>1601.186</ele>
        <time>2014-09-13T09:58:47Z</time>
      </trkpt>
      <trkpt lat="42.92926" lon="0.31819">
        <ele>1600.75</ele>
        <time>2014-09-13T09:58:51Z</time>
      </trkpt>
      <trkpt lat="42.92908" lon="0.3181">
        <ele>1600.842</ele>
        <time>2014-09-13T09:58:57Z</time>
      </trkpt>
      <trkpt lat="42.92902" lon="0.31803">
        <ele>1600.891</ele>
        <time>2014-09-13T09:58:59Z</time>
      </trkpt>
      <trkpt lat="42.92895" lon="0.31795">
        <ele>1600.89</ele>
        <time>2014-09-13T09:59:01Z</time>
      </trkpt>
      <trkpt lat="42.92884" lon="0.31765">
        <ele>1600.392</ele>
        <time>2014-09-13T09:59:06Z</time>
      </trkpt>
      <trkpt lat="42.92875" lon="0.31734">
        <ele>1598.808</ele>
        <time>2014-09-13T09:59:10Z</time>
      </trkpt>
      <trkpt lat="42.92856" lon="0.3172">
        <ele>1598.46</ele>
        <time>2014-09-13T09:59:14Z</time>
      </trkpt>
      <trkpt lat="42.92845" lon="0.3172">
        <ele>1599.08</ele>
        <time>2014-09-13T09:59:16Z</time>
      </trkpt>
      <trkpt lat="42.92833" lon="0.31721">
        <ele>1599.786</ele>
        <time>2014-09-13T09:59:18Z</time>
      </trkpt>
      <trkpt lat="42.92813" lon="0.31718">
        <ele>1600.406</ele>
        <time>2014-09-13T09:59:22Z</time>
      </trkpt>
      <trkpt lat="42.92799" lon="0.3172">
        <ele>1600.67</ele>
        <time>2014-09-13T09:59:25Z</time>
      </trkpt>
      <trkpt lat="42.92776" lon="0.31717">
        <ele>1600.984</ele>
        <time>2014-09-13T09:59:31Z</time>
      </trkpt>
      <trkpt lat="42.92766" lon="0.31716">
        <ele>1600.76</ele>
        <time>2014-09-13T09:59:33Z</time>
      </trkpt>
      <trkpt lat="42.92747" lon="0.31712">
        <ele>1600.144</ele>
        <time>2014-09-13T09:59:38Z</time>
      </trkpt>
      <trkpt lat="42.92743" lon="0.31709">
        <ele>1600.339</ele>
        <time>2014-09-13T09:59:42Z</time>
      </trkpt>
      <trkpt lat="42.92745" lon="0.31715">
        <ele>1601.117</ele>
        <time>2014-09-13T10:02:44Z</time>
      </trkpt>
      <trkpt lat="42.92743" lon="0.31712">
        <ele>1601.107</ele>
        <time>2014-09-13T10:02:45Z</time>
      </trkpt>
      <trkpt lat="42.92732" lon="0.31704">
        <ele>1601.147</ele>
        <time>2014-09-13T10:02:49Z</time>
      </trkpt>
      <trkpt lat="42.92709" lon="0.31684">
        <ele>1601.057</ele>
        <time>2014-09-13T10:02:55Z</time>
      </trkpt>
      <trkpt lat="42.92693" lon="0.31672">
        <ele>1600.739</ele>
        <time>2014-09-13T10:03:00Z</time>
      </trkpt>
      <trkpt lat="42.92677" lon="0.31655">
        <ele>1601.207</ele>
        <time>2014-09-13T10:03:06Z</time>
      </trkpt>
      <trkpt lat="42.92667" lon="0.31641">
        <ele>1601.241</ele>
        <time>2014-09-13T10:03:11Z</time>
      </trkpt>
      <trkpt lat="42.92662" lon="0.31634">
        <ele>1601.079</ele>
        <time>2014-09-13T10:03:13Z</time>
      </trkpt>
      <trkpt lat="42.9265" lon="0.31609">
        <ele>1599.58</ele>
        <time>2014-09-13T10:03:19Z</time>
      </trkpt>
      <trkpt lat="42.92648" lon="0.31607">
        <ele>1598.327</ele>
        <time>2014-09-13T10:03:23Z</time>
      </trkpt>
      <trkpt lat="42.92647" lon="0.31604">
        <ele>1597.095</ele>
        <time>2014-09-13T10:03:45Z</time>
      </trkpt>
      <trkpt lat="42.92645" lon="0.31603">
        <ele>1597.075</ele>
        <time>2014-09-13T10:03:46Z</time>
      </trkpt>
      <trkpt lat="42.92636" lon="0.31588">
        <ele>1596.712</ele>
        <time>2014-09-13T10:03:50Z</time>
      </trkpt>
      <trkpt lat="42.92619" lon="0.31559">
        <ele>1594.853</ele>
        <time>2014-09-13T10:03:54Z</time>
      </trkpt>
      <trkpt lat="42.92614" lon="0.31552">
        <ele>1594.26</ele>
        <time>2014-09-13T10:03:55Z</time>
      </trkpt>
      <trkpt lat="42.92596" lon="0.31519">
        <ele>1590.9</ele>
        <time>2014-09-13T10:04:00Z</time>
      </trkpt>
      <trkpt lat="42.92587" lon="0.315">
        <ele>1588.637</ele>
        <time>2014-09-13T10:04:03Z</time>
      </trkpt>
      <trkpt lat="42.92574" lon="0.31468">
        <ele>1585.317</ele>
        <time>2014-09-13T10:04:09Z</time>
      </trkpt>
      <trkpt lat="42.92571" lon="0.31456">
        <ele>1584.557</ele>
        <time>2014-09-13T10:04:11Z</time>
      </trkpt>
      <trkpt lat="42.92561" lon="0.31433">
        <ele>1583.109</ele>
        <time>2014-09-13T10:04:15Z</time>
      </trkpt>
      <trkpt lat="42.92547" lon="0.31397">
        <ele>1580.917</ele>
        <time>2014-09-13T10:04:22Z</time>
      </trkpt>
      <trkpt lat="42.92532" lon="0.31373">
        <ele>1579.648</ele>
        <time>2014-09-13T10:04:27Z</time>
      </trkpt>
      <trkpt lat="42.92518" lon="0.31351">
        <ele>1578.071</ele>
        <time>2014-09-13T10:04:32Z</time>
      </trkpt>
      <trkpt lat="42.92509" lon="0.31342">
        <ele>1577.176</ele>
        <time>2014-09-13T10:04:36Z</time>
      </trkpt>
      <trkpt lat="42.92504" lon="0.31335">
        <ele>1576.939</ele>
        <time>2014-09-13T10:04:41Z</time>
      </trkpt>
      <trkpt lat="42.92502" lon="0.31333">
        <ele>1576.743</ele>
        <time>2014-09-13T10:04:44Z</time>
      </trkpt>
      <trkpt lat="42.925" lon="0.31335">
        <ele>1575.563</ele>
        <time>2014-09-13T10:05:00Z</time>
      </trkpt>
      <trkpt lat="42.925" lon="0.31336">
        <ele>1575.555</ele>
        <time>2014-09-13T10:05:01Z</time>
      </trkpt>
      <trkpt lat="42.925" lon="0.31336">
        <ele>1575.612</ele>
        <time>2014-09-13T10:05:02Z</time>
      </trkpt>
      <trkpt lat="42.92505" lon="0.3134">
        <ele>1574.648</ele>
        <time>2014-09-13T10:06:36Z</time>
      </trkpt>
      <trkpt lat="42.92515" lon="0.31351">
        <ele>1574.275</ele>
        <time>2014-09-13T10:06:44Z</time>
      </trkpt>
      <trkpt lat="42.92527" lon="0.31364">
        <ele>1574.474</ele>
        <time>2014-09-13T10:06:53Z</time>
      </trkpt>
      <trkpt lat="42.92538" lon="0.31375">
        <ele>1574.995</ele>
        <time>2014-09-13T10:07:00Z</time>
      </trkpt>
      <trkpt lat="42.92548" lon="0.31384">
        <ele>1575.953</ele>
        <time>2014-09-13T10:07:07Z</time>
      </trkpt>
      <trkpt lat="42.92556" lon="0.31394">
        <ele>1576.728</ele>
        <time>2014-09-13T10:07:14Z</time>
      </trkpt>
      <trkpt lat="42.92561" lon="0.31406">
        <ele>1577.466</ele>
        <time>2014-09-13T10:07:20Z</time>
      </trkpt>
      <trkpt lat="42.92566" lon="0.31416">
        <ele>1579.003</ele>
        <time>2014-09-13T10:07:28Z</time>
      </trkpt>
      <trkpt lat="42.92569" lon="0.31425">
        <ele>1579.479</ele>
        <time>2014-09-13T10:07:34Z</time>
      </trkpt>
      <trkpt lat="42.92576" lon="0.31442">
        <ele>1580.126</ele>
        <time>2014-09-13T10:07:43Z</time>
      </trkpt>
      <trkpt lat="42.92577" lon="0.31451">
        <ele>1580.728</ele>
        <time>2014-09-13T10:07:50Z</time>
      </trkpt>
      <trkpt lat="42.92579" lon="0.31458">
        <ele>1581.214</ele>
        <time>2014-09-13T10:07:56Z</time>
      </trkpt>
      <trkpt lat="42.9258" lon="0.31459">
        <ele>1581.31</ele>
        <time>2014-09-13T10:07:57Z</time>
      </trkpt>
      <trkpt lat="42.92583" lon="0.31468">
        <ele>1581.783</ele>
        <time>2014-09-13T10:08:02Z</time>
      </trkpt>
      <trkpt lat="42.92589" lon="0.31483">
        <ele>1583.117</ele>
        <time>2014-09-13T10:08:12Z</time>
      </trkpt>
      <trkpt lat="42.92594" lon="0.31493">
        <ele>1584.092</ele>
        <time>2014-09-13T10:08:19Z</time>
      </trkpt>
      <trkpt lat="42.92601" lon="0.31506">
        <ele>1584.701</ele>
        <time>2014-09-13T10:08:26Z</time>
      </trkpt>
      <trkpt lat="42.92607" lon="0.31517">
        <ele>1585.47</ele>
        <time>2014-09-13T10:08:32Z</time>
      </trkpt>
      <trkpt lat="42.92613" lon="0.31537">
        <ele>1586.734</ele>
        <time>2014-09-13T10:08:39Z</time>
      </trkpt>
      <trkpt lat="42.92624" lon="0.31555">
        <ele>1589.145</ele>
        <time>2014-09-13T10:08:47Z</time>
      </trkpt>
      <trkpt lat="42.92627" lon="0.31565">
        <ele>1590.158</ele>
        <time>2014-09-13T10:08:51Z</time>
      </trkpt>
      <trkpt lat="42.92637" lon="0.3158">
        <ele>1591.958</ele>
        <time>2014-09-13T10:08:59Z</time>
      </trkpt>
      <trkpt lat="42.92642" lon="0.31591">
        <ele>1593.107</ele>
        <time>2014-09-13T10:09:05Z</time>
      </trkpt>
      <trkpt lat="42.9265" lon="0.31604">
        <ele>1595.377</ele>
        <time>2014-09-13T10:09:12Z</time>
      </trkpt>
      <trkpt lat="42.92651" lon="0.31606">
        <ele>1595.611</ele>
        <time>2014-09-13T10:09:13Z</time>
      </trkpt>
      <trkpt lat="42.92656" lon="0.31615">
        <ele>1596.005</ele>
        <time>2014-09-13T10:09:17Z</time>
      </trkpt>
      <trkpt lat="42.92663" lon="0.31628">
        <ele>1597.069</ele>
        <time>2014-09-13T10:09:24Z</time>
      </trkpt>
      <trkpt lat="42.92669" lon="0.31638">
        <ele>1597.833</ele>
        <time>2014-09-13T10:09:30Z</time>
      </trkpt>
      <trkpt lat="42.92679" lon="0.31651">
        <ele>1598.8</ele>
        <time>2014-09-13T10:09:37Z</time>
      </trkpt>
      <trkpt lat="42.9269" lon="0.31667">
        <ele>1598.898</ele>
        <time>2014-09-13T10:09:45Z</time>
      </trkpt>
      <trkpt lat="42.9269" lon="0.3167">
        <ele>1598.975</ele>
        <time>2014-09-13T10:09:50Z</time>
      </trkpt>
      <trkpt lat="42.92687" lon="0.31669">
        <ele>1599.307</ele>
        <time>2014-09-13T10:09:54Z</time>
      </trkpt>
      <trkpt lat="42.92672" lon="0.31661">
        <ele>1599.527</ele>
        <time>2014-09-13T10:10:06Z</time>
      </trkpt>
      <trkpt lat="42.92667" lon="0.31658">
        <ele>1600.585</ele>
        <time>2014-09-13T10:10:10Z</time>
      </trkpt>
      <trkpt lat="42.92664" lon="0.31657">
        <ele>1601.489</ele>
        <time>2014-09-13T10:10:13Z</time>
      </trkpt>
      <trkpt lat="42.92655" lon="0.3165">
        <ele>1602.55</ele>
        <time>2014-09-13T10:10:20Z</time>
      </trkpt>
      <trkpt lat="42.92646" lon="0.31643">
        <ele>1603.246</ele>
        <time>2014-09-13T10:10:25Z</time>
      </trkpt>
      <trkpt lat="42.92633" lon="0.31632">
        <ele>1604.743</ele>
        <time>2014-09-13T10:10:32Z</time>
      </trkpt>
      <trkpt lat="42.9262" lon="0.31621">
        <ele>1605.445</ele>
        <time>2014-09-13T10:10:40Z</time>
      </trkpt>
      <trkpt lat="42.92613" lon="0.31616">
        <ele>1606.162</ele>
        <time>2014-09-13T10:10:46Z</time>
      </trkpt>
      <trkpt lat="42.92609" lon="0.31613">
        <ele>1607.419</ele>
        <time>2014-09-13T10:12:06Z</time>
      </trkpt>
      <trkpt lat="42.92608" lon="0.31612">
        <ele>1607.375</ele>
        <time>2014-09-13T10:12:07Z</time>
      </trkpt>
      <trkpt lat="42.92594" lon="0.31597">
        <ele>1607.279</ele>
        <time>2014-09-13T10:12:13Z</time>
      </trkpt>
      <trkpt lat="42.92575" lon="0.3158">
        <ele>1608.978</ele>
        <time>2014-09-13T10:12:21Z</time>
      </trkpt>
      <trkpt lat="42.92565" lon="0.31572">
        <ele>1610.094</ele>
        <time>2014-09-13T10:12:26Z</time>
      </trkpt>
      <trkpt lat="42.92553" lon="0.31561">
        <ele>1611.903</ele>
        <time>2014-09-13T10:12:32Z</time>
      </trkpt>
      <trkpt lat="42.92544" lon="0.31547">
        <ele>1613.283</ele>
        <time>2014-09-13T10:12:37Z</time>
      </trkpt>
      <trkpt lat="42.92527" lon="0.31522">
        <ele>1615.616</ele>
        <time>2014-09-13T10:12:46Z</time>
      </trkpt>
      <trkpt lat="42.92512" lon="0.31499">
        <ele>1617.044</ele>
        <time>2014-09-13T10:12:55Z</time>
      </trkpt>
      <trkpt lat="42.92494" lon="0.31479">
        <ele>1619.5</ele>
        <time>2014-09-13T10:13:05Z</time>
      </trkpt>
      <trkpt lat="42.92478" lon="0.3146">
        <ele>1621.889</ele>
        <time>2014-09-13T10:13:14Z</time>
      </trkpt>
      <trkpt lat="42.92464" lon="0.31442">
        <ele>1623.722</ele>
        <time>2014-09-13T10:13:23Z</time>
      </trkpt>
      <trkpt lat="42.92452" lon="0.31429">
        <ele>1625.587</ele>
        <time>2014-09-13T10:13:30Z</time>
      </trkpt>
      <trkpt lat="42.92438" lon="0.31417">
        <ele>1627.155</ele>
        <time>2014-09-13T10:13:37Z</time>
      </trkpt>
      <trkpt lat="42.92422" lon="0.31405">
        <ele>1628.276</ele>
        <time>2014-09-13T10:13:45Z</time>
      </trkpt>
      <trkpt lat="42.92408" lon="0.31393">
        <ele>1629.007</ele>
        <time>2014-09-13T10:13:52Z</time>
      </trkpt>
      <trkpt lat="42.92397" lon="0.31381">
        <ele>1629.757</ele>
        <time>2014-09-13T10:13:59Z</time>
      </trkpt>
      <trkpt lat="42.92395" lon="0.31379">
        <ele>1629.853</ele>
        <time>2014-09-13T10:14:00Z</time>
      </trkpt>
      <trkpt lat="42.9239" lon="0.31378">
        <ele>1631.004</ele>
        <time>2014-09-13T10:14:05Z</time>
      </trkpt>
      <trkpt lat="42.92389" lon="0.31378">
        <ele>1631.376</ele>
        <time>2014-09-13T10:14:08Z</time>
      </trkpt>
      <trkpt lat="42.92379" lon="0.31369">
        <ele>1631.721</ele>
        <time>2014-09-13T10:14:15Z</time>
      </trkpt>
      <trkpt lat="42.92364" lon="0.31355">
        <ele>1632.744</ele>
        <time>2014-09-13T10:14:23Z</time>
      </trkpt>
      <trkpt lat="42.92351" lon="0.31335">
        <ele>1633.672</ele>
        <time>2014-09-13T10:14:32Z</time>
      </trkpt>
      <trkpt lat="42.92345" lon="0.31321">
        <ele>1633.35</ele>
        <time>2014-09-13T10:14:37Z</time>
      </trkpt>
      <trkpt lat="42.92337" lon="0.31317">
        <ele>1633.029</ele>
        <time>2014-09-13T10:14:42Z</time>
      </trkpt>
      <trkpt lat="42.92331" lon="0.31311">
        <ele>1633.912</ele>
        <time>2014-09-13T10:14:47Z</time>
      </trkpt>
      <trkpt lat="42.92325" lon="0.31306">
        <ele>1635.125</ele>
        <time>2014-09-13T10:14:52Z</time>
      </trkpt>
      <trkpt lat="42.9232" lon="0.31302">
        <ele>1635.979</ele>
        <time>2014-09-13T10:14:57Z</time>
      </trkpt>
      <trkpt lat="42.9232" lon="0.31302">
        <ele>1636.327</ele>
        <time>2014-09-13T10:14:58Z</time>
      </trkpt>
      <trkpt lat="42.92316" lon="0.31302">
        <ele>1636.625</ele>
        <time>2014-09-13T10:16:20Z</time>
      </trkpt>
      <trkpt lat="42.92315" lon="0.313">
        <ele>1636.65</ele>
        <time>2014-09-13T10:16:21Z</time>
      </trkpt>
      <trkpt lat="42.92306" lon="0.31286">
        <ele>1636.155</ele>
        <time>2014-09-13T10:16:26Z</time>
      </trkpt>
      <trkpt lat="42.92303" lon="0.31281">
        <ele>1635.956</ele>
        <time>2014-09-13T10:16:27Z</time>
      </trkpt>
      <trkpt lat="42.9229" lon="0.31264">
        <ele>1635.422</ele>
        <time>2014-09-13T10:16:32Z</time>
      </trkpt>
      <trkpt lat="42.9228" lon="0.31256">
        <ele>1635.158</ele>
        <time>2014-09-13T10:16:37Z</time>
      </trkpt>
      <trkpt lat="42.92268" lon="0.31249">
        <ele>1635.218</ele>
        <time>2014-09-13T10:16:41Z</time>
      </trkpt>
      <trkpt lat="42.92255" lon="0.31243">
        <ele>1635.768</ele>
        <time>2014-09-13T10:16:46Z</time>
      </trkpt>
      <trkpt lat="42.92238" lon="0.31229">
        <ele>1637.398</ele>
        <time>2014-09-13T10:16:53Z</time>
      </trkpt>
      <trkpt lat="42.92222" lon="0.31213">
        <ele>1637.813</ele>
        <time>2014-09-13T10:16:58Z</time>
      </trkpt>
      <trkpt lat="42.92202" lon="0.31192">
        <ele>1637.123</ele>
        <time>2014-09-13T10:17:04Z</time>
      </trkpt>
      <trkpt lat="42.92188" lon="0.31179">
        <ele>1637.238</ele>
        <time>2014-09-13T10:17:10Z</time>
      </trkpt>
      <trkpt lat="42.92185" lon="0.31178">
        <ele>1637.779</ele>
        <time>2014-09-13T10:17:14Z</time>
      </trkpt>
      <trkpt lat="42.92183" lon="0.31179">
        <ele>1637.824</ele>
        <time>2014-09-13T10:17:17Z</time>
      </trkpt>
      <trkpt lat="42.92182" lon="0.31179">
        <ele>1637.747</ele>
        <time>2014-09-13T10:17:18Z</time>
      </trkpt>
      <trkpt lat="42.92179" lon="0.31174">
        <ele>1637.951</ele>
        <time>2014-09-13T10:17:26Z</time>
      </trkpt>
      <trkpt lat="42.92173" lon="0.31166">
        <ele>1637.838</ele>
        <time>2014-09-13T10:17:31Z</time>
      </trkpt>
      <trkpt lat="42.92158" lon="0.31143">
        <ele>1637.387</ele>
        <time>2014-09-13T10:17:38Z</time>
      </trkpt>
      <trkpt lat="42.92147" lon="0.31118">
        <ele>1637.429</ele>
        <time>2014-09-13T10:17:44Z</time>
      </trkpt>
      <trkpt lat="42.92138" lon="0.31095">
        <ele>1637.934</ele>
        <time>2014-09-13T10:17:50Z</time>
      </trkpt>
      <trkpt lat="42.92135" lon="0.31066">
        <ele>1638.128</ele>
        <time>2014-09-13T10:17:56Z</time>
      </trkpt>
      <trkpt lat="42.92133" lon="0.31041">
        <ele>1637.936</ele>
        <time>2014-09-13T10:18:02Z</time>
      </trkpt>
      <trkpt lat="42.92134" lon="0.31016">
        <ele>1638.531</ele>
        <time>2014-09-13T10:18:08Z</time>
      </trkpt>
      <trkpt lat="42.92134" lon="0.31005">
        <ele>1638.549</ele>
        <time>2014-09-13T10:18:10Z</time>
      </trkpt>
      <trkpt lat="42.92134" lon="0.30973">
        <ele>1638.304</ele>
        <time>2014-09-13T10:18:16Z</time>
      </trkpt>
      <trkpt lat="42.92136" lon="0.30939">
        <ele>1638.505</ele>
        <time>2014-09-13T10:18:23Z</time>
      </trkpt>
      <trkpt lat="42.92138" lon="0.30919">
        <ele>1638.086</ele>
        <time>2014-09-13T10:18:27Z</time>
      </trkpt>
      <trkpt lat="42.9214" lon="0.30908">
        <ele>1637.825</ele>
        <time>2014-09-13T10:18:29Z</time>
      </trkpt>
      <trkpt lat="42.92142" lon="0.30878">
        <ele>1636.382</ele>
        <time>2014-09-13T10:18:33Z</time>
      </trkpt>
      <trkpt lat="42.92142" lon="0.30851">
        <ele>1633.649</ele>
        <time>2014-09-13T10:18:38Z</time>
      </trkpt>
      <trkpt lat="42.92141" lon="0.30831">
        <ele>1632.166</ele>
        <time>2014-09-13T10:18:42Z</time>
      </trkpt>
      <trkpt lat="42.92136" lon="0.30809">
        <ele>1630.638</ele>
        <time>2014-09-13T10:18:45Z</time>
      </trkpt>
      <trkpt lat="42.92126" lon="0.30782">
        <ele>1629.405</ele>
        <time>2014-09-13T10:18:50Z</time>
      </trkpt>
      <trkpt lat="42.92121" lon="0.30769">
        <ele>1629.283</ele>
        <time>2014-09-13T10:18:54Z</time>
      </trkpt>
      <trkpt lat="42.92109" lon="0.30746">
        <ele>1628.509</ele>
        <time>2014-09-13T10:19:00Z</time>
      </trkpt>
      <trkpt lat="42.92105" lon="0.30737">
        <ele>1628.142</ele>
        <time>2014-09-13T10:19:02Z</time>
      </trkpt>
      <trkpt lat="42.92091" lon="0.30714">
        <ele>1627.32</ele>
        <time>2014-09-13T10:19:08Z</time>
      </trkpt>
      <trkpt lat="42.92074" lon="0.30695">
        <ele>1627.279</ele>
        <time>2014-09-13T10:19:15Z</time>
      </trkpt>
      <trkpt lat="42.92072" lon="0.30693">
        <ele>1627.447</ele>
        <time>2014-09-13T10:19:16Z</time>
      </trkpt>
      <trkpt lat="42.92064" lon="0.30683">
        <ele>1627.93</ele>
        <time>2014-09-13T10:19:20Z</time>
      </trkpt>
      <trkpt lat="42.92055" lon="0.30673">
        <ele>1628.132</ele>
        <time>2014-09-13T10:19:23Z</time>
      </trkpt>
      <trkpt lat="42.92046" lon="0.30663">
        <ele>1628.042</ele>
        <time>2014-09-13T10:19:26Z</time>
      </trkpt>
      <trkpt lat="42.92032" lon="0.30651">
        <ele>1627.998</ele>
        <time>2014-09-13T10:19:31Z</time>
      </trkpt>
      <trkpt lat="42.92027" lon="0.30647">
        <ele>1627.931</ele>
        <time>2014-09-13T10:19:33Z</time>
      </trkpt>
      <trkpt lat="42.92001" lon="0.30628">
        <ele>1628.103</ele>
        <time>2014-09-13T10:19:42Z</time>
      </trkpt>
      <trkpt lat="42.91977" lon="0.30611">
        <ele>1628.175</ele>
        <time>2014-09-13T10:19:48Z</time>
      </trkpt>
      <trkpt lat="42.91969" lon="0.30605">
        <ele>1628.218</ele>
        <time>2014-09-13T10:19:50Z</time>
      </trkpt>
      <trkpt lat="42.91946" lon="0.30603">
        <ele>1627.729</ele>
        <time>2014-09-13T10:19:55Z</time>
      </trkpt>
      <trkpt lat="42.9193" lon="0.30604">
        <ele>1627.405</ele>
        <time>2014-09-13T10:19:58Z</time>
      </trkpt>
      <trkpt lat="42.91896" lon="0.30611">
        <ele>1627.074</ele>
        <time>2014-09-13T10:20:05Z</time>
      </trkpt>
      <trkpt lat="42.91874" lon="0.30619">
        <ele>1627.438</ele>
        <time>2014-09-13T10:20:10Z</time>
      </trkpt>
      <trkpt lat="42.91866" lon="0.30622">
        <ele>1627.587</ele>
        <time>2014-09-13T10:20:12Z</time>
      </trkpt>
      <trkpt lat="42.91851" lon="0.30625">
        <ele>1627.829</ele>
        <time>2014-09-13T10:20:15Z</time>
      </trkpt>
      <trkpt lat="42.91841" lon="0.3063">
        <ele>1627.839</ele>
        <time>2014-09-13T10:20:17Z</time>
      </trkpt>
      <trkpt lat="42.91827" lon="0.30635">
        <ele>1627.714</ele>
        <time>2014-09-13T10:20:20Z</time>
      </trkpt>
      <trkpt lat="42.91816" lon="0.30638">
        <ele>1627.649</ele>
        <time>2014-09-13T10:20:22Z</time>
      </trkpt>
      <trkpt lat="42.91805" lon="0.30641">
        <ele>1627.661</ele>
        <time>2014-09-13T10:20:24Z</time>
      </trkpt>
      <trkpt lat="42.91792" lon="0.30644">
        <ele>1627.489</ele>
        <time>2014-09-13T10:20:26Z</time>
      </trkpt>
      <trkpt lat="42.91775" lon="0.30646">
        <ele>1626.875</ele>
        <time>2014-09-13T10:20:29Z</time>
      </trkpt>
      <trkpt lat="42.91753" lon="0.30656">
        <ele>1625.36</ele>
        <time>2014-09-13T10:20:33Z</time>
      </trkpt>
      <trkpt lat="42.91735" lon="0.30665">
        <ele>1624.366</ele>
        <time>2014-09-13T10:20:36Z</time>
      </trkpt>
      <trkpt lat="42.91712" lon="0.30677">
        <ele>1623.764</ele>
        <time>2014-09-13T10:20:40Z</time>
      </trkpt>
      <trkpt lat="42.91702" lon="0.30683">
        <ele>1623.395</ele>
        <time>2014-09-13T10:20:42Z</time>
      </trkpt>
      <trkpt lat="42.91679" lon="0.30704">
        <ele>1622.629</ele>
        <time>2014-09-13T10:20:47Z</time>
      </trkpt>
      <trkpt lat="42.9167" lon="0.30712">
        <ele>1622.502</ele>
        <time>2014-09-13T10:20:49Z</time>
      </trkpt>
      <trkpt lat="42.91647" lon="0.30746">
        <ele>1622.605</ele>
        <time>2014-09-13T10:20:55Z</time>
      </trkpt>
      <trkpt lat="42.91636" lon="0.30765">
        <ele>1622.575</ele>
        <time>2014-09-13T10:20:58Z</time>
      </trkpt>
      <trkpt lat="42.91629" lon="0.30796">
        <ele>1622.486</ele>
        <time>2014-09-13T10:21:03Z</time>
      </trkpt>
      <trkpt lat="42.91627" lon="0.30814">
        <ele>1622.589</ele>
        <time>2014-09-13T10:21:06Z</time>
      </trkpt>
      <trkpt lat="42.91629" lon="0.30856">
        <ele>1622.84</ele>
        <time>2014-09-13T10:21:13Z</time>
      </trkpt>
      <trkpt lat="42.91628" lon="0.30874">
        <ele>1622.883</ele>
        <time>2014-09-13T10:21:16Z</time>
      </trkpt>
      <trkpt lat="42.9163" lon="0.30886">
        <ele>1622.4</ele>
        <time>2014-09-13T10:21:18Z</time>
      </trkpt>
      <trkpt lat="42.91633" lon="0.30925">
        <ele>1620.752</ele>
        <time>2014-09-13T10:21:24Z</time>
      </trkpt>
      <trkpt lat="42.91632" lon="0.30936">
        <ele>1620.374</ele>
        <time>2014-09-13T10:21:26Z</time>
      </trkpt>
      <trkpt lat="42.91631" lon="0.3096">
        <ele>1617.581</ele>
        <time>2014-09-13T10:21:32Z</time>
      </trkpt>
      <trkpt lat="42.91631" lon="0.30961">
        <ele>1616.422</ele>
        <time>2014-09-13T10:21:34Z</time>
      </trkpt>
      <trkpt lat="42.91631" lon="0.30964">
        <ele>1615.606</ele>
        <time>2014-09-13T10:21:40Z</time>
      </trkpt>
      <trkpt lat="42.91628" lon="0.30965">
        <ele>1615.365</ele>
        <time>2014-09-13T10:21:45Z</time>
      </trkpt>
      <trkpt lat="42.91623" lon="0.30967">
        <ele>1615.242</ele>
        <time>2014-09-13T10:22:00Z</time>
      </trkpt>
      <trkpt lat="42.91622" lon="0.30967">
        <ele>1615.299</ele>
        <time>2014-09-13T10:22:02Z</time>
      </trkpt>
      <trkpt lat="42.91622" lon="0.30966">
        <ele>1615.544</ele>
        <time>2014-09-13T10:23:03Z</time>
      </trkpt>
      <trkpt lat="42.91622" lon="0.30966">
        <ele>1615.434</ele>
        <time>2014-09-13T10:23:04Z</time>
      </trkpt>
      <trkpt lat="42.91618" lon="0.30969">
        <ele>1615.302</ele>
        <time>2014-09-13T10:23:12Z</time>
      </trkpt>
      <trkpt lat="42.91614" lon="0.30973">
        <ele>1616.472</ele>
        <time>2014-09-13T10:25:39Z</time>
      </trkpt>
      <trkpt lat="42.91612" lon="0.30975">
        <ele>1616.432</ele>
        <time>2014-09-13T10:25:40Z</time>
      </trkpt>
      <trkpt lat="42.91603" lon="0.30984">
        <ele>1616.063</ele>
        <time>2014-09-13T10:25:44Z</time>
      </trkpt>
      <trkpt lat="42.91594" lon="0.30999">
        <ele>1615.602</ele>
        <time>2014-09-13T10:25:48Z</time>
      </trkpt>
      <trkpt lat="42.91581" lon="0.31023">
        <ele>1615.246</ele>
        <time>2014-09-13T10:25:53Z</time>
      </trkpt>
      <trkpt lat="42.91577" lon="0.31023">
        <ele>1615.151</ele>
        <time>2014-09-13T10:25:54Z</time>
      </trkpt>
      <trkpt lat="42.91555" lon="0.31026">
        <ele>1614.436</ele>
        <time>2014-09-13T10:26:00Z</time>
      </trkpt>
      <trkpt lat="42.91524" lon="0.31033">
        <ele>1613.888</ele>
        <time>2014-09-13T10:26:08Z</time>
      </trkpt>
      <trkpt lat="42.91515" lon="0.31034">
        <ele>1613.854</ele>
        <time>2014-09-13T10:26:10Z</time>
      </trkpt>
      <trkpt lat="42.91506" lon="0.31034">
        <ele>1613.867</ele>
        <time>2014-09-13T10:26:12Z</time>
      </trkpt>
      <trkpt lat="42.91481" lon="0.31038">
        <ele>1613.71</ele>
        <time>2014-09-13T10:26:17Z</time>
      </trkpt>
      <trkpt lat="42.91456" lon="0.31035">
        <ele>1613.307</ele>
        <time>2014-09-13T10:26:22Z</time>
      </trkpt>
      <trkpt lat="42.91432" lon="0.31033">
        <ele>1612.974</ele>
        <time>2014-09-13T10:26:28Z</time>
      </trkpt>
      <trkpt lat="42.91421" lon="0.31028">
        <ele>1612.85</ele>
        <time>2014-09-13T10:26:31Z</time>
      </trkpt>
      <trkpt lat="42.91405" lon="0.31018">
        <ele>1611.789</ele>
        <time>2014-09-13T10:26:36Z</time>
      </trkpt>
      <trkpt lat="42.91394" lon="0.31012">
        <ele>1610.371</ele>
        <time>2014-09-13T10:26:41Z</time>
      </trkpt>
      <trkpt lat="42.9139" lon="0.31005">
        <ele>1610.155</ele>
        <time>2014-09-13T10:26:43Z</time>
      </trkpt>
      <trkpt lat="42.91366" lon="0.30988">
        <ele>1607.943</ele>
        <time>2014-09-13T10:26:49Z</time>
      </trkpt>
      <trkpt lat="42.91358" lon="0.3098">
        <ele>1606.983</ele>
        <time>2014-09-13T10:26:51Z</time>
      </trkpt>
      <trkpt lat="42.91343" lon="0.3096">
        <ele>1605.837</ele>
        <time>2014-09-13T10:26:55Z</time>
      </trkpt>
      <trkpt lat="42.91328" lon="0.30946">
        <ele>1605.556</ele>
        <time>2014-09-13T10:27:00Z</time>
      </trkpt>
      <trkpt lat="42.91319" lon="0.30938">
        <ele>1605.452</ele>
        <time>2014-09-13T10:27:03Z</time>
      </trkpt>
      <trkpt lat="42.9131" lon="0.30908">
        <ele>1604.523</ele>
        <time>2014-09-13T10:27:09Z</time>
      </trkpt>
      <trkpt lat="42.91305" lon="0.30897">
        <ele>1604.246</ele>
        <time>2014-09-13T10:27:13Z</time>
      </trkpt>
      <trkpt lat="42.91302" lon="0.30883">
        <ele>1605.875</ele>
        <time>2014-09-13T10:27:20Z</time>
      </trkpt>
      <trkpt lat="42.91299" lon="0.30873">
        <ele>1607.394</ele>
        <time>2014-09-13T10:27:25Z</time>
      </trkpt>
      <trkpt lat="42.91298" lon="0.30853">
        <ele>1609.39</ele>
        <time>2014-09-13T10:27:34Z</time>
      </trkpt>
      <trkpt lat="42.91299" lon="0.30841">
        <ele>1609.758</ele>
        <time>2014-09-13T10:27:38Z</time>
      </trkpt>
      <trkpt lat="42.91296" lon="0.30823">
        <ele>1609.941</ele>
        <time>2014-09-13T10:27:45Z</time>
      </trkpt>
      <trkpt lat="42.91292" lon="0.30808">
        <ele>1611.096</ele>
        <time>2014-09-13T10:27:52Z</time>
      </trkpt>
      <trkpt lat="42.9129" lon="0.30799">
        <ele>1611.767</ele>
        <time>2014-09-13T10:27:57Z</time>
      </trkpt>
      <trkpt lat="42.91286" lon="0.30786">
        <ele>1612.73</ele>
        <time>2014-09-13T10:28:03Z</time>
      </trkpt>
      <trkpt lat="42.91279" lon="0.30773">
        <ele>1612.984</ele>
        <time>2014-09-13T10:28:09Z</time>
      </trkpt>
      <trkpt lat="42.91276" lon="0.30766">
        <ele>1613.021</ele>
        <time>2014-09-13T10:28:13Z</time>
      </trkpt>
      <trkpt lat="42.91259" lon="0.30744">
        <ele>1612.571</ele>
        <time>2014-09-13T10:28:21Z</time>
      </trkpt>
      <trkpt lat="42.91244" lon="0.30728">
        <ele>1612.486</ele>
        <time>2014-09-13T10:28:26Z</time>
      </trkpt>
      <trkpt lat="42.91238" lon="0.30722">
        <ele>1612.87</ele>
        <time>2014-09-13T10:28:29Z</time>
      </trkpt>
      <trkpt lat="42.9123" lon="0.30705">
        <ele>1613.479</ele>
        <time>2014-09-13T10:28:35Z</time>
      </trkpt>
      <trkpt lat="42.91224" lon="0.3069">
        <ele>1613.728</ele>
        <time>2014-09-13T10:28:40Z</time>
      </trkpt>
      <trkpt lat="42.91214" lon="0.30679">
        <ele>1614.229</ele>
        <time>2014-09-13T10:28:45Z</time>
      </trkpt>
      <trkpt lat="42.91207" lon="0.3067">
        <ele>1614.941</ele>
        <time>2014-09-13T10:28:50Z</time>
      </trkpt>
      <trkpt lat="42.91185" lon="0.30662">
        <ele>1615.882</ele>
        <time>2014-09-13T10:28:59Z</time>
      </trkpt>
      <trkpt lat="42.91163" lon="0.30657">
        <ele>1616.791</ele>
        <time>2014-09-13T10:29:06Z</time>
      </trkpt>
      <trkpt lat="42.91134" lon="0.3065">
        <ele>1617.41</ele>
        <time>2014-09-13T10:29:14Z</time>
      </trkpt>
      <trkpt lat="42.9111" lon="0.30639">
        <ele>1618.51</ele>
        <time>2014-09-13T10:29:21Z</time>
      </trkpt>
      <trkpt lat="42.91096" lon="0.30634">
        <ele>1618.655</ele>
        <time>2014-09-13T10:29:25Z</time>
      </trkpt>
      <trkpt lat="42.91084" lon="0.3063">
        <ele>1618.343</ele>
        <time>2014-09-13T10:29:28Z</time>
      </trkpt>
      <trkpt lat="42.91075" lon="0.30629">
        <ele>1618.036</ele>
        <time>2014-09-13T10:29:30Z</time>
      </trkpt>
      <trkpt lat="42.91065" lon="0.30629">
        <ele>1617.826</ele>
        <time>2014-09-13T10:29:32Z</time>
      </trkpt>
      <trkpt lat="42.91045" lon="0.3063">
        <ele>1617.491</ele>
        <time>2014-09-13T10:29:37Z</time>
      </trkpt>
      <trkpt lat="42.91025" lon="0.30631">
        <ele>1617.709</ele>
        <time>2014-09-13T10:29:42Z</time>
      </trkpt>
      <trkpt lat="42.91021" lon="0.30632">
        <ele>1617.673</ele>
        <time>2014-09-13T10:29:43Z</time>
      </trkpt>
      <trkpt lat="42.90996" lon="0.30638">
        <ele>1617.517</ele>
        <time>2014-09-13T10:29:49Z</time>
      </trkpt>
      <trkpt lat="42.90985" lon="0.30643">
        <ele>1617.471</ele>
        <time>2014-09-13T10:29:52Z</time>
      </trkpt>
      <trkpt lat="42.90963" lon="0.30651">
        <ele>1617.558</ele>
        <time>2014-09-13T10:29:58Z</time>
      </trkpt>
      <trkpt lat="42.90948" lon="0.30655">
        <ele>1617.095</ele>
        <time>2014-09-13T10:30:02Z</time>
      </trkpt>
      <trkpt lat="42.9094" lon="0.30657">
        <ele>1616.972</ele>
        <time>2014-09-13T10:30:04Z</time>
      </trkpt>
      <trkpt lat="42.90913" lon="0.30665">
        <ele>1616.467</ele>
        <time>2014-09-13T10:30:10Z</time>
      </trkpt>
      <trkpt lat="42.90898" lon="0.30672">
        <ele>1616.136</ele>
        <time>2014-09-13T10:30:13Z</time>
      </trkpt>
      <trkpt lat="42.90868" lon="0.30677">
        <ele>1615.01</ele>
        <time>2014-09-13T10:30:19Z</time>
      </trkpt>
      <trkpt lat="42.90852" lon="0.30675">
        <ele>1614.71</ele>
        <time>2014-09-13T10:30:22Z</time>
      </trkpt>
      <trkpt lat="42.90833" lon="0.30666">
        <ele>1613.164</ele>
        <time>2014-09-13T10:30:27Z</time>
      </trkpt>
      <trkpt lat="42.90832" lon="0.30665">
        <ele>1612.299</ele>
        <time>2014-09-13T10:30:29Z</time>
      </trkpt>
      <trkpt lat="42.90828" lon="0.30664">
        <ele>1612.005</ele>
        <time>2014-09-13T10:34:43Z</time>
      </trkpt>
      <trkpt lat="42.90825" lon="0.30653">
        <ele>1611.574</ele>
        <time>2014-09-13T10:34:47Z</time>
      </trkpt>
      <trkpt lat="42.90811" lon="0.30632">
        <ele>1611.046</ele>
        <time>2014-09-13T10:34:53Z</time>
      </trkpt>
      <trkpt lat="42.90802" lon="0.30617">
        <ele>1611.818</ele>
        <time>2014-09-13T10:34:58Z</time>
      </trkpt>
      <trkpt lat="42.90785" lon="0.30595">
        <ele>1612.412</ele>
        <time>2014-09-13T10:35:05Z</time>
      </trkpt>
      <trkpt lat="42.90777" lon="0.30577">
        <ele>1612.831</ele>
        <time>2014-09-13T10:35:10Z</time>
      </trkpt>
      <trkpt lat="42.90767" lon="0.30552">
        <ele>1612.84</ele>
        <time>2014-09-13T10:35:15Z</time>
      </trkpt>
      <trkpt lat="42.90751" lon="0.30529">
        <ele>1611.514</ele>
        <time>2014-09-13T10:35:21Z</time>
      </trkpt>
      <trkpt lat="42.90736" lon="0.30518">
        <ele>1608.163</ele>
        <time>2014-09-13T10:35:26Z</time>
      </trkpt>
      <trkpt lat="42.90726" lon="0.30514">
        <ele>1605.551</ele>
        <time>2014-09-13T10:35:29Z</time>
      </trkpt>
      <trkpt lat="42.90717" lon="0.30514">
        <ele>1604.668</ele>
        <time>2014-09-13T10:35:31Z</time>
      </trkpt>
      <trkpt lat="42.90696" lon="0.30519">
        <ele>1601.172</ele>
        <time>2014-09-13T10:35:36Z</time>
      </trkpt>
      <trkpt lat="42.9067" lon="0.30516">
        <ele>1598.514</ele>
        <time>2014-09-13T10:35:41Z</time>
      </trkpt>
      <trkpt lat="42.90652" lon="0.30504">
        <ele>1595.198</ele>
        <time>2014-09-13T10:35:45Z</time>
      </trkpt>
      <trkpt lat="42.90641" lon="0.30496">
        <ele>1592.505</ele>
        <time>2014-09-13T10:35:48Z</time>
      </trkpt>
      <trkpt lat="42.90632" lon="0.30491">
        <ele>1590.796</ele>
        <time>2014-09-13T10:35:50Z</time>
      </trkpt>
      <trkpt lat="42.90616" lon="0.30488">
        <ele>1587.538</ele>
        <time>2014-09-13T10:35:54Z</time>
      </trkpt>
      <trkpt lat="42.90608" lon="0.30486">
        <ele>1585.95</ele>
        <time>2014-09-13T10:35:56Z</time>
      </trkpt>
      <trkpt lat="42.90587" lon="0.30484">
        <ele>1582.89</ele>
        <time>2014-09-13T10:36:01Z</time>
      </trkpt>
      <trkpt lat="42.90577" lon="0.30481">
        <ele>1580.717</ele>
        <time>2014-09-13T10:36:04Z</time>
      </trkpt>
      <trkpt lat="42.90559" lon="0.30469">
        <ele>1577.27</ele>
        <time>2014-09-13T10:36:10Z</time>
      </trkpt>
      <trkpt lat="42.90558" lon="0.30469">
        <ele>1575.773</ele>
        <time>2014-09-13T10:36:13Z</time>
      </trkpt>
      <trkpt lat="42.90555" lon="0.30468">
        <ele>1574.859</ele>
        <time>2014-09-13T10:36:19Z</time>
      </trkpt>
      <trkpt lat="42.90553" lon="0.30469">
        <ele>1574.152</ele>
        <time>2014-09-13T10:36:23Z</time>
      </trkpt>
      <trkpt lat="42.90549" lon="0.30468">
        <ele>1573.755</ele>
        <time>2014-09-13T10:36:27Z</time>
      </trkpt>
      <trkpt lat="42.90541" lon="0.30468">
        <ele>1573.37</ele>
        <time>2014-09-13T10:36:30Z</time>
      </trkpt>
      <trkpt lat="42.90514" lon="0.30476">
        <ele>1571.898</ele>
        <time>2014-09-13T10:36:35Z</time>
      </trkpt>
      <trkpt lat="42.90485" lon="0.30487">
        <ele>1569.316</ele>
        <time>2014-09-13T10:36:40Z</time>
      </trkpt>
      <trkpt lat="42.90462" lon="0.30492">
        <ele>1566.499</ele>
        <time>2014-09-13T10:36:44Z</time>
      </trkpt>
      <trkpt lat="42.9045" lon="0.30491">
        <ele>1564.868</ele>
        <time>2014-09-13T10:36:46Z</time>
      </trkpt>
      <trkpt lat="42.90428" lon="0.30496">
        <ele>1561.62</ele>
        <time>2014-09-13T10:36:51Z</time>
      </trkpt>
      <trkpt lat="42.90408" lon="0.30498">
        <ele>1558.992</ele>
        <time>2014-09-13T10:36:55Z</time>
      </trkpt>
      <trkpt lat="42.90396" lon="0.30499">
        <ele>1557.473</ele>
        <time>2014-09-13T10:36:57Z</time>
      </trkpt>
      <trkpt lat="42.9037" lon="0.30505">
        <ele>1553.947</ele>
        <time>2014-09-13T10:37:02Z</time>
      </trkpt>
      <trkpt lat="42.90334" lon="0.30512">
        <ele>1550.802</ele>
        <time>2014-09-13T10:37:07Z</time>
      </trkpt>
      <trkpt lat="42.90311" lon="0.30511">
        <ele>1548.491</ele>
        <time>2014-09-13T10:37:10Z</time>
      </trkpt>
      <trkpt lat="42.9029" lon="0.30513">
        <ele>1546.979</ele>
        <time>2014-09-13T10:37:13Z</time>
      </trkpt>
      <trkpt lat="42.9028" lon="0.30511">
        <ele>1545.977</ele>
        <time>2014-09-13T10:37:15Z</time>
      </trkpt>
      <trkpt lat="42.90254" lon="0.3051">
        <ele>1545.894</ele>
        <time>2014-09-13T10:37:23Z</time>
      </trkpt>
      <trkpt lat="42.90234" lon="0.30515">
        <ele>1547.089</ele>
        <time>2014-09-13T10:37:30Z</time>
      </trkpt>
      <trkpt lat="42.90217" lon="0.30522">
        <ele>1548.306</ele>
        <time>2014-09-13T10:37:36Z</time>
      </trkpt>
      <trkpt lat="42.902" lon="0.30533">
        <ele>1549.177</ele>
        <time>2014-09-13T10:37:42Z</time>
      </trkpt>
      <trkpt lat="42.90185" lon="0.30546">
        <ele>1550.046</ele>
        <time>2014-09-13T10:37:47Z</time>
      </trkpt>
      <trkpt lat="42.90168" lon="0.30562">
        <ele>1550.42</ele>
        <time>2014-09-13T10:37:53Z</time>
      </trkpt>
      <trkpt lat="42.90149" lon="0.30571">
        <ele>1550.615</ele>
        <time>2014-09-13T10:38:00Z</time>
      </trkpt>
      <trkpt lat="42.90134" lon="0.30575">
        <ele>1550.75</ele>
        <time>2014-09-13T10:38:06Z</time>
      </trkpt>
      <trkpt lat="42.90128" lon="0.30571">
        <ele>1550.271</ele>
        <time>2014-09-13T10:38:10Z</time>
      </trkpt>
      <trkpt lat="42.90128" lon="0.30571">
        <ele>1550.085</ele>
        <time>2014-09-13T10:38:11Z</time>
      </trkpt>
      <trkpt lat="42.90116" lon="0.30567">
        <ele>1549.967</ele>
        <time>2014-09-13T10:38:23Z</time>
      </trkpt>
      <trkpt lat="42.90111" lon="0.30569">
        <ele>1550.526</ele>
        <time>2014-09-13T10:38:27Z</time>
      </trkpt>
      <trkpt lat="42.90103" lon="0.30576">
        <ele>1551.777</ele>
        <time>2014-09-13T10:38:34Z</time>
      </trkpt>
      <trkpt lat="42.90092" lon="0.30576">
        <ele>1554.156</ele>
        <time>2014-09-13T10:38:42Z</time>
      </trkpt>
      <trkpt lat="42.90081" lon="0.30572">
        <ele>1556.503</ele>
        <time>2014-09-13T10:38:51Z</time>
      </trkpt>
      <trkpt lat="42.90069" lon="0.30566">
        <ele>1558.129</ele>
        <time>2014-09-13T10:39:00Z</time>
      </trkpt>
      <trkpt lat="42.90059" lon="0.30562">
        <ele>1559.207</ele>
        <time>2014-09-13T10:39:08Z</time>
      </trkpt>
      <trkpt lat="42.90052" lon="0.30564">
        <ele>1560.672</ele>
        <time>2014-09-13T10:39:14Z</time>
      </trkpt>
      <trkpt lat="42.90045" lon="0.30563">
        <ele>1561.784</ele>
        <time>2014-09-13T10:39:20Z</time>
      </trkpt>
      <trkpt lat="42.90044" lon="0.30562">
        <ele>1562.083</ele>
        <time>2014-09-13T10:39:21Z</time>
      </trkpt>
      <trkpt lat="42.90038" lon="0.30558">
        <ele>1562.909</ele>
        <time>2014-09-13T10:39:26Z</time>
      </trkpt>
      <trkpt lat="42.90039" lon="0.30566">
        <ele>1564.074</ele>
        <time>2014-09-13T10:39:31Z</time>
      </trkpt>
      <trkpt lat="42.90041" lon="0.30585">
        <ele>1564.887</ele>
        <time>2014-09-13T10:39:39Z</time>
      </trkpt>
      <trkpt lat="42.90035" lon="0.30594">
        <ele>1565.474</ele>
        <time>2014-09-13T10:39:46Z</time>
      </trkpt>
      <trkpt lat="42.90032" lon="0.30594">
        <ele>1565.914</ele>
        <time>2014-09-13T10:39:48Z</time>
      </trkpt>
      <trkpt lat="42.90021" lon="0.30583">
        <ele>1567.364</ele>
        <time>2014-09-13T10:39:59Z</time>
      </trkpt>
      <trkpt lat="42.90014" lon="0.30578">
        <ele>1568.009</ele>
        <time>2014-09-13T10:40:07Z</time>
      </trkpt>
      <trkpt lat="42.90013" lon="0.30576">
        <ele>1568.288</ele>
        <time>2014-09-13T10:40:08Z</time>
      </trkpt>
      <trkpt lat="42.90014" lon="0.30561">
        <ele>1569.293</ele>
        <time>2014-09-13T10:40:16Z</time>
      </trkpt>
      <trkpt lat="42.90014" lon="0.30559">
        <ele>1569.711</ele>
        <time>2014-09-13T10:40:19Z</time>
      </trkpt>
      <trkpt lat="42.90014" lon="0.30562">
        <ele>1569.236</ele>
        <time>2014-09-13T10:40:49Z</time>
      </trkpt>
      <trkpt lat="42.90014" lon="0.30564">
        <ele>1569.651</ele>
        <time>2014-09-13T10:40:53Z</time>
      </trkpt>
      <trkpt lat="42.90012" lon="0.30579">
        <ele>1568.853</ele>
        <time>2014-09-13T10:41:22Z</time>
      </trkpt>
      <trkpt lat="42.90012" lon="0.3058">
        <ele>1568.73</ele>
        <time>2014-09-13T10:41:23Z</time>
      </trkpt>
      <trkpt lat="42.90017" lon="0.30585">
        <ele>1568.678</ele>
        <time>2014-09-13T10:41:27Z</time>
      </trkpt>
      <trkpt lat="42.90026" lon="0.30589">
        <ele>1568.573</ele>
        <time>2014-09-13T10:41:32Z</time>
      </trkpt>
      <trkpt lat="42.90026" lon="0.30589">
        <ele>1568.222</ele>
        <time>2014-09-13T10:41:34Z</time>
      </trkpt>
      <trkpt lat="42.90032" lon="0.30592">
        <ele>1567.584</ele>
        <time>2014-09-13T10:42:15Z</time>
      </trkpt>
      <trkpt lat="42.90033" lon="0.30595">
        <ele>1567.206</ele>
        <time>2014-09-13T10:42:17Z</time>
      </trkpt>
      <trkpt lat="42.90035" lon="0.30598">
        <ele>1566.708</ele>
        <time>2014-09-13T10:42:20Z</time>
      </trkpt>
      <trkpt lat="42.90035" lon="0.30598">
        <ele>1566.523</ele>
        <time>2014-09-13T10:42:21Z</time>
      </trkpt>
      <trkpt lat="42.9004" lon="0.30593">
        <ele>1566.156</ele>
        <time>2014-09-13T10:44:35Z</time>
      </trkpt>
      <trkpt lat="42.90042" lon="0.30595">
        <ele>1565.58</ele>
        <time>2014-09-13T10:44:39Z</time>
      </trkpt>
      <trkpt lat="42.90051" lon="0.30595">
        <ele>1564.744</ele>
        <time>2014-09-13T10:47:34Z</time>
      </trkpt>
      <trkpt lat="42.90045" lon="0.30577">
        <ele>1564.505</ele>
        <time>2014-09-13T10:49:02Z</time>
      </trkpt>
      <trkpt lat="42.9004" lon="0.3056">
        <ele>1563.878</ele>
        <time>2014-09-13T10:49:08Z</time>
      </trkpt>
      <trkpt lat="42.90032" lon="0.30539">
        <ele>1563.66</ele>
        <time>2014-09-13T10:49:15Z</time>
      </trkpt>
      <trkpt lat="42.90023" lon="0.30514">
        <ele>1563.655</ele>
        <time>2014-09-13T10:49:23Z</time>
      </trkpt>
      <trkpt lat="42.90012" lon="0.30482">
        <ele>1563.51</ele>
        <time>2014-09-13T10:49:32Z</time>
      </trkpt>
      <trkpt lat="42.89997" lon="0.30453">
        <ele>1562.883</ele>
        <time>2014-09-13T10:49:40Z</time>
      </trkpt>
      <trkpt lat="42.89992" lon="0.30445">
        <ele>1562.778</ele>
        <time>2014-09-13T10:49:42Z</time>
      </trkpt>
      <trkpt lat="42.89991" lon="0.30421">
        <ele>1562.537</ele>
        <time>2014-09-13T10:49:46Z</time>
      </trkpt>
      <trkpt lat="42.89991" lon="0.30416">
        <ele>1562.266</ele>
        <time>2014-09-13T10:49:47Z</time>
      </trkpt>
      <trkpt lat="42.89986" lon="0.30399">
        <ele>1561.309</ele>
        <time>2014-09-13T10:49:54Z</time>
      </trkpt>
      <trkpt lat="42.89977" lon="0.30389">
        <ele>1561.148</ele>
        <time>2014-09-13T10:49:58Z</time>
      </trkpt>
      <trkpt lat="42.89967" lon="0.30377">
        <ele>1561.046</ele>
        <time>2014-09-13T10:50:04Z</time>
      </trkpt>
      <trkpt lat="42.89955" lon="0.30369">
        <ele>1561.505</ele>
        <time>2014-09-13T10:50:11Z</time>
      </trkpt>
      <trkpt lat="42.89945" lon="0.30358">
        <ele>1562.325</ele>
        <time>2014-09-13T10:50:19Z</time>
      </trkpt>
      <trkpt lat="42.89929" lon="0.30339">
        <ele>1562.894</ele>
        <time>2014-09-13T10:50:30Z</time>
      </trkpt>
      <trkpt lat="42.89919" lon="0.30325">
        <ele>1563.624</ele>
        <time>2014-09-13T10:50:38Z</time>
      </trkpt>
      <trkpt lat="42.89909" lon="0.30312">
        <ele>1564.621</ele>
        <time>2014-09-13T10:50:45Z</time>
      </trkpt>
      <trkpt lat="42.89894" lon="0.30293">
        <ele>1566.104</ele>
        <time>2014-09-13T10:50:55Z</time>
      </trkpt>
      <trkpt lat="42.89883" lon="0.30279">
        <ele>1566.778</ele>
        <time>2014-09-13T10:51:02Z</time>
      </trkpt>
      <trkpt lat="42.89872" lon="0.30263">
        <ele>1567.666</ele>
        <time>2014-09-13T10:51:09Z</time>
      </trkpt>
      <trkpt lat="42.89862" lon="0.30253">
        <ele>1568.512</ele>
        <time>2014-09-13T10:51:16Z</time>
      </trkpt>
      <trkpt lat="42.8985" lon="0.30241">
        <ele>1570.116</ele>
        <time>2014-09-13T10:51:24Z</time>
      </trkpt>
      <trkpt lat="42.89841" lon="0.30226">
        <ele>1571.481</ele>
        <time>2014-09-13T10:51:31Z</time>
      </trkpt>
      <trkpt lat="42.89829" lon="0.30212">
        <ele>1572.711</ele>
        <time>2014-09-13T10:51:38Z</time>
      </trkpt>
      <trkpt lat="42.89815" lon="0.30195">
        <ele>1573.592</ele>
        <time>2014-09-13T10:51:46Z</time>
      </trkpt>
      <trkpt lat="42.89802" lon="0.30177">
        <ele>1574.565</ele>
        <time>2014-09-13T10:51:54Z</time>
      </trkpt>
      <trkpt lat="42.89787" lon="0.30157">
        <ele>1574.318</ele>
        <time>2014-09-13T10:52:03Z</time>
      </trkpt>
      <trkpt lat="42.89773" lon="0.30147">
        <ele>1573.957</ele>
        <time>2014-09-13T10:52:08Z</time>
      </trkpt>
      <trkpt lat="42.89769" lon="0.30143">
        <ele>1573.853</ele>
        <time>2014-09-13T10:52:10Z</time>
      </trkpt>
      <trkpt lat="42.89769" lon="0.30131">
        <ele>1573.544</ele>
        <time>2014-09-13T10:52:14Z</time>
      </trkpt>
      <trkpt lat="42.89771" lon="0.3013">
        <ele>1573.591</ele>
        <time>2014-09-13T10:52:15Z</time>
      </trkpt>
      <trkpt lat="42.89781" lon="0.30114">
        <ele>1573.982</ele>
        <time>2014-09-13T10:52:21Z</time>
      </trkpt>
      <trkpt lat="42.8979" lon="0.30107">
        <ele>1575.01</ele>
        <time>2014-09-13T10:52:26Z</time>
      </trkpt>
      <trkpt lat="42.898" lon="0.30096">
        <ele>1577.1</ele>
        <time>2014-09-13T10:52:32Z</time>
      </trkpt>
      <trkpt lat="42.8981" lon="0.30079">
        <ele>1578.996</ele>
        <time>2014-09-13T10:52:40Z</time>
      </trkpt>
      <trkpt lat="42.89824" lon="0.3006">
        <ele>1580.248</ele>
        <time>2014-09-13T10:52:49Z</time>
      </trkpt>
      <trkpt lat="42.89833" lon="0.30045">
        <ele>1581.61</ele>
        <time>2014-09-13T10:52:57Z</time>
      </trkpt>
      <trkpt lat="42.89844" lon="0.30027">
        <ele>1583.198</ele>
        <time>2014-09-13T10:53:06Z</time>
      </trkpt>
      <trkpt lat="42.89853" lon="0.30007">
        <ele>1584.74</ele>
        <time>2014-09-13T10:53:15Z</time>
      </trkpt>
      <trkpt lat="42.89862" lon="0.29994">
        <ele>1586.062</ele>
        <time>2014-09-13T10:53:22Z</time>
      </trkpt>
      <trkpt lat="42.8987" lon="0.29979">
        <ele>1587.993</ele>
        <time>2014-09-13T10:53:30Z</time>
      </trkpt>
      <trkpt lat="42.8988" lon="0.29965">
        <ele>1588.676</ele>
        <time>2014-09-13T10:53:38Z</time>
      </trkpt>
      <trkpt lat="42.89886" lon="0.29951">
        <ele>1589.304</ele>
        <time>2014-09-13T10:53:44Z</time>
      </trkpt>
      <trkpt lat="42.89897" lon="0.29932">
        <ele>1589.932</ele>
        <time>2014-09-13T10:53:53Z</time>
      </trkpt>
      <trkpt lat="42.8991" lon="0.29913">
        <ele>1590.158</ele>
        <time>2014-09-13T10:54:02Z</time>
      </trkpt>
      <trkpt lat="42.8992" lon="0.29899">
        <ele>1590.354</ele>
        <time>2014-09-13T10:54:09Z</time>
      </trkpt>
      <trkpt lat="42.89929" lon="0.29886">
        <ele>1590.884</ele>
        <time>2014-09-13T10:54:16Z</time>
      </trkpt>
      <trkpt lat="42.8994" lon="0.29872">
        <ele>1592.125</ele>
        <time>2014-09-13T10:54:25Z</time>
      </trkpt>
      <trkpt lat="42.89948" lon="0.29858">
        <ele>1594.51</ele>
        <time>2014-09-13T10:54:33Z</time>
      </trkpt>
      <trkpt lat="42.89953" lon="0.29843">
        <ele>1596.101</ele>
        <time>2014-09-13T10:54:40Z</time>
      </trkpt>
      <trkpt lat="42.89958" lon="0.29828">
        <ele>1597.286</ele>
        <time>2014-09-13T10:54:47Z</time>
      </trkpt>
      <trkpt lat="42.89965" lon="0.29802">
        <ele>1597.868</ele>
        <time>2014-09-13T10:54:58Z</time>
      </trkpt>
      <trkpt lat="42.89969" lon="0.29779">
        <ele>1598.967</ele>
        <time>2014-09-13T10:55:08Z</time>
      </trkpt>
      <trkpt lat="42.89973" lon="0.29757">
        <ele>1600.327</ele>
        <time>2014-09-13T10:55:17Z</time>
      </trkpt>
      <trkpt lat="42.89977" lon="0.29734">
        <ele>1601.667</ele>
        <time>2014-09-13T10:55:26Z</time>
      </trkpt>
      <trkpt lat="42.89981" lon="0.2971">
        <ele>1603.469</ele>
        <time>2014-09-13T10:55:35Z</time>
      </trkpt>
      <trkpt lat="42.89984" lon="0.2969">
        <ele>1604.196</ele>
        <time>2014-09-13T10:55:43Z</time>
      </trkpt>
      <trkpt lat="42.89988" lon="0.29668">
        <ele>1605.178</ele>
        <time>2014-09-13T10:55:52Z</time>
      </trkpt>
      <trkpt lat="42.89989" lon="0.29652">
        <ele>1606.331</ele>
        <time>2014-09-13T10:56:00Z</time>
      </trkpt>
      <trkpt lat="42.89989" lon="0.29652">
        <ele>1606.451</ele>
        <time>2014-09-13T10:56:01Z</time>
      </trkpt>
      <trkpt lat="42.89993" lon="0.2965">
        <ele>1606.732</ele>
        <time>2014-09-13T10:56:57Z</time>
      </trkpt>
      <trkpt lat="42.90003" lon="0.29644">
        <ele>1605.464</ele>
        <time>2014-09-13T10:57:01Z</time>
      </trkpt>
      <trkpt lat="42.90015" lon="0.29643">
        <ele>1602.422</ele>
        <time>2014-09-13T10:57:05Z</time>
      </trkpt>
      <trkpt lat="42.90031" lon="0.29637">
        <ele>1597.262</ele>
        <time>2014-09-13T10:57:10Z</time>
      </trkpt>
      <trkpt lat="42.90057" lon="0.29629">
        <ele>1589.386</ele>
        <time>2014-09-13T10:57:17Z</time>
      </trkpt>
      <trkpt lat="42.90066" lon="0.29628">
        <ele>1588.103</ele>
        <time>2014-09-13T10:57:19Z</time>
      </trkpt>
      <trkpt lat="42.90094" lon="0.29626">
        <ele>1577.677</ele>
        <time>2014-09-13T10:57:26Z</time>
      </trkpt>
      <trkpt lat="42.90114" lon="0.29618">
        <ele>1570.644</ele>
        <time>2014-09-13T10:57:31Z</time>
      </trkpt>
      <trkpt lat="42.90137" lon="0.29609">
        <ele>1562.759</ele>
        <time>2014-09-13T10:57:37Z</time>
      </trkpt>
      <trkpt lat="42.90149" lon="0.29605">
        <ele>1558.952</ele>
        <time>2014-09-13T10:57:40Z</time>
      </trkpt>
      <trkpt lat="42.90171" lon="0.29606">
        <ele>1553.36</ele>
        <time>2014-09-13T10:57:45Z</time>
      </trkpt>
      <trkpt lat="42.90193" lon="0.29611">
        <ele>1544.048</ele>
        <time>2014-09-13T10:57:51Z</time>
      </trkpt>
      <trkpt lat="42.902" lon="0.29603">
        <ele>1539.015</ele>
        <time>2014-09-13T10:57:55Z</time>
      </trkpt>
      <trkpt lat="42.90204" lon="0.2959">
        <ele>1537.104</ele>
        <time>2014-09-13T10:58:03Z</time>
      </trkpt>
      <trkpt lat="42.90207" lon="0.29582">
        <ele>1536.564</ele>
        <time>2014-09-13T10:58:17Z</time>
      </trkpt>
      <trkpt lat="42.90213" lon="0.29569">
        <ele>1535.647</ele>
        <time>2014-09-13T10:58:23Z</time>
      </trkpt>
      <trkpt lat="42.90213" lon="0.29567">
        <ele>1535.514</ele>
        <time>2014-09-13T10:58:24Z</time>
      </trkpt>
      <trkpt lat="42.90211" lon="0.29547">
        <ele>1534.54</ele>
        <time>2014-09-13T10:58:32Z</time>
      </trkpt>
      <trkpt lat="42.90209" lon="0.29538">
        <ele>1534.641</ele>
        <time>2014-09-13T10:58:38Z</time>
      </trkpt>
      <trkpt lat="42.90208" lon="0.29538">
        <ele>1534.658</ele>
        <time>2014-09-13T10:58:39Z</time>
      </trkpt>
      <trkpt lat="42.902" lon="0.29537">
        <ele>1535.977</ele>
        <time>2014-09-13T10:58:50Z</time>
      </trkpt>
      <trkpt lat="42.902" lon="0.29536">
        <ele>1536.136</ele>
        <time>2014-09-13T10:58:51Z</time>
      </trkpt>
      <trkpt lat="42.90196" lon="0.29525">
        <ele>1536.572</ele>
        <time>2014-09-13T10:58:57Z</time>
      </trkpt>
      <trkpt lat="42.90192" lon="0.29518">
        <ele>1536.53</ele>
        <time>2014-09-13T10:59:00Z</time>
      </trkpt>
      <trkpt lat="42.90185" lon="0.29501">
        <ele>1536.681</ele>
        <time>2014-09-13T10:59:06Z</time>
      </trkpt>
      <trkpt lat="42.90168" lon="0.29469">
        <ele>1536.696</ele>
        <time>2014-09-13T10:59:15Z</time>
      </trkpt>
      <trkpt lat="42.90159" lon="0.29457">
        <ele>1536.562</ele>
        <time>2014-09-13T10:59:20Z</time>
      </trkpt>
      <trkpt lat="42.90149" lon="0.2944">
        <ele>1536.448</ele>
        <time>2014-09-13T10:59:25Z</time>
      </trkpt>
      <trkpt lat="42.90135" lon="0.29421">
        <ele>1536.287</ele>
        <time>2014-09-13T10:59:31Z</time>
      </trkpt>
      <trkpt lat="42.90119" lon="0.29404">
        <ele>1536.116</ele>
        <time>2014-09-13T10:59:37Z</time>
      </trkpt>
      <trkpt lat="42.90109" lon="0.29393">
        <ele>1536.066</ele>
        <time>2014-09-13T10:59:41Z</time>
      </trkpt>
      <trkpt lat="42.90106" lon="0.29391">
        <ele>1536.061</ele>
        <time>2014-09-13T10:59:42Z</time>
      </trkpt>
      <trkpt lat="42.90093" lon="0.29374">
        <ele>1535.242</ele>
        <time>2014-09-13T10:59:47Z</time>
      </trkpt>
      <trkpt lat="42.90082" lon="0.29363">
        <ele>1534.415</ele>
        <time>2014-09-13T10:59:51Z</time>
      </trkpt>
      <trkpt lat="42.9008" lon="0.29363">
        <ele>1533.639</ele>
        <time>2014-09-13T10:59:54Z</time>
      </trkpt>
      <trkpt lat="42.90083" lon="0.29365">
        <ele>1532.359</ele>
        <time>2014-09-13T11:00:13Z</time>
      </trkpt>
      <trkpt lat="42.90086" lon="0.29367">
        <ele>1532.595</ele>
        <time>2014-09-13T11:00:19Z</time>
      </trkpt>
      <trkpt lat="42.90086" lon="0.29367">
        <ele>1532.525</ele>
        <time>2014-09-13T11:00:20Z</time>
      </trkpt>
      <trkpt lat="42.90083" lon="0.29342">
        <ele>1529.943</ele>
        <time>2014-09-13T11:00:30Z</time>
      </trkpt>
      <trkpt lat="42.90083" lon="0.29313">
        <ele>1522.976</ele>
        <time>2014-09-13T11:00:35Z</time>
      </trkpt>
      <trkpt lat="42.90084" lon="0.29307">
        <ele>1521.337</ele>
        <time>2014-09-13T11:00:36Z</time>
      </trkpt>
      <trkpt lat="42.90087" lon="0.29296">
        <ele>1518.101</ele>
        <time>2014-09-13T11:00:38Z</time>
      </trkpt>
      <trkpt lat="42.90092" lon="0.29279">
        <ele>1515.393</ele>
        <time>2014-09-13T11:00:41Z</time>
      </trkpt>
      <trkpt lat="42.90092" lon="0.29274">
        <ele>1514.318</ele>
        <time>2014-09-13T11:00:42Z</time>
      </trkpt>
      <trkpt lat="42.90093" lon="0.29265">
        <ele>1511.149</ele>
        <time>2014-09-13T11:00:46Z</time>
      </trkpt>
      <trkpt lat="42.90097" lon="0.29264">
        <ele>1509.48</ele>
        <time>2014-09-13T11:01:01Z</time>
      </trkpt>
      <trkpt lat="42.90101" lon="0.29262">
        <ele>1509.025</ele>
        <time>2014-09-13T11:01:06Z</time>
      </trkpt>
      <trkpt lat="42.90101" lon="0.29262">
        <ele>1508.878</ele>
        <time>2014-09-13T11:01:07Z</time>
      </trkpt>
      <trkpt lat="42.90109" lon="0.29254">
        <ele>1509.339</ele>
        <time>2014-09-13T11:02:10Z</time>
      </trkpt>
      <trkpt lat="42.90112" lon="0.29249">
        <ele>1509.732</ele>
        <time>2014-09-13T11:02:18Z</time>
      </trkpt>
      <trkpt lat="42.9011" lon="0.29248">
        <ele>1510.742</ele>
        <time>2014-09-13T11:03:01Z</time>
      </trkpt>
      <trkpt lat="42.9011" lon="0.29248">
        <ele>1510.665</ele>
        <time>2014-09-13T11:03:02Z</time>
      </trkpt>
      <trkpt lat="42.90127" lon="0.29248">
        <ele>1509.975</ele>
        <time>2014-09-13T11:03:10Z</time>
      </trkpt>
      <trkpt lat="42.90143" lon="0.29251">
        <ele>1509.505</ele>
        <time>2014-09-13T11:03:15Z</time>
      </trkpt>
      <trkpt lat="42.90164" lon="0.29248">
        <ele>1509.1</ele>
        <time>2014-09-13T11:03:21Z</time>
      </trkpt>
      <trkpt lat="42.90178" lon="0.29251">
        <ele>1508.918</ele>
        <time>2014-09-13T11:03:25Z</time>
      </trkpt>
      <trkpt lat="42.902" lon="0.29259">
        <ele>1509.197</ele>
        <time>2014-09-13T11:03:32Z</time>
      </trkpt>
      <trkpt lat="42.90215" lon="0.2926">
        <ele>1509.82</ele>
        <time>2014-09-13T11:03:37Z</time>
      </trkpt>
      <trkpt lat="42.90219" lon="0.29258">
        <ele>1509.799</ele>
        <time>2014-09-13T11:03:41Z</time>
      </trkpt>
      <trkpt lat="42.9023" lon="0.29257">
        <ele>1509.511</ele>
        <time>2014-09-13T11:03:46Z</time>
      </trkpt>
      <trkpt lat="42.90247" lon="0.29254">
        <ele>1509.476</ele>
        <time>2014-09-13T11:03:52Z</time>
      </trkpt>
      <trkpt lat="42.90261" lon="0.29249">
        <ele>1509.41</ele>
        <time>2014-09-13T11:03:56Z</time>
      </trkpt>
      <trkpt lat="42.9028" lon="0.29247">
        <ele>1509.032</ele>
        <time>2014-09-13T11:04:00Z</time>
      </trkpt>
      <trkpt lat="42.90296" lon="0.29252">
        <ele>1508.348</ele>
        <time>2014-09-13T11:04:04Z</time>
      </trkpt>
      <trkpt lat="42.90322" lon="0.2927">
        <ele>1506.131</ele>
        <time>2014-09-13T11:04:11Z</time>
      </trkpt>
      <trkpt lat="42.90339" lon="0.29285">
        <ele>1504.22</ele>
        <time>2014-09-13T11:04:18Z</time>
      </trkpt>
      <trkpt lat="42.90358" lon="0.29295">
        <ele>1503.67</ele>
        <time>2014-09-13T11:04:25Z</time>
      </trkpt>
      <trkpt lat="42.90375" lon="0.29301">
        <ele>1503.347</ele>
        <time>2014-09-13T11:04:30Z</time>
      </trkpt>
      <trkpt lat="42.90393" lon="0.2931">
        <ele>1502.207</ele>
        <time>2014-09-13T11:04:34Z</time>
      </trkpt>
      <trkpt lat="42.90416" lon="0.29316">
        <ele>1499.629</ele>
        <time>2014-09-13T11:04:38Z</time>
      </trkpt>
      <trkpt lat="42.90449" lon="0.29331">
        <ele>1495.049</ele>
        <time>2014-09-13T11:04:43Z</time>
      </trkpt>
      <trkpt lat="42.90491" lon="0.2935">
        <ele>1489.59</ele>
        <time>2014-09-13T11:04:49Z</time>
      </trkpt>
      <trkpt lat="42.90512" lon="0.29363">
        <ele>1487.26</ele>
        <time>2014-09-13T11:04:52Z</time>
      </trkpt>
      <trkpt lat="42.90539" lon="0.29372">
        <ele>1485.12</ele>
        <time>2014-09-13T11:04:56Z</time>
      </trkpt>
      <trkpt lat="42.90557" lon="0.29382">
        <ele>1483.001</ele>
        <time>2014-09-13T11:04:59Z</time>
      </trkpt>
      <trkpt lat="42.90574" lon="0.29387">
        <ele>1480.755</ele>
        <time>2014-09-13T11:05:02Z</time>
      </trkpt>
      <trkpt lat="42.90583" lon="0.29391">
        <ele>1479.462</ele>
        <time>2014-09-13T11:05:04Z</time>
      </trkpt>
      <trkpt lat="42.90591" lon="0.29394">
        <ele>1478.417</ele>
        <time>2014-09-13T11:05:06Z</time>
      </trkpt>
      <trkpt lat="42.9061" lon="0.29396">
        <ele>1476.618</ele>
        <time>2014-09-13T11:05:10Z</time>
      </trkpt>
      <trkpt lat="42.90631" lon="0.29407">
        <ele>1474.329</ele>
        <time>2014-09-13T11:05:14Z</time>
      </trkpt>
      <trkpt lat="42.90644" lon="0.29411">
        <ele>1472.797</ele>
        <time>2014-09-13T11:05:16Z</time>
      </trkpt>
      <trkpt lat="42.90658" lon="0.29417">
        <ele>1471.936</ele>
        <time>2014-09-13T11:05:18Z</time>
      </trkpt>
      <trkpt lat="42.90664" lon="0.2942">
        <ele>1471.03</ele>
        <time>2014-09-13T11:05:19Z</time>
      </trkpt>
      <trkpt lat="42.90675" lon="0.29423">
        <ele>1469.06</ele>
        <time>2014-09-13T11:05:21Z</time>
      </trkpt>
      <trkpt lat="42.90698" lon="0.29433">
        <ele>1464.809</ele>
        <time>2014-09-13T11:05:25Z</time>
      </trkpt>
      <trkpt lat="42.90717" lon="0.29444">
        <ele>1461.543</ele>
        <time>2014-09-13T11:05:28Z</time>
      </trkpt>
      <trkpt lat="42.90726" lon="0.29452">
        <ele>1459.357</ele>
        <time>2014-09-13T11:05:30Z</time>
      </trkpt>
      <trkpt lat="42.90741" lon="0.29463">
        <ele>1456.495</ele>
        <time>2014-09-13T11:05:33Z</time>
      </trkpt>
      <trkpt lat="42.90761" lon="0.29479">
        <ele>1452.752</ele>
        <time>2014-09-13T11:05:37Z</time>
      </trkpt>
      <trkpt lat="42.90769" lon="0.29488">
        <ele>1450.87</ele>
        <time>2014-09-13T11:05:39Z</time>
      </trkpt>
      <trkpt lat="42.90774" lon="0.29508">
        <ele>1447.863</ele>
        <time>2014-09-13T11:05:43Z</time>
      </trkpt>
      <trkpt lat="42.90774" lon="0.29538">
        <ele>1444.485</ele>
        <time>2014-09-13T11:05:46Z</time>
      </trkpt>
      <trkpt lat="42.9077" lon="0.29588">
        <ele>1438.488</ele>
        <time>2014-09-13T11:05:51Z</time>
      </trkpt>
      <trkpt lat="42.90768" lon="0.29612">
        <ele>1436.108</ele>
        <time>2014-09-13T11:05:55Z</time>
      </trkpt>
      <trkpt lat="42.9077" lon="0.29616">
        <ele>1435.937</ele>
        <time>2014-09-13T11:05:58Z</time>
      </trkpt>
      <trkpt lat="42.90769" lon="0.29618">
        <ele>1434.964</ele>
        <time>2014-09-13T11:06:25Z</time>
      </trkpt>
      <trkpt lat="42.90769" lon="0.29618">
        <ele>1435.023</ele>
        <time>2014-09-13T11:06:26Z</time>
      </trkpt>
      <trkpt lat="42.90775" lon="0.29618">
        <ele>1435.949</ele>
        <time>2014-09-13T11:08:29Z</time>
      </trkpt>
      <trkpt lat="42.90777" lon="0.2962">
        <ele>1435.884</ele>
        <time>2014-09-13T11:08:30Z</time>
      </trkpt>
      <trkpt lat="42.90789" lon="0.29633">
        <ele>1435.141</ele>
        <time>2014-09-13T11:08:36Z</time>
      </trkpt>
      <trkpt lat="42.90815" lon="0.29653">
        <ele>1434.933</ele>
        <time>2014-09-13T11:08:46Z</time>
      </trkpt>
      <trkpt lat="42.90829" lon="0.29669">
        <ele>1434.543</ele>
        <time>2014-09-13T11:08:52Z</time>
      </trkpt>
      <trkpt lat="42.90845" lon="0.29687">
        <ele>1434.227</ele>
        <time>2014-09-13T11:08:59Z</time>
      </trkpt>
      <trkpt lat="42.90862" lon="0.29702">
        <ele>1434.384</ele>
        <time>2014-09-13T11:09:05Z</time>
      </trkpt>
      <trkpt lat="42.90897" lon="0.2972">
        <ele>1434.065</ele>
        <time>2014-09-13T11:09:15Z</time>
      </trkpt>
      <trkpt lat="42.90922" lon="0.2973">
        <ele>1433.794</ele>
        <time>2014-09-13T11:09:22Z</time>
      </trkpt>
      <trkpt lat="42.9096" lon="0.29742">
        <ele>1433.121</ele>
        <time>2014-09-13T11:09:32Z</time>
      </trkpt>
      <trkpt lat="42.90987" lon="0.29744">
        <ele>1432.957</ele>
        <time>2014-09-13T11:09:39Z</time>
      </trkpt>
      <trkpt lat="42.91019" lon="0.29744">
        <ele>1432.255</ele>
        <time>2014-09-13T11:09:47Z</time>
      </trkpt>
      <trkpt lat="42.91034" lon="0.29741">
        <ele>1432.282</ele>
        <time>2014-09-13T11:09:52Z</time>
      </trkpt>
      <trkpt lat="42.91044" lon="0.29749">
        <ele>1432.287</ele>
        <time>2014-09-13T11:09:56Z</time>
      </trkpt>
      <trkpt lat="42.91059" lon="0.29756">
        <ele>1431.688</ele>
        <time>2014-09-13T11:10:01Z</time>
      </trkpt>
      <trkpt lat="42.91093" lon="0.29758">
        <ele>1430.624</ele>
        <time>2014-09-13T11:10:08Z</time>
      </trkpt>
      <trkpt lat="42.9111" lon="0.29757">
        <ele>1429.903</ele>
        <time>2014-09-13T11:10:11Z</time>
      </trkpt>
      <trkpt lat="42.91127" lon="0.29754">
        <ele>1429.18</ele>
        <time>2014-09-13T11:10:14Z</time>
      </trkpt>
      <trkpt lat="42.91146" lon="0.29749">
        <ele>1427.83</ele>
        <time>2014-09-13T11:10:17Z</time>
      </trkpt>
      <trkpt lat="42.91176" lon="0.29735">
        <ele>1425.828</ele>
        <time>2014-09-13T11:10:21Z</time>
      </trkpt>
      <trkpt lat="42.91193" lon="0.29727">
        <ele>1423.783</ele>
        <time>2014-09-13T11:10:23Z</time>
      </trkpt>
      <trkpt lat="42.9123" lon="0.29718">
        <ele>1419.382</ele>
        <time>2014-09-13T11:10:27Z</time>
      </trkpt>
      <trkpt lat="42.91254" lon="0.29734">
        <ele>1416.182</ele>
        <time>2014-09-13T11:10:30Z</time>
      </trkpt>
      <trkpt lat="42.91277" lon="0.29755">
        <ele>1414.042</ele>
        <time>2014-09-13T11:10:33Z</time>
      </trkpt>
      <trkpt lat="42.91282" lon="0.29764">
        <ele>1412.958</ele>
        <time>2014-09-13T11:10:35Z</time>
      </trkpt>
      <trkpt lat="42.91283" lon="0.29766">
        <ele>1412.569</ele>
        <time>2014-09-13T11:10:36Z</time>
      </trkpt>
      <trkpt lat="42.91297" lon="0.29776">
        <ele>1411.136</ele>
        <time>2014-09-13T11:10:40Z</time>
      </trkpt>
      <trkpt lat="42.91317" lon="0.2978">
        <ele>1408.917</ele>
        <time>2014-09-13T11:10:44Z</time>
      </trkpt>
      <trkpt lat="42.91328" lon="0.29783">
        <ele>1408</ele>
        <time>2014-09-13T11:10:46Z</time>
      </trkpt>
      <trkpt lat="42.91338" lon="0.29777">
        <ele>1406.124</ele>
        <time>2014-09-13T11:10:49Z</time>
      </trkpt>
      <trkpt lat="42.91346" lon="0.2977">
        <ele>1405.512</ele>
        <time>2014-09-13T11:10:52Z</time>
      </trkpt>
      <trkpt lat="42.91367" lon="0.29756">
        <ele>1405.989</ele>
        <time>2014-09-13T11:10:59Z</time>
      </trkpt>
      <trkpt lat="42.91385" lon="0.29739">
        <ele>1405.707</ele>
        <time>2014-09-13T11:11:04Z</time>
      </trkpt>
      <trkpt lat="42.914" lon="0.29717">
        <ele>1406.413</ele>
        <time>2014-09-13T11:11:10Z</time>
      </trkpt>
      <trkpt lat="42.91411" lon="0.297">
        <ele>1407.106</ele>
        <time>2014-09-13T11:11:15Z</time>
      </trkpt>
      <trkpt lat="42.91426" lon="0.29684">
        <ele>1407.448</ele>
        <time>2014-09-13T11:11:20Z</time>
      </trkpt>
      <trkpt lat="42.91439" lon="0.29671">
        <ele>1406.866</ele>
        <time>2014-09-13T11:11:24Z</time>
      </trkpt>
      <trkpt lat="42.91451" lon="0.2966">
        <ele>1406.189</ele>
        <time>2014-09-13T11:11:27Z</time>
      </trkpt>
      <trkpt lat="42.91481" lon="0.29636">
        <ele>1403.301</ele>
        <time>2014-09-13T11:11:33Z</time>
      </trkpt>
      <trkpt lat="42.91497" lon="0.29624">
        <ele>1402.013</ele>
        <time>2014-09-13T11:11:36Z</time>
      </trkpt>
      <trkpt lat="42.91534" lon="0.29597">
        <ele>1397.541</ele>
        <time>2014-09-13T11:11:42Z</time>
      </trkpt>
      <trkpt lat="42.91562" lon="0.29577">
        <ele>1393.359</ele>
        <time>2014-09-13T11:11:47Z</time>
      </trkpt>
      <trkpt lat="42.91585" lon="0.29564">
        <ele>1389.985</ele>
        <time>2014-09-13T11:11:51Z</time>
      </trkpt>
      <trkpt lat="42.91617" lon="0.2955">
        <ele>1385.148</ele>
        <time>2014-09-13T11:11:56Z</time>
      </trkpt>
      <trkpt lat="42.91632" lon="0.29544">
        <ele>1382.938</ele>
        <time>2014-09-13T11:11:58Z</time>
      </trkpt>
      <trkpt lat="42.91648" lon="0.29539">
        <ele>1380.675</ele>
        <time>2014-09-13T11:12:00Z</time>
      </trkpt>
      <trkpt lat="42.91671" lon="0.29533">
        <ele>1377.739</ele>
        <time>2014-09-13T11:12:04Z</time>
      </trkpt>
      <trkpt lat="42.91681" lon="0.29531">
        <ele>1375.991</ele>
        <time>2014-09-13T11:12:08Z</time>
      </trkpt>
      <trkpt lat="42.91686" lon="0.29531">
        <ele>1376.543</ele>
        <time>2014-09-13T11:12:13Z</time>
      </trkpt>
      <trkpt lat="42.91703" lon="0.2954">
        <ele>1378.01</ele>
        <time>2014-09-13T11:12:20Z</time>
      </trkpt>
      <trkpt lat="42.91706" lon="0.29542">
        <ele>1378.37</ele>
        <time>2014-09-13T11:12:22Z</time>
      </trkpt>
      <trkpt lat="42.91715" lon="0.2955">
        <ele>1379.445</ele>
        <time>2014-09-13T11:12:29Z</time>
      </trkpt>
      <trkpt lat="42.91723" lon="0.29557">
        <ele>1380.671</ele>
        <time>2014-09-13T11:12:36Z</time>
      </trkpt>
      <trkpt lat="42.91732" lon="0.2957">
        <ele>1381.631</ele>
        <time>2014-09-13T11:12:42Z</time>
      </trkpt>
      <trkpt lat="42.91731" lon="0.29585">
        <ele>1383.257</ele>
        <time>2014-09-13T11:12:49Z</time>
      </trkpt>
      <trkpt lat="42.9173" lon="0.29591">
        <ele>1383.732</ele>
        <time>2014-09-13T11:12:52Z</time>
      </trkpt>
      <trkpt lat="42.91729" lon="0.29595">
        <ele>1384.625</ele>
        <time>2014-09-13T11:12:56Z</time>
      </trkpt>
      <trkpt lat="42.91725" lon="0.29608">
        <ele>1386.373</ele>
        <time>2014-09-13T11:13:03Z</time>
      </trkpt>
      <trkpt lat="42.91722" lon="0.29617">
        <ele>1387.428</ele>
        <time>2014-09-13T11:13:08Z</time>
      </trkpt>
      <trkpt lat="42.91721" lon="0.2962">
        <ele>1387.604</ele>
        <time>2014-09-13T11:13:09Z</time>
      </trkpt>
      <trkpt lat="42.91716" lon="0.29633">
        <ele>1389.265</ele>
        <time>2014-09-13T11:13:17Z</time>
      </trkpt>
      <trkpt lat="42.91715" lon="0.29636">
        <ele>1389.645</ele>
        <time>2014-09-13T11:13:19Z</time>
      </trkpt>
      <trkpt lat="42.9171" lon="0.29647">
        <ele>1391.094</ele>
        <time>2014-09-13T11:13:26Z</time>
      </trkpt>
      <trkpt lat="42.91709" lon="0.29649">
        <ele>1391.303</ele>
        <time>2014-09-13T11:13:27Z</time>
      </trkpt>
      <trkpt lat="42.91704" lon="0.2966">
        <ele>1392.596</ele>
        <time>2014-09-13T11:13:34Z</time>
      </trkpt>
      <trkpt lat="42.917" lon="0.29666">
        <ele>1393.658</ele>
        <time>2014-09-13T11:13:38Z</time>
      </trkpt>
      <trkpt lat="42.91696" lon="0.29675">
        <ele>1394.776</ele>
        <time>2014-09-13T11:13:44Z</time>
      </trkpt>
      <trkpt lat="42.91694" lon="0.2968">
        <ele>1395.433</ele>
        <time>2014-09-13T11:13:47Z</time>
      </trkpt>
      <trkpt lat="42.9169" lon="0.2969">
        <ele>1396.811</ele>
        <time>2014-09-13T11:13:53Z</time>
      </trkpt>
      <trkpt lat="42.9169" lon="0.2969">
        <ele>1397.355</ele>
        <time>2014-09-13T11:13:58Z</time>
      </trkpt>
      <trkpt lat="42.9169" lon="0.2969">
        <ele>1397.356</ele>
        <time>2014-09-13T11:13:59Z</time>
      </trkpt>
      <trkpt lat="42.91683" lon="0.29706">
        <ele>1398.749</ele>
        <time>2014-09-13T11:14:07Z</time>
      </trkpt>
      <trkpt lat="42.91683" lon="0.29708">
        <ele>1400.092</ele>
        <time>2014-09-13T11:14:12Z</time>
      </trkpt>
      <trkpt lat="42.91675" lon="0.29729">
        <ele>1401.741</ele>
        <time>2014-09-13T11:14:19Z</time>
      </trkpt>
      <trkpt lat="42.91671" lon="0.29739">
        <ele>1402.988</ele>
        <time>2014-09-13T11:14:25Z</time>
      </trkpt>
      <trkpt lat="42.91666" lon="0.29754">
        <ele>1404.175</ele>
        <time>2014-09-13T11:14:32Z</time>
      </trkpt>
      <trkpt lat="42.91666" lon="0.29755">
        <ele>1404.178</ele>
        <time>2014-09-13T11:14:33Z</time>
      </trkpt>
      <trkpt lat="42.91663" lon="0.29762">
        <ele>1404.974</ele>
        <time>2014-09-13T11:14:37Z</time>
      </trkpt>
      <trkpt lat="42.91659" lon="0.29772">
        <ele>1406.461</ele>
        <time>2014-09-13T11:14:44Z</time>
      </trkpt>
      <trkpt lat="42.91655" lon="0.29781">
        <ele>1407.573</ele>
        <time>2014-09-13T11:14:49Z</time>
      </trkpt>
      <trkpt lat="42.91653" lon="0.29786">
        <ele>1408.253</ele>
        <time>2014-09-13T11:14:52Z</time>
      </trkpt>
      <trkpt lat="42.91649" lon="0.29795">
        <ele>1409.846</ele>
        <time>2014-09-13T11:15:00Z</time>
      </trkpt>
      <trkpt lat="42.91644" lon="0.29806">
        <ele>1411.121</ele>
        <time>2014-09-13T11:15:07Z</time>
      </trkpt>
      <trkpt lat="42.91639" lon="0.29818">
        <ele>1412.604</ele>
        <time>2014-09-13T11:15:14Z</time>
      </trkpt>
      <trkpt lat="42.91638" lon="0.2982">
        <ele>1412.812</ele>
        <time>2014-09-13T11:15:15Z</time>
      </trkpt>
      <trkpt lat="42.91635" lon="0.29826">
        <ele>1413.624</ele>
        <time>2014-09-13T11:15:19Z</time>
      </trkpt>
      <trkpt lat="42.9163" lon="0.29838">
        <ele>1414.874</ele>
        <time>2014-09-13T11:15:26Z</time>
      </trkpt>
      <trkpt lat="42.9163" lon="0.29838">
        <ele>1415.214</ele>
        <time>2014-09-13T11:15:28Z</time>
      </trkpt>
      <trkpt lat="42.91624" lon="0.29851">
        <ele>1416.144</ele>
        <time>2014-09-13T11:15:33Z</time>
      </trkpt>
      <trkpt lat="42.91622" lon="0.29856">
        <ele>1416.668</ele>
        <time>2014-09-13T11:15:36Z</time>
      </trkpt>
      <trkpt lat="42.91617" lon="0.29865">
        <ele>1417.695</ele>
        <time>2014-09-13T11:15:42Z</time>
      </trkpt>
      <trkpt lat="42.91613" lon="0.29872">
        <ele>1418.471</ele>
        <time>2014-09-13T11:15:46Z</time>
      </trkpt>
      <trkpt lat="42.91608" lon="0.29881">
        <ele>1419.281</ele>
        <time>2014-09-13T11:15:53Z</time>
      </trkpt>
      <trkpt lat="42.91606" lon="0.29886">
        <ele>1419.797</ele>
        <time>2014-09-13T11:15:56Z</time>
      </trkpt>
      <trkpt lat="42.91602" lon="0.29893">
        <ele>1421.6</ele>
        <time>2014-09-13T11:16:03Z</time>
      </trkpt>
      <trkpt lat="42.91599" lon="0.299">
        <ele>1423.002</ele>
        <time>2014-09-13T11:16:10Z</time>
      </trkpt>
      <trkpt lat="42.91595" lon="0.29908">
        <ele>1423.917</ele>
        <time>2014-09-13T11:16:15Z</time>
      </trkpt>
      <trkpt lat="42.91591" lon="0.29917">
        <ele>1425.424</ele>
        <time>2014-09-13T11:16:21Z</time>
      </trkpt>
      <trkpt lat="42.91589" lon="0.2992">
        <ele>1425.996</ele>
        <time>2014-09-13T11:16:23Z</time>
      </trkpt>
      <trkpt lat="42.91583" lon="0.29933">
        <ele>1427.778</ele>
        <time>2014-09-13T11:16:31Z</time>
      </trkpt>
      <trkpt lat="42.91583" lon="0.29934">
        <ele>1427.999</ele>
        <time>2014-09-13T11:16:32Z</time>
      </trkpt>
      <trkpt lat="42.91578" lon="0.29946">
        <ele>1429.615</ele>
        <time>2014-09-13T11:16:41Z</time>
      </trkpt>
      <trkpt lat="42.91575" lon="0.29954">
        <ele>1431.079</ele>
        <time>2014-09-13T11:16:48Z</time>
      </trkpt>
      <trkpt lat="42.91572" lon="0.29962">
        <ele>1432.224</ele>
        <time>2014-09-13T11:16:53Z</time>
      </trkpt>
      <trkpt lat="42.91567" lon="0.29977">
        <ele>1434.131</ele>
        <time>2014-09-13T11:17:01Z</time>
      </trkpt>
      <trkpt lat="42.91564" lon="0.29989">
        <ele>1435.154</ele>
        <time>2014-09-13T11:17:07Z</time>
      </trkpt>
      <trkpt lat="42.91561" lon="0.30005">
        <ele>1436.394</ele>
        <time>2014-09-13T11:17:13Z</time>
      </trkpt>
      <trkpt lat="42.91559" lon="0.30015">
        <ele>1438.075</ele>
        <time>2014-09-13T11:17:20Z</time>
      </trkpt>
      <trkpt lat="42.91557" lon="0.30028">
        <ele>1439.82</ele>
        <time>2014-09-13T11:17:29Z</time>
      </trkpt>
      <trkpt lat="42.91557" lon="0.30028">
        <ele>1440.048</ele>
        <time>2014-09-13T11:17:31Z</time>
      </trkpt>
      <trkpt lat="42.91557" lon="0.30038">
        <ele>1441.889</ele>
        <time>2014-09-13T11:17:40Z</time>
      </trkpt>
      <trkpt lat="42.91558" lon="0.30049">
        <ele>1443.594</ele>
        <time>2014-09-13T11:17:48Z</time>
      </trkpt>
      <trkpt lat="42.91559" lon="0.30052">
        <ele>1444.466</ele>
        <time>2014-09-13T11:17:54Z</time>
      </trkpt>
      <trkpt lat="42.91562" lon="0.30065">
        <ele>1444.886</ele>
        <time>2014-09-13T11:18:10Z</time>
      </trkpt>
      <trkpt lat="42.91562" lon="0.30065">
        <ele>1444.858</ele>
        <time>2014-09-13T11:18:18Z</time>
      </trkpt>
      <trkpt lat="42.91562" lon="0.30065">
        <ele>1446.476</ele>
        <time>2014-09-13T11:18:43Z</time>
      </trkpt>
      <trkpt lat="42.91562" lon="0.30065">
        <ele>1446.367</ele>
        <time>2014-09-13T11:18:44Z</time>
      </trkpt>
      <trkpt lat="42.91562" lon="0.30065">
        <ele>1446.406</ele>
        <time>2014-09-13T11:18:45Z</time>
      </trkpt>
      <trkpt lat="42.91564" lon="0.30055">
        <ele>1446.654</ele>
        <time>2014-09-13T11:19:00Z</time>
      </trkpt>
      <trkpt lat="42.91566" lon="0.30055">
        <ele>1446.694</ele>
        <time>2014-09-13T11:19:01Z</time>
      </trkpt>
      <trkpt lat="42.91564" lon="0.30069">
        <ele>1447.339</ele>
        <time>2014-09-13T11:19:07Z</time>
      </trkpt>
      <trkpt lat="42.91566" lon="0.30073">
        <ele>1447.976</ele>
        <time>2014-09-13T11:19:13Z</time>
      </trkpt>
      <trkpt lat="42.91568" lon="0.30078">
        <ele>1449.168</ele>
        <time>2014-09-13T11:19:18Z</time>
      </trkpt>
      <trkpt lat="42.91595" lon="0.30099">
        <ele>1450.362</ele>
        <time>2014-09-13T11:19:24Z</time>
      </trkpt>
      <trkpt lat="42.91606" lon="0.30099">
        <ele>1451.357</ele>
        <time>2014-09-13T11:19:30Z</time>
      </trkpt>
      <trkpt lat="42.91619" lon="0.30099">
        <ele>1451.689</ele>
        <time>2014-09-13T11:19:35Z</time>
      </trkpt>
      <trkpt lat="42.91635" lon="0.30099">
        <ele>1451.88</ele>
        <time>2014-09-13T11:19:41Z</time>
      </trkpt>
      <trkpt lat="42.91647" lon="0.30102">
        <ele>1452.623</ele>
        <time>2014-09-13T11:19:48Z</time>
      </trkpt>
      <trkpt lat="42.91649" lon="0.30102">
        <ele>1453.055</ele>
        <time>2014-09-13T11:19:50Z</time>
      </trkpt>
      <trkpt lat="42.91658" lon="0.30104">
        <ele>1454.228</ele>
        <time>2014-09-13T11:19:56Z</time>
      </trkpt>
      <trkpt lat="42.91675" lon="0.30108">
        <ele>1454.814</ele>
        <time>2014-09-13T11:20:03Z</time>
      </trkpt>
      <trkpt lat="42.91678" lon="0.30108">
        <ele>1454.954</ele>
        <time>2014-09-13T11:20:04Z</time>
      </trkpt>
      <trkpt lat="42.91687" lon="0.30109">
        <ele>1455.487</ele>
        <time>2014-09-13T11:20:09Z</time>
      </trkpt>
      <trkpt lat="42.91701" lon="0.30115">
        <ele>1454.881</ele>
        <time>2014-09-13T11:20:15Z</time>
      </trkpt>
      <trkpt lat="42.91714" lon="0.30123">
        <ele>1453.974</ele>
        <time>2014-09-13T11:20:20Z</time>
      </trkpt>
      <trkpt lat="42.91733" lon="0.30121">
        <ele>1453.476</ele>
        <time>2014-09-13T11:20:24Z</time>
      </trkpt>
      <trkpt lat="42.91737" lon="0.3012">
        <ele>1453.476</ele>
        <time>2014-09-13T11:20:25Z</time>
      </trkpt>
      <trkpt lat="42.91764" lon="0.3011">
        <ele>1452.818</ele>
        <time>2014-09-13T11:20:30Z</time>
      </trkpt>
      <trkpt lat="42.91771" lon="0.30106">
        <ele>1452.499</ele>
        <time>2014-09-13T11:20:32Z</time>
      </trkpt>
      <trkpt lat="42.91804" lon="0.30094">
        <ele>1450.044</ele>
        <time>2014-09-13T11:20:40Z</time>
      </trkpt>
      <trkpt lat="42.91817" lon="0.30091">
        <ele>1448.102</ele>
        <time>2014-09-13T11:20:45Z</time>
      </trkpt>
      <trkpt lat="42.91821" lon="0.3009">
        <ele>1447.187</ele>
        <time>2014-09-13T11:20:49Z</time>
      </trkpt>
      <trkpt lat="42.91821" lon="0.3009">
        <ele>1446.711</ele>
        <time>2014-09-13T11:20:53Z</time>
      </trkpt>
      <trkpt lat="42.91825" lon="0.3009">
        <ele>1446.508</ele>
        <time>2014-09-13T11:20:56Z</time>
      </trkpt>
      <trkpt lat="42.91841" lon="0.30087">
        <ele>1445.269</ele>
        <time>2014-09-13T11:21:06Z</time>
      </trkpt>
      <trkpt lat="42.91843" lon="0.30087">
        <ele>1444.962</ele>
        <time>2014-09-13T11:21:07Z</time>
      </trkpt>
      <trkpt lat="42.91848" lon="0.30086">
        <ele>1444.311</ele>
        <time>2014-09-13T11:21:10Z</time>
      </trkpt>
      <trkpt lat="42.91848" lon="0.30086">
        <ele>1444.029</ele>
        <time>2014-09-13T11:21:19Z</time>
      </trkpt>
      <trkpt lat="42.91848" lon="0.30086">
        <ele>1443.99</ele>
        <time>2014-09-13T11:21:20Z</time>
      </trkpt>
      <trkpt lat="42.91854" lon="0.30086">
        <ele>1443.203</ele>
        <time>2014-09-13T11:21:28Z</time>
      </trkpt>
      <trkpt lat="42.91856" lon="0.30086">
        <ele>1442.649</ele>
        <time>2014-09-13T11:21:33Z</time>
      </trkpt>
      <trkpt lat="42.91856" lon="0.30086">
        <ele>1442.357</ele>
        <time>2014-09-13T11:21:36Z</time>
      </trkpt>
      <trkpt lat="42.91859" lon="0.30086">
        <ele>1441.421</ele>
        <time>2014-09-13T11:21:43Z</time>
      </trkpt>
      <trkpt lat="42.91861" lon="0.30086">
        <ele>1440.686</ele>
        <time>2014-09-13T11:21:49Z</time>
      </trkpt>
      <trkpt lat="42.91865" lon="0.30086">
        <ele>1440.372</ele>
        <time>2014-09-13T11:21:51Z</time>
      </trkpt>
      <trkpt lat="42.91871" lon="0.30085">
        <ele>1439.762</ele>
        <time>2014-09-13T11:21:55Z</time>
      </trkpt>
      <trkpt lat="42.91886" lon="0.30084">
        <ele>1438.49</ele>
        <time>2014-09-13T11:21:59Z</time>
      </trkpt>
      <trkpt lat="42.91905" lon="0.30085">
        <ele>1436.339</ele>
        <time>2014-09-13T11:22:05Z</time>
      </trkpt>
      <trkpt lat="42.9191" lon="0.30086">
        <ele>1436.098</ele>
        <time>2014-09-13T11:22:07Z</time>
      </trkpt>
      <trkpt lat="42.91916" lon="0.30087">
        <ele>1434.926</ele>
        <time>2014-09-13T11:22:13Z</time>
      </trkpt>
      <trkpt lat="42.91926" lon="0.3009">
        <ele>1434.692</ele>
        <time>2014-09-13T11:22:17Z</time>
      </trkpt>
      <trkpt lat="42.91938" lon="0.30095">
        <ele>1434.36</ele>
        <time>2014-09-13T11:22:22Z</time>
      </trkpt>
      <trkpt lat="42.91941" lon="0.30096">
        <ele>1434.667</ele>
        <time>2014-09-13T11:22:25Z</time>
      </trkpt>
      <trkpt lat="42.91945" lon="0.30098">
        <ele>1435.589</ele>
        <time>2014-09-13T11:22:31Z</time>
      </trkpt>
      <trkpt lat="42.91947" lon="0.30099">
        <ele>1435.954</ele>
        <time>2014-09-13T11:22:33Z</time>
      </trkpt>
      <trkpt lat="42.91952" lon="0.30102">
        <ele>1436.92</ele>
        <time>2014-09-13T11:22:38Z</time>
      </trkpt>
      <trkpt lat="42.9196" lon="0.30106">
        <ele>1437.957</ele>
        <time>2014-09-13T11:22:44Z</time>
      </trkpt>
      <trkpt lat="42.91963" lon="0.30109">
        <ele>1438.497</ele>
        <time>2014-09-13T11:22:47Z</time>
      </trkpt>
      <trkpt lat="42.91966" lon="0.30111">
        <ele>1439.45</ele>
        <time>2014-09-13T11:22:51Z</time>
      </trkpt>
      <trkpt lat="42.91984" lon="0.3012">
        <ele>1441.085</ele>
        <time>2014-09-13T11:22:58Z</time>
      </trkpt>
      <trkpt lat="42.91994" lon="0.30124">
        <ele>1441.959</ele>
        <time>2014-09-13T11:23:02Z</time>
      </trkpt>
      <trkpt lat="42.92012" lon="0.30131">
        <ele>1443.127</ele>
        <time>2014-09-13T11:23:08Z</time>
      </trkpt>
      <trkpt lat="42.92031" lon="0.3012">
        <ele>1444.56</ele>
        <time>2014-09-13T11:23:15Z</time>
      </trkpt>
      <trkpt lat="42.92044" lon="0.30111">
        <ele>1445.634</ele>
        <time>2014-09-13T11:23:21Z</time>
      </trkpt>
      <trkpt lat="42.92058" lon="0.30105">
        <ele>1446.317</ele>
        <time>2014-09-13T11:23:28Z</time>
      </trkpt>
      <trkpt lat="42.92076" lon="0.301">
        <ele>1447.259</ele>
        <time>2014-09-13T11:23:36Z</time>
      </trkpt>
      <trkpt lat="42.92085" lon="0.30099">
        <ele>1447.707</ele>
        <time>2014-09-13T11:23:41Z</time>
      </trkpt>
      <trkpt lat="42.92089" lon="0.30099">
        <ele>1447.767</ele>
        <time>2014-09-13T11:23:45Z</time>
      </trkpt>
      <trkpt lat="42.92092" lon="0.30099">
        <ele>1447.516</ele>
        <time>2014-09-13T11:23:51Z</time>
      </trkpt>
      <trkpt lat="42.92105" lon="0.30099">
        <ele>1447.967</ele>
        <time>2014-09-13T11:23:57Z</time>
      </trkpt>
      <trkpt lat="42.92112" lon="0.30099">
        <ele>1448.243</ele>
        <time>2014-09-13T11:24:01Z</time>
      </trkpt>
      <trkpt lat="42.92123" lon="0.30098">
        <ele>1448.703</ele>
        <time>2014-09-13T11:24:07Z</time>
      </trkpt>
      <trkpt lat="42.92132" lon="0.30096">
        <ele>1449.242</ele>
        <time>2014-09-13T11:24:13Z</time>
      </trkpt>
      <trkpt lat="42.92146" lon="0.30094">
        <ele>1449.972</ele>
        <time>2014-09-13T11:24:19Z</time>
      </trkpt>
      <trkpt lat="42.92158" lon="0.30091">
        <ele>1450.506</ele>
        <time>2014-09-13T11:24:24Z</time>
      </trkpt>
      <trkpt lat="42.92172" lon="0.30088">
        <ele>1450.537</ele>
        <time>2014-09-13T11:24:30Z</time>
      </trkpt>
      <trkpt lat="42.92182" lon="0.30085">
        <ele>1450.9</ele>
        <time>2014-09-13T11:24:36Z</time>
      </trkpt>
      <trkpt lat="42.92186" lon="0.30084">
        <ele>1451.172</ele>
        <time>2014-09-13T11:24:40Z</time>
      </trkpt>
      <trkpt lat="42.92186" lon="0.30084">
        <ele>1450.517</ele>
        <time>2014-09-13T11:24:59Z</time>
      </trkpt>
      <trkpt lat="42.92186" lon="0.30084">
        <ele>1450.805</ele>
        <time>2014-09-13T11:25:23Z</time>
      </trkpt>
      <trkpt lat="42.92186" lon="0.30084">
        <ele>1450.548</ele>
        <time>2014-09-13T11:25:24Z</time>
      </trkpt>
      <trkpt lat="42.92186" lon="0.30084">
        <ele>1450.097</ele>
        <time>2014-09-13T11:25:26Z</time>
      </trkpt>
      <trkpt lat="42.92198" lon="0.30082">
        <ele>1448.368</ele>
        <time>2014-09-13T11:25:35Z</time>
      </trkpt>
      <trkpt lat="42.922" lon="0.30082">
        <ele>1448.109</ele>
        <time>2014-09-13T11:25:36Z</time>
      </trkpt>
      <trkpt lat="42.92208" lon="0.30083">
        <ele>1446.915</ele>
        <time>2014-09-13T11:25:42Z</time>
      </trkpt>
      <trkpt lat="42.92216" lon="0.30085">
        <ele>1445.871</ele>
        <time>2014-09-13T11:25:46Z</time>
      </trkpt>
      <trkpt lat="42.92227" lon="0.30054">
        <ele>1444.065</ele>
        <time>2014-09-13T11:25:52Z</time>
      </trkpt>
      <trkpt lat="42.92236" lon="0.30054">
        <ele>1443.667</ele>
        <time>2014-09-13T11:25:57Z</time>
      </trkpt>
      <trkpt lat="42.92238" lon="0.30054">
        <ele>1443.499</ele>
        <time>2014-09-13T11:26:00Z</time>
      </trkpt>
      <trkpt lat="42.92243" lon="0.30053">
        <ele>1442.434</ele>
        <time>2014-09-13T11:26:19Z</time>
      </trkpt>
      <trkpt lat="42.92243" lon="0.30053">
        <ele>1442.306</ele>
        <time>2014-09-13T11:26:20Z</time>
      </trkpt>
      <trkpt lat="42.92246" lon="0.30056">
        <ele>1441.921</ele>
        <time>2014-09-13T11:27:02Z</time>
      </trkpt>
      <trkpt lat="42.92253" lon="0.30042">
        <ele>1439.478</ele>
        <time>2014-09-13T11:27:06Z</time>
      </trkpt>
      <trkpt lat="42.92261" lon="0.3003">
        <ele>1437.363</ele>
        <time>2014-09-13T11:27:09Z</time>
      </trkpt>
      <trkpt lat="42.9227" lon="0.30016">
        <ele>1432.086</ele>
        <time>2014-09-13T11:27:14Z</time>
      </trkpt>
      <trkpt lat="42.92283" lon="0.29993">
        <ele>1426.523</ele>
        <time>2014-09-13T11:27:20Z</time>
      </trkpt>
      <trkpt lat="42.92296" lon="0.29968">
        <ele>1420.934</ele>
        <time>2014-09-13T11:27:25Z</time>
      </trkpt>
      <trkpt lat="42.9231" lon="0.29942">
        <ele>1413.563</ele>
        <time>2014-09-13T11:27:31Z</time>
      </trkpt>
      <trkpt lat="42.92316" lon="0.29931">
        <ele>1411.365</ele>
        <time>2014-09-13T11:27:34Z</time>
      </trkpt>
      <trkpt lat="42.92325" lon="0.29914">
        <ele>1406.467</ele>
        <time>2014-09-13T11:27:39Z</time>
      </trkpt>
      <trkpt lat="42.92336" lon="0.29898">
        <ele>1401.607</ele>
        <time>2014-09-13T11:27:44Z</time>
      </trkpt>
      <trkpt lat="42.92339" lon="0.29894">
        <ele>1400.598</ele>
        <time>2014-09-13T11:27:45Z</time>
      </trkpt>
      <trkpt lat="42.92349" lon="0.29882">
        <ele>1397.556</ele>
        <time>2014-09-13T11:27:48Z</time>
      </trkpt>
      <trkpt lat="42.92366" lon="0.29858">
        <ele>1391.869</ele>
        <time>2014-09-13T11:27:53Z</time>
      </trkpt>
      <trkpt lat="42.92381" lon="0.29839">
        <ele>1386.892</ele>
        <time>2014-09-13T11:27:57Z</time>
      </trkpt>
      <trkpt lat="42.92384" lon="0.29835">
        <ele>1385.653</ele>
        <time>2014-09-13T11:27:58Z</time>
      </trkpt>
      <trkpt lat="42.92402" lon="0.29815">
        <ele>1380.639</ele>
        <time>2014-09-13T11:28:03Z</time>
      </trkpt>
      <trkpt lat="42.92407" lon="0.29811">
        <ele>1379.367</ele>
        <time>2014-09-13T11:28:04Z</time>
      </trkpt>
      <trkpt lat="42.92426" lon="0.29801">
        <ele>1375.417</ele>
        <time>2014-09-13T11:28:07Z</time>
      </trkpt>
      <trkpt lat="42.9245" lon="0.29784">
        <ele>1370.288</ele>
        <time>2014-09-13T11:28:11Z</time>
      </trkpt>
      <trkpt lat="42.92477" lon="0.29759">
        <ele>1364.151</ele>
        <time>2014-09-13T11:28:16Z</time>
      </trkpt>
      <trkpt lat="42.92494" lon="0.29738">
        <ele>1358.889</ele>
        <time>2014-09-13T11:28:20Z</time>
      </trkpt>
      <trkpt lat="42.92507" lon="0.29723">
        <ele>1354.671</ele>
        <time>2014-09-13T11:28:23Z</time>
      </trkpt>
      <trkpt lat="42.92517" lon="0.29713">
        <ele>1353.19</ele>
        <time>2014-09-13T11:28:25Z</time>
      </trkpt>
      <trkpt lat="42.9253" lon="0.29702">
        <ele>1348.193</ele>
        <time>2014-09-13T11:28:28Z</time>
      </trkpt>
      <trkpt lat="42.92544" lon="0.29691">
        <ele>1343.425</ele>
        <time>2014-09-13T11:28:31Z</time>
      </trkpt>
      <trkpt lat="42.92555" lon="0.29676">
        <ele>1337.102</ele>
        <time>2014-09-13T11:28:35Z</time>
      </trkpt>
      <trkpt lat="42.92573" lon="0.29644">
        <ele>1331.31</ele>
        <time>2014-09-13T11:28:39Z</time>
      </trkpt>
      <trkpt lat="42.92586" lon="0.29637">
        <ele>1329.934</ele>
        <time>2014-09-13T11:28:40Z</time>
      </trkpt>
      <trkpt lat="42.92621" lon="0.29638">
        <ele>1322.915</ele>
        <time>2014-09-13T11:28:45Z</time>
      </trkpt>
      <trkpt lat="42.92635" lon="0.29641">
        <ele>1318.094</ele>
        <time>2014-09-13T11:28:50Z</time>
      </trkpt>
      <trkpt lat="42.92639" lon="0.29641">
        <ele>1316.568</ele>
        <time>2014-09-13T11:28:52Z</time>
      </trkpt>
      <trkpt lat="42.92641" lon="0.29641">
        <ele>1314.981</ele>
        <time>2014-09-13T11:28:55Z</time>
      </trkpt>
      <trkpt lat="42.92644" lon="0.29642">
        <ele>1313.685</ele>
        <time>2014-09-13T11:29:12Z</time>
      </trkpt>
      <trkpt lat="42.92644" lon="0.29642">
        <ele>1313.627</ele>
        <time>2014-09-13T11:29:13Z</time>
      </trkpt>
      <trkpt lat="42.92662" lon="0.2964">
        <ele>1311.618</ele>
        <time>2014-09-13T11:29:30Z</time>
      </trkpt>
      <trkpt lat="42.92675" lon="0.29634">
        <ele>1309.021</ele>
        <time>2014-09-13T11:29:35Z</time>
      </trkpt>
      <trkpt lat="42.92683" lon="0.29629">
        <ele>1307.028</ele>
        <time>2014-09-13T11:29:38Z</time>
      </trkpt>
      <trkpt lat="42.92686" lon="0.29628">
        <ele>1306.29</ele>
        <time>2014-09-13T11:29:40Z</time>
      </trkpt>
      <trkpt lat="42.92687" lon="0.29627">
        <ele>1305.011</ele>
        <time>2014-09-13T11:29:42Z</time>
      </trkpt>
      <trkpt lat="42.92691" lon="0.29624">
        <ele>1303.533</ele>
        <time>2014-09-13T11:30:23Z</time>
      </trkpt>
      <trkpt lat="42.92699" lon="0.2962">
        <ele>1301.964</ele>
        <time>2014-09-13T11:30:27Z</time>
      </trkpt>
      <trkpt lat="42.92714" lon="0.2962">
        <ele>1300.318</ele>
        <time>2014-09-13T11:30:30Z</time>
      </trkpt>
      <trkpt lat="42.92743" lon="0.29615">
        <ele>1294.929</ele>
        <time>2014-09-13T11:30:35Z</time>
      </trkpt>
      <trkpt lat="42.92784" lon="0.29608">
        <ele>1286.04</ele>
        <time>2014-09-13T11:30:40Z</time>
      </trkpt>
      <trkpt lat="42.92811" lon="0.29609">
        <ele>1279.74</ele>
        <time>2014-09-13T11:30:45Z</time>
      </trkpt>
      <trkpt lat="42.92809" lon="0.29609">
        <ele>1277.782</ele>
        <time>2014-09-13T11:30:49Z</time>
      </trkpt>
      <trkpt lat="42.92812" lon="0.29609">
        <ele>1276.832</ele>
        <time>2014-09-13T11:31:07Z</time>
      </trkpt>
      <trkpt lat="42.92819" lon="0.29609">
        <ele>1276.01</ele>
        <time>2014-09-13T11:31:09Z</time>
      </trkpt>
      <trkpt lat="42.92837" lon="0.29606">
        <ele>1273.769</ele>
        <time>2014-09-13T11:31:12Z</time>
      </trkpt>
      <trkpt lat="42.92868" lon="0.29606">
        <ele>1268.917</ele>
        <time>2014-09-13T11:31:16Z</time>
      </trkpt>
      <trkpt lat="42.92898" lon="0.29596">
        <ele>1262.98</ele>
        <time>2014-09-13T11:31:20Z</time>
      </trkpt>
      <trkpt lat="42.92948" lon="0.29595">
        <ele>1256.712</ele>
        <time>2014-09-13T11:31:25Z</time>
      </trkpt>
      <trkpt lat="42.93001" lon="0.29589">
        <ele>1247.738</ele>
        <time>2014-09-13T11:31:31Z</time>
      </trkpt>
      <trkpt lat="42.93041" lon="0.29586">
        <ele>1239.632</ele>
        <time>2014-09-13T11:31:36Z</time>
      </trkpt>
      <trkpt lat="42.93074" lon="0.29578">
        <ele>1233.639</ele>
        <time>2014-09-13T11:31:40Z</time>
      </trkpt>
      <trkpt lat="42.9309" lon="0.29569">
        <ele>1230.635</ele>
        <time>2014-09-13T11:31:42Z</time>
      </trkpt>
      <trkpt lat="42.93127" lon="0.29565">
        <ele>1225.786</ele>
        <time>2014-09-13T11:31:46Z</time>
      </trkpt>
      <trkpt lat="42.93159" lon="0.29554">
        <ele>1217.594</ele>
        <time>2014-09-13T11:31:51Z</time>
      </trkpt>
      <trkpt lat="42.93188" lon="0.29538">
        <ele>1211.13</ele>
        <time>2014-09-13T11:31:55Z</time>
      </trkpt>
      <trkpt lat="42.93192" lon="0.29533">
        <ele>1209.532</ele>
        <time>2014-09-13T11:31:56Z</time>
      </trkpt>
      <trkpt lat="42.93222" lon="0.29517">
        <ele>1202.213</ele>
        <time>2014-09-13T11:32:01Z</time>
      </trkpt>
      <trkpt lat="42.93245" lon="0.29511">
        <ele>1197.952</ele>
        <time>2014-09-13T11:32:04Z</time>
      </trkpt>
      <trkpt lat="42.93274" lon="0.29492">
        <ele>1191.123</ele>
        <time>2014-09-13T11:32:08Z</time>
      </trkpt>
      <trkpt lat="42.93289" lon="0.29482">
        <ele>1187.427</ele>
        <time>2014-09-13T11:32:10Z</time>
      </trkpt>
      <trkpt lat="42.93309" lon="0.29467">
        <ele>1181.882</ele>
        <time>2014-09-13T11:32:14Z</time>
      </trkpt>
      <trkpt lat="42.93322" lon="0.29479">
        <ele>1175.071</ele>
        <time>2014-09-13T11:32:18Z</time>
      </trkpt>
      <trkpt lat="42.93364" lon="0.2948">
        <ele>1165.868</ele>
        <time>2014-09-13T11:32:25Z</time>
      </trkpt>
      <trkpt lat="42.93365" lon="0.29492">
        <ele>1163.315</ele>
        <time>2014-09-13T11:32:30Z</time>
      </trkpt>
      <trkpt lat="42.93365" lon="0.29493">
        <ele>1162.498</ele>
        <time>2014-09-13T11:32:33Z</time>
      </trkpt>
      <trkpt lat="42.93365" lon="0.29499">
        <ele>1161.347</ele>
        <time>2014-09-13T11:32:59Z</time>
      </trkpt>
      <trkpt lat="42.93365" lon="0.29498">
        <ele>1160.866</ele>
        <time>2014-09-13T11:33:03Z</time>
      </trkpt>
      <trkpt lat="42.93365" lon="0.29498">
        <ele>1160.315</ele>
        <time>2014-09-13T11:33:06Z</time>
      </trkpt>
      <trkpt lat="42.93365" lon="0.29499">
        <ele>1159.766</ele>
        <time>2014-09-13T11:33:55Z</time>
      </trkpt>
      <trkpt lat="42.93363" lon="0.29513">
        <ele>1159.253</ele>
        <time>2014-09-13T11:34:00Z</time>
      </trkpt>
      <trkpt lat="42.93361" lon="0.29522">
        <ele>1159.191</ele>
        <time>2014-09-13T11:34:04Z</time>
      </trkpt>
      <trkpt lat="42.93357" lon="0.29534">
        <ele>1159.614</ele>
        <time>2014-09-13T11:34:09Z</time>
      </trkpt>
      <trkpt lat="42.93352" lon="0.29546">
        <ele>1159.599</ele>
        <time>2014-09-13T11:34:12Z</time>
      </trkpt>
      <trkpt lat="42.93344" lon="0.29561">
        <ele>1159.514</ele>
        <time>2014-09-13T11:34:17Z</time>
      </trkpt>
      <trkpt lat="42.93342" lon="0.29563">
        <ele>1159.637</ele>
        <time>2014-09-13T11:34:19Z</time>
      </trkpt>
      <trkpt lat="42.93336" lon="0.29573">
        <ele>1159.291</ele>
        <time>2014-09-13T11:34:26Z</time>
      </trkpt>
      <trkpt lat="42.93332" lon="0.29581">
        <ele>1158.823</ele>
        <time>2014-09-13T11:34:31Z</time>
      </trkpt>
      <trkpt lat="42.93329" lon="0.29586">
        <ele>1159.398</ele>
        <time>2014-09-13T11:35:19Z</time>
      </trkpt>
      <trkpt lat="42.93328" lon="0.29588">
        <ele>1159.287</ele>
        <time>2014-09-13T11:35:20Z</time>
      </trkpt>
      <trkpt lat="42.93326" lon="0.2959">
        <ele>1158.888</ele>
        <time>2014-09-13T11:35:25Z</time>
      </trkpt>
      <trkpt lat="42.93303" lon="0.29617">
        <ele>1159.341</ele>
        <time>2014-09-13T11:35:31Z</time>
      </trkpt>
      <trkpt lat="42.93285" lon="0.29637">
        <ele>1159.712</ele>
        <time>2014-09-13T11:35:37Z</time>
      </trkpt>
      <trkpt lat="42.93272" lon="0.2965">
        <ele>1159.848</ele>
        <time>2014-09-13T11:35:41Z</time>
      </trkpt>
      <trkpt lat="42.93241" lon="0.2968">
        <ele>1159.906</ele>
        <time>2014-09-13T11:35:49Z</time>
      </trkpt>
      <trkpt lat="42.93217" lon="0.29705">
        <ele>1160.336</ele>
        <time>2014-09-13T11:35:57Z</time>
      </trkpt>
      <trkpt lat="42.93198" lon="0.29726">
        <ele>1160.523</ele>
        <time>2014-09-13T11:36:04Z</time>
      </trkpt>
      <trkpt lat="42.93196" lon="0.29729">
        <ele>1160.559</ele>
        <time>2014-09-13T11:36:05Z</time>
      </trkpt>
      <trkpt lat="42.93206" lon="0.29727">
        <ele>1160.675</ele>
        <time>2014-09-13T11:36:09Z</time>
      </trkpt>
      <trkpt lat="42.93193" lon="0.29732">
        <ele>1160.543</ele>
        <time>2014-09-13T11:36:14Z</time>
      </trkpt>
      <trkpt lat="42.93178" lon="0.29745">
        <ele>1160.897</ele>
        <time>2014-09-13T11:36:20Z</time>
      </trkpt>
      <trkpt lat="42.93163" lon="0.29759">
        <ele>1161.214</ele>
        <time>2014-09-13T11:36:26Z</time>
      </trkpt>
      <trkpt lat="42.93153" lon="0.29768">
        <ele>1161.425</ele>
        <time>2014-09-13T11:36:30Z</time>
      </trkpt>
      <trkpt lat="42.93149" lon="0.29828">
        <ele>1161.582</ele>
        <time>2014-09-13T11:36:34Z</time>
      </trkpt>
      <trkpt lat="42.93161" lon="0.29833">
        <ele>1161.565</ele>
        <time>2014-09-13T11:36:41Z</time>
      </trkpt>
      <trkpt lat="42.93161" lon="0.29833">
        <ele>1163.189</ele>
        <time>2014-09-13T11:36:47Z</time>
      </trkpt>
      <trkpt lat="42.93192" lon="0.29839">
        <ele>1164.242</ele>
        <time>2014-09-13T11:36:52Z</time>
      </trkpt>
      <trkpt lat="42.93209" lon="0.29841">
        <ele>1165.303</ele>
        <time>2014-09-13T11:36:58Z</time>
      </trkpt>
      <trkpt lat="42.93237" lon="0.2984">
        <ele>1167.38</ele>
        <time>2014-09-13T11:37:07Z</time>
      </trkpt>
      <trkpt lat="42.9325" lon="0.29838">
        <ele>1168.668</ele>
        <time>2014-09-13T11:37:13Z</time>
      </trkpt>
      <trkpt lat="42.93261" lon="0.29837">
        <ele>1169.476</ele>
        <time>2014-09-13T11:37:19Z</time>
      </trkpt>
      <trkpt lat="42.93275" lon="0.29836">
        <ele>1170.668</ele>
        <time>2014-09-13T11:37:26Z</time>
      </trkpt>
      <trkpt lat="42.93291" lon="0.29835">
        <ele>1171.336</ele>
        <time>2014-09-13T11:37:32Z</time>
      </trkpt>
      <trkpt lat="42.93309" lon="0.29835">
        <ele>1172.435</ele>
        <time>2014-09-13T11:37:38Z</time>
      </trkpt>
      <trkpt lat="42.93334" lon="0.29838">
        <ele>1173.735</ele>
        <time>2014-09-13T11:37:46Z</time>
      </trkpt>
      <trkpt lat="42.93352" lon="0.29846">
        <ele>1175.239</ele>
        <time>2014-09-13T11:37:52Z</time>
      </trkpt>
      <trkpt lat="42.93363" lon="0.29854">
        <ele>1175.911</ele>
        <time>2014-09-13T11:37:56Z</time>
      </trkpt>
      <trkpt lat="42.9338" lon="0.29867">
        <ele>1176.493</ele>
        <time>2014-09-13T11:38:01Z</time>
      </trkpt>
      <trkpt lat="42.93402" lon="0.29888">
        <ele>1177.014</ele>
        <time>2014-09-13T11:38:07Z</time>
      </trkpt>
      <trkpt lat="42.93419" lon="0.29911">
        <ele>1177.599</ele>
        <time>2014-09-13T11:38:13Z</time>
      </trkpt>
      <trkpt lat="42.93429" lon="0.29943">
        <ele>1178.376</ele>
        <time>2014-09-13T11:38:19Z</time>
      </trkpt>
      <trkpt lat="42.93425" lon="0.29974">
        <ele>1179.01</ele>
        <time>2014-09-13T11:38:25Z</time>
      </trkpt>
      <trkpt lat="42.93419" lon="0.29998">
        <ele>1179.349</ele>
        <time>2014-09-13T11:38:30Z</time>
      </trkpt>
      <trkpt lat="42.93415" lon="0.3002">
        <ele>1179.549</ele>
        <time>2014-09-13T11:38:35Z</time>
      </trkpt>
      <trkpt lat="42.93412" lon="0.30043">
        <ele>1179.527</ele>
        <time>2014-09-13T11:38:40Z</time>
      </trkpt>
      <trkpt lat="42.93412" lon="0.30044">
        <ele>1179.419</ele>
        <time>2014-09-13T11:38:44Z</time>
      </trkpt>
      <trkpt lat="42.93414" lon="0.3003">
        <ele>1179.324</ele>
        <time>2014-09-13T11:38:52Z</time>
      </trkpt>
      <trkpt lat="42.9345" lon="0.30045">
        <ele>1179.38</ele>
        <time>2014-09-13T11:38:58Z</time>
      </trkpt>
      <trkpt lat="42.93513" lon="0.30024">
        <ele>1179.473</ele>
        <time>2014-09-13T11:39:02Z</time>
      </trkpt>
      <trkpt lat="42.93475" lon="0.30063">
        <ele>1180.028</ele>
        <time>2014-09-13T11:39:06Z</time>
      </trkpt>
      <trkpt lat="42.93479" lon="0.30072">
        <ele>1180.345</ele>
        <time>2014-09-13T11:39:08Z</time>
      </trkpt>
      <trkpt lat="42.93483" lon="0.30088">
        <ele>1181.463</ele>
        <time>2014-09-13T11:39:12Z</time>
      </trkpt>
      <trkpt lat="42.93487" lon="0.30112">
        <ele>1183.171</ele>
        <time>2014-09-13T11:39:19Z</time>
      </trkpt>
      <trkpt lat="42.93487" lon="0.30127">
        <ele>1184.666</ele>
        <time>2014-09-13T11:39:24Z</time>
      </trkpt>
      <trkpt lat="42.93482" lon="0.30155">
        <ele>1186.615</ele>
        <time>2014-09-13T11:39:31Z</time>
      </trkpt>
      <trkpt lat="42.93469" lon="0.30185">
        <ele>1188.452</ele>
        <time>2014-09-13T11:39:38Z</time>
      </trkpt>
      <trkpt lat="42.93456" lon="0.30211">
        <ele>1189.381</ele>
        <time>2014-09-13T11:39:43Z</time>
      </trkpt>
      <trkpt lat="42.93451" lon="0.30223">
        <ele>1189.948</ele>
        <time>2014-09-13T11:39:48Z</time>
      </trkpt>
      <trkpt lat="42.93451" lon="0.30236">
        <ele>1190.234</ele>
        <time>2014-09-13T11:39:54Z</time>
      </trkpt>
      <trkpt lat="42.93452" lon="0.30258">
        <ele>1190.304</ele>
        <time>2014-09-13T11:40:01Z</time>
      </trkpt>
      <trkpt lat="42.93452" lon="0.30269">
        <ele>1190.232</ele>
        <time>2014-09-13T11:40:05Z</time>
      </trkpt>
      <trkpt lat="42.93453" lon="0.30281">
        <ele>1190.369</ele>
        <time>2014-09-13T11:40:09Z</time>
      </trkpt>
      <trkpt lat="42.93464" lon="0.30291">
        <ele>1190.384</ele>
        <time>2014-09-13T11:40:10Z</time>
      </trkpt>
      <trkpt lat="42.93483" lon="0.30278">
        <ele>1190.63</ele>
        <time>2014-09-13T11:40:14Z</time>
      </trkpt>
      <trkpt lat="42.9351" lon="0.30268">
        <ele>1190.993</ele>
        <time>2014-09-13T11:40:19Z</time>
      </trkpt>
      <trkpt lat="42.93523" lon="0.30267">
        <ele>1191.168</ele>
        <time>2014-09-13T11:40:24Z</time>
      </trkpt>
      <trkpt lat="42.93525" lon="0.30267">
        <ele>1191.174</ele>
        <time>2014-09-13T11:40:25Z</time>
      </trkpt>
      <trkpt lat="42.93529" lon="0.30267">
        <ele>1191.312</ele>
        <time>2014-09-13T11:40:27Z</time>
      </trkpt>
      <trkpt lat="42.93572" lon="0.30282">
        <ele>1190.848</ele>
        <time>2014-09-13T11:40:33Z</time>
      </trkpt>
      <trkpt lat="42.9358" lon="0.3029">
        <ele>1190.631</ele>
        <time>2014-09-13T11:40:35Z</time>
      </trkpt>
      <trkpt lat="42.93595" lon="0.30319">
        <ele>1190.173</ele>
        <time>2014-09-13T11:40:40Z</time>
      </trkpt>
      <trkpt lat="42.93596" lon="0.30326">
        <ele>1190.027</ele>
        <time>2014-09-13T11:40:41Z</time>
      </trkpt>
      <trkpt lat="42.93592" lon="0.30362">
        <ele>1189.729</ele>
        <time>2014-09-13T11:40:46Z</time>
      </trkpt>
      <trkpt lat="42.93588" lon="0.30391">
        <ele>1189.507</ele>
        <time>2014-09-13T11:40:51Z</time>
      </trkpt>
      <trkpt lat="42.93592" lon="0.30393">
        <ele>1189.215</ele>
        <time>2014-09-13T11:40:55Z</time>
      </trkpt>
      <trkpt lat="42.93609" lon="0.30394">
        <ele>1188.808</ele>
        <time>2014-09-13T11:40:59Z</time>
      </trkpt>
      <trkpt lat="42.9362" lon="0.30389">
        <ele>1188.513</ele>
        <time>2014-09-13T11:41:02Z</time>
      </trkpt>
      <trkpt lat="42.9369" lon="0.30313">
        <ele>1188.142</ele>
        <time>2014-09-13T11:41:05Z</time>
      </trkpt>
      <trkpt lat="42.93714" lon="0.30355">
        <ele>1187.828</ele>
        <time>2014-09-13T11:41:08Z</time>
      </trkpt>
      <trkpt lat="42.93688" lon="0.30436">
        <ele>1187.539</ele>
        <time>2014-09-13T11:41:13Z</time>
      </trkpt>
      <trkpt lat="42.93705" lon="0.30488">
        <ele>1187.257</ele>
        <time>2014-09-13T11:41:19Z</time>
      </trkpt>
      <trkpt lat="42.93715" lon="0.30526">
        <ele>1186.462</ele>
        <time>2014-09-13T11:41:23Z</time>
      </trkpt>
      <trkpt lat="42.93723" lon="0.30554">
        <ele>1185.786</ele>
        <time>2014-09-13T11:41:26Z</time>
      </trkpt>
      <trkpt lat="42.93743" lon="0.30588">
        <ele>1184.445</ele>
        <time>2014-09-13T11:41:30Z</time>
      </trkpt>
      <trkpt lat="42.93764" lon="0.30621">
        <ele>1182.669</ele>
        <time>2014-09-13T11:41:34Z</time>
      </trkpt>
      <trkpt lat="42.93767" lon="0.30629">
        <ele>1182.103</ele>
        <time>2014-09-13T11:41:35Z</time>
      </trkpt>
      <trkpt lat="42.9378" lon="0.30654">
        <ele>1179.899</ele>
        <time>2014-09-13T11:41:40Z</time>
      </trkpt>
      <trkpt lat="42.93785" lon="0.30661">
        <ele>1179.71</ele>
        <time>2014-09-13T11:41:43Z</time>
      </trkpt>
      <trkpt lat="42.93788" lon="0.3064">
        <ele>1179.813</ele>
        <time>2014-09-13T11:41:46Z</time>
      </trkpt>
      <trkpt lat="42.93787" lon="0.30624">
        <ele>1179.847</ele>
        <time>2014-09-13T11:41:48Z</time>
      </trkpt>
      <trkpt lat="42.93779" lon="0.30569">
        <ele>1178.631</ele>
        <time>2014-09-13T11:41:54Z</time>
      </trkpt>
      <trkpt lat="42.93763" lon="0.30515">
        <ele>1177.22</ele>
        <time>2014-09-13T11:42:01Z</time>
      </trkpt>
      <trkpt lat="42.93747" lon="0.30463">
        <ele>1175.917</ele>
        <time>2014-09-13T11:42:07Z</time>
      </trkpt>
      <trkpt lat="42.93733" lon="0.30415">
        <ele>1173.369</ele>
        <time>2014-09-13T11:42:12Z</time>
      </trkpt>
      <trkpt lat="42.93716" lon="0.30359">
        <ele>1170.414</ele>
        <time>2014-09-13T11:42:18Z</time>
      </trkpt>
      <trkpt lat="42.93709" lon="0.30346">
        <ele>1169.649</ele>
        <time>2014-09-13T11:42:20Z</time>
      </trkpt>
      <trkpt lat="42.93676" lon="0.30289">
        <ele>1167.708</ele>
        <time>2014-09-13T11:42:27Z</time>
      </trkpt>
      <trkpt lat="42.93667" lon="0.30273">
        <ele>1166.516</ele>
        <time>2014-09-13T11:42:33Z</time>
      </trkpt>
      <trkpt lat="42.93631" lon="0.30227">
        <ele>1165.374</ele>
        <time>2014-09-13T11:42:36Z</time>
      </trkpt>
      <trkpt lat="42.93617" lon="0.30201">
        <ele>1164.115</ele>
        <time>2014-09-13T11:42:39Z</time>
      </trkpt>
      <trkpt lat="42.93591" lon="0.3012">
        <ele>1162.288</ele>
        <time>2014-09-13T11:42:46Z</time>
      </trkpt>
      <trkpt lat="42.93592" lon="0.30065">
        <ele>1161.896</ele>
        <time>2014-09-13T11:42:52Z</time>
      </trkpt>
      <trkpt lat="42.93594" lon="0.30021">
        <ele>1161.437</ele>
        <time>2014-09-13T11:42:58Z</time>
      </trkpt>
      <trkpt lat="42.93594" lon="0.30004">
        <ele>1161.227</ele>
        <time>2014-09-13T11:43:01Z</time>
      </trkpt>
      <trkpt lat="42.93586" lon="0.29956">
        <ele>1161.254</ele>
        <time>2014-09-13T11:43:08Z</time>
      </trkpt>
      <trkpt lat="42.93584" lon="0.29914">
        <ele>1160.845</ele>
        <time>2014-09-13T11:43:13Z</time>
      </trkpt>
      <trkpt lat="42.93584" lon="0.29905">
        <ele>1160.579</ele>
        <time>2014-09-13T11:43:14Z</time>
      </trkpt>
      <trkpt lat="42.93586" lon="0.29849">
        <ele>1159.13</ele>
        <time>2014-09-13T11:43:20Z</time>
      </trkpt>
      <trkpt lat="42.93591" lon="0.29779">
        <ele>1158.655</ele>
        <time>2014-09-13T11:43:28Z</time>
      </trkpt>
      <trkpt lat="42.93599" lon="0.29738">
        <ele>1158.466</ele>
        <time>2014-09-13T11:43:33Z</time>
      </trkpt>
      <trkpt lat="42.93616" lon="0.29696">
        <ele>1158.218</ele>
        <time>2014-09-13T11:43:39Z</time>
      </trkpt>
      <trkpt lat="42.93655" lon="0.29639">
        <ele>1157.796</ele>
        <time>2014-09-13T11:43:48Z</time>
      </trkpt>
      <trkpt lat="42.93686" lon="0.29591">
        <ele>1157.783</ele>
        <time>2014-09-13T11:43:55Z</time>
      </trkpt>
      <trkpt lat="42.93712" lon="0.29549">
        <ele>1157.865</ele>
        <time>2014-09-13T11:44:04Z</time>
      </trkpt>
      <trkpt lat="42.93762" lon="0.29471">
        <ele>1157.536</ele>
        <time>2014-09-13T11:44:12Z</time>
      </trkpt>
      <trkpt lat="42.93799" lon="0.29424">
        <ele>1156.592</ele>
        <time>2014-09-13T11:44:19Z</time>
      </trkpt>
      <trkpt lat="42.93821" lon="0.29382">
        <ele>1155.996</ele>
        <time>2014-09-13T11:44:24Z</time>
      </trkpt>
      <trkpt lat="42.93839" lon="0.29349">
        <ele>1156.086</ele>
        <time>2014-09-13T11:44:29Z</time>
      </trkpt>
      <trkpt lat="42.93843" lon="0.29343">
        <ele>1156.126</ele>
        <time>2014-09-13T11:44:30Z</time>
      </trkpt>
      <trkpt lat="42.9386" lon="0.29293">
        <ele>1155.152</ele>
        <time>2014-09-13T11:44:35Z</time>
      </trkpt>
      <trkpt lat="42.93868" lon="0.29274">
        <ele>1153.987</ele>
        <time>2014-09-13T11:44:37Z</time>
      </trkpt>
      <trkpt lat="42.93921" lon="0.2919">
        <ele>1146.852</ele>
        <time>2014-09-13T11:44:45Z</time>
      </trkpt>
      <trkpt lat="42.93935" lon="0.29169">
        <ele>1145.792</ele>
        <time>2014-09-13T11:44:47Z</time>
      </trkpt>
      <trkpt lat="42.93942" lon="0.29159">
        <ele>1144.648</ele>
        <time>2014-09-13T11:44:48Z</time>
      </trkpt>
      <trkpt lat="42.93958" lon="0.29138">
        <ele>1141.256</ele>
        <time>2014-09-13T11:44:51Z</time>
      </trkpt>
      <trkpt lat="42.93946" lon="0.29129">
        <ele>1139.286</ele>
        <time>2014-09-13T11:44:53Z</time>
      </trkpt>
      <trkpt lat="42.9394" lon="0.29129">
        <ele>1138.412</ele>
        <time>2014-09-13T11:44:54Z</time>
      </trkpt>
      <trkpt lat="42.93893" lon="0.29131">
        <ele>1135.804</ele>
        <time>2014-09-13T11:45:01Z</time>
      </trkpt>
      <trkpt lat="42.93865" lon="0.29126">
        <ele>1134.884</ele>
        <time>2014-09-13T11:45:05Z</time>
      </trkpt>
      <trkpt lat="42.93849" lon="0.29122">
        <ele>1133.067</ele>
        <time>2014-09-13T11:45:09Z</time>
      </trkpt>
      <trkpt lat="42.93845" lon="0.29121">
        <ele>1132.296</ele>
        <time>2014-09-13T11:45:11Z</time>
      </trkpt>
      <trkpt lat="42.93847" lon="0.29087">
        <ele>1131.917</ele>
        <time>2014-09-13T11:45:15Z</time>
      </trkpt>
      <trkpt lat="42.93854" lon="0.29077">
        <ele>1132.063</ele>
        <time>2014-09-13T11:45:19Z</time>
      </trkpt>
      <trkpt lat="42.93885" lon="0.29052">
        <ele>1131.308</ele>
        <time>2014-09-13T11:45:27Z</time>
      </trkpt>
      <trkpt lat="42.93888" lon="0.29048">
        <ele>1131.323</ele>
        <time>2014-09-13T11:45:28Z</time>
      </trkpt>
      <trkpt lat="42.93906" lon="0.29006">
        <ele>1131.411</ele>
        <time>2014-09-13T11:45:36Z</time>
      </trkpt>
      <trkpt lat="42.93915" lon="0.28983">
        <ele>1130.819</ele>
        <time>2014-09-13T11:45:40Z</time>
      </trkpt>
      <trkpt lat="42.93921" lon="0.28951">
        <ele>1130.383</ele>
        <time>2014-09-13T11:45:45Z</time>
      </trkpt>
      <trkpt lat="42.93926" lon="0.28923">
        <ele>1129.386</ele>
        <time>2014-09-13T11:45:48Z</time>
      </trkpt>
      <trkpt lat="42.9393" lon="0.28912">
        <ele>1128.618</ele>
        <time>2014-09-13T11:45:50Z</time>
      </trkpt>
      <trkpt lat="42.93957" lon="0.28862">
        <ele>1126.602</ele>
        <time>2014-09-13T11:45:58Z</time>
      </trkpt>
      <trkpt lat="42.93978" lon="0.2882">
        <ele>1124.869</ele>
        <time>2014-09-13T11:46:04Z</time>
      </trkpt>
      <trkpt lat="42.93989" lon="0.28787">
        <ele>1124.214</ele>
        <time>2014-09-13T11:46:08Z</time>
      </trkpt>
      <trkpt lat="42.93999" lon="0.28736">
        <ele>1121.589</ele>
        <time>2014-09-13T11:46:13Z</time>
      </trkpt>
      <trkpt lat="42.94015" lon="0.2871">
        <ele>1119.567</ele>
        <time>2014-09-13T11:46:17Z</time>
      </trkpt>
      <trkpt lat="42.94043" lon="0.28661">
        <ele>1118.213</ele>
        <time>2014-09-13T11:46:24Z</time>
      </trkpt>
      <trkpt lat="42.94052" lon="0.28639">
        <ele>1117.774</ele>
        <time>2014-09-13T11:46:27Z</time>
      </trkpt>
      <trkpt lat="42.94057" lon="0.28617">
        <ele>1117.341</ele>
        <time>2014-09-13T11:46:30Z</time>
      </trkpt>
      <trkpt lat="42.94058" lon="0.2858">
        <ele>1116.944</ele>
        <time>2014-09-13T11:46:35Z</time>
      </trkpt>
      <trkpt lat="42.94055" lon="0.2857">
        <ele>1116.346</ele>
        <time>2014-09-13T11:46:38Z</time>
      </trkpt>
      <trkpt lat="42.94132" lon="0.28595">
        <ele>1114.839</ele>
        <time>2014-09-13T11:46:43Z</time>
      </trkpt>
      <trkpt lat="42.94152" lon="0.28569">
        <ele>1113.856</ele>
        <time>2014-09-13T11:46:48Z</time>
      </trkpt>
      <trkpt lat="42.94156" lon="0.28565">
        <ele>1113.684</ele>
        <time>2014-09-13T11:46:49Z</time>
      </trkpt>
      <trkpt lat="42.94173" lon="0.28546">
        <ele>1113.223</ele>
        <time>2014-09-13T11:46:53Z</time>
      </trkpt>
      <trkpt lat="42.942" lon="0.28518">
        <ele>1112.653</ele>
        <time>2014-09-13T11:46:59Z</time>
      </trkpt>
      <trkpt lat="42.94173" lon="0.28409">
        <ele>1112.401</ele>
        <time>2014-09-13T11:47:03Z</time>
      </trkpt>
      <trkpt lat="42.94187" lon="0.284">
        <ele>1112.043</ele>
        <time>2014-09-13T11:47:06Z</time>
      </trkpt>
      <trkpt lat="42.94195" lon="0.28392">
        <ele>1111.561</ele>
        <time>2014-09-13T11:47:08Z</time>
      </trkpt>
      <trkpt lat="42.94204" lon="0.2838">
        <ele>1110.965</ele>
        <time>2014-09-13T11:47:13Z</time>
      </trkpt>
      <trkpt lat="42.94213" lon="0.28321">
        <ele>1110.844</ele>
        <time>2014-09-13T11:47:20Z</time>
      </trkpt>
      <trkpt lat="42.94225" lon="0.28273">
        <ele>1110.31</ele>
        <time>2014-09-13T11:47:26Z</time>
      </trkpt>
      <trkpt lat="42.94232" lon="0.28243">
        <ele>1109.797</ele>
        <time>2014-09-13T11:47:30Z</time>
      </trkpt>
      <trkpt lat="42.94234" lon="0.2822">
        <ele>1109.196</ele>
        <time>2014-09-13T11:47:34Z</time>
      </trkpt>
      <trkpt lat="42.94233" lon="0.28217">
        <ele>1108.792</ele>
        <time>2014-09-13T11:47:38Z</time>
      </trkpt>
      <trkpt lat="42.94233" lon="0.28214">
        <ele>1108.791</ele>
        <time>2014-09-13T11:47:39Z</time>
      </trkpt>
      <trkpt lat="42.94231" lon="0.28162">
        <ele>1108.785</ele>
        <time>2014-09-13T11:47:48Z</time>
      </trkpt>
      <trkpt lat="42.94232" lon="0.281">
        <ele>1109.321</ele>
        <time>2014-09-13T11:47:57Z</time>
      </trkpt>
      <trkpt lat="42.94232" lon="0.28045">
        <ele>1109.919</ele>
        <time>2014-09-13T11:48:05Z</time>
      </trkpt>
      <trkpt lat="42.9423" lon="0.28022">
        <ele>1110.053</ele>
        <time>2014-09-13T11:48:10Z</time>
      </trkpt>
      <trkpt lat="42.94243" lon="0.27993">
        <ele>1109.684</ele>
        <time>2014-09-13T11:48:15Z</time>
      </trkpt>
      <trkpt lat="42.9425" lon="0.27977">
        <ele>1109.338</ele>
        <time>2014-09-13T11:48:18Z</time>
      </trkpt>
      <trkpt lat="42.94269" lon="0.27934">
        <ele>1107.77</ele>
        <time>2014-09-13T11:48:25Z</time>
      </trkpt>
      <trkpt lat="42.94278" lon="0.27916">
        <ele>1107.235</ele>
        <time>2014-09-13T11:48:28Z</time>
      </trkpt>
      <trkpt lat="42.94285" lon="0.27899">
        <ele>1106.829</ele>
        <time>2014-09-13T11:48:31Z</time>
      </trkpt>
      <trkpt lat="42.94289" lon="0.2789">
        <ele>1106.396</ele>
        <time>2014-09-13T11:48:35Z</time>
      </trkpt>
    </trkseg>
  </trk>
</gpx>